              Height (m), 1500.0000, 1650.0000, 1800.0000, 1950.0000, 2100.0000, 2250.0000, 2400.0000, 2550.0000, 2700.0000, 2850.0000, 3000.0000, 3150.0000, 3300.0000, 3450.0000, 3600.0000, 3750.0000, 3900.0000, 4050.0000, 4200.0000, 4350.0000, 4500.0000, 4650.0000, 4800.0000, 4950.0000, 5100.0000, 5250.0000, 5400.0000, 5550.0000, 5700.0000, 5850.0000, 6000.0000, 6150.0000, 6300.0000, 6450.0000, 6600.0000, 6750.0000, 6900.0000, 7050.0000, 7200.0000, 7350.0000, 7500.0000, 7650.0000, 7800.0000, 7950.0000, 8100.0000, 8250.0000, 8400.0000, 8550.0000, 8700.0000, 8850.0000, 9000.0000, 9150.0000, 9300.0000, 9450.0000, 9600.0000, 9750.0000, 9900.0000,10050.0000,10200.0000,10350.0000,10500.0000,10650.0000,10800.0000,10950.0000,11100.0000,
  8-AUG-2000 00:03:04.00,  999.0000,  999.0000,  999.0000,   -0.6005,  999.0000,  999.0000,  999.0000,  999.0000,  999.0000,  999.0000,   -0.9487,   -0.9381,  999.0000,  999.0000,  999.0000,  999.0000,  999.0000,  999.0000,   -0.0190,   -0.0577,  999.0000,  999.0000,  999.0000,  999.0000,  999.0000,  999.0000,   -1.7217,   -2.2247,   -1.6875,  999.0000,    0.7257,    1.2799,    1.7510,    0.8935,    1.3050,    1.6681,    1.6261,  999.0000,    1.7987,    1.1259,  999.0000,  999.0000,  999.0000,    0.9677,    1.3715,    1.8592,    1.8821,    1.8468,    1.8743,    1.9073,    2.1206,  999.0000,  999.0000,    2.4837,    2.8096,    3.1235,    3.1995,    3.2837,    3.4631,    3.6140,    3.5364,    3.5008,    3.7176,    4.0023,    4.6081,
  8-AUG-2000 00:08:08.00,  999.0000,  999.0000,  999.0000,  999.0000,  999.0000,  999.0000,   -0.8386,   -1.1585,  999.0000,  999.0000,   -2.6090,   -2.9037,  999.0000,  999.0000,   -2.6557,   -2.4212,   -1.9559,   -1.4500,   -0.8897,   -0.7181,   -1.0019,   -1.1049,   -1.0216,   -0.8717,   -2.3909,   -2.3166,   -2.1764,  999.0000,  999.0000,   -1.1000,   -0.7010,   -0.3409,    0.1243,    0.6420,    1.1625,    1.6843,    1.6054,    1.3045,    1.1364,    1.0098,    1.1767,    1.4198,    1.1554,    0.7836,    0.8617,    1.1632,    1.4908,    1.9592,    2.0549,    2.1302,    1.6984,    1.2413,    1.9848,    2.8577,    2.9819,    3.1309,    3.2278,    3.3169,    3.4121,    3.4735,    3.0993,    2.7133,    3.3885,    4.0480,    4.6337,
  8-AUG-2000 00:13:14.00,  999.0000,  999.0000,  999.0000,  999.0000,   -0.7140,   -0.9445,   -0.9811,   -1.0947,   -1.4165,   -1.7156,  999.0000,  999.0000,   -2.4551,   -2.5074,   -2.2221,   -1.8863,   -1.4738,   -1.2234,  999.0000,  999.0000,   -1.1203,   -1.0906,   -1.0657,   -1.4403,   -2.1776,   -2.3730,   -2.4491,   -2.6792,   -1.9827,   -0.7322,   -0.1215,    0.1861,    0.6270,    1.1345,    1.5938,    2.0323,    2.1839,    2.2294,    1.9957,    1.6748,    1.5538,    1.4848,    1.6026,    1.7600,    1.9100,  999.0000,  999.0000,    3.2707,    3.2137,    3.1183,    2.7100,    2.2860,    2.4100,  999.0000,  999.0000,    3.5874,    3.5357,    3.4665,  999.0000,  999.0000,  999.0000,    2.5014,    3.3500,    4.1221,    4.5332,
  8-AUG-2000 00:18:18.00,    0.7253,    0.5528,  999.0000,  999.0000,   -0.5861,   -0.8886,   -0.9442,   -0.9962,   -1.0386,   -1.0441,  999.0000,  999.0000,  999.0000,  999.0000,  999.0000,  999.0000,  999.0000,  999.0000,   -0.3225,   -0.1993,  999.0000,  999.0000,  999.0000,  999.0000,  999.0000,   -3.2334,   -2.7138,  999.0000,  999.0000,   -0.8947,   -0.3392,    0.1435,    0.5272,    0.8615,    1.3246,    1.8434,    2.1932,    2.4807,    2.3006,    1.9743,    1.9078,    1.9087,    1.7834,    1.6312,    1.9373,    2.3196,    2.7546,    3.1960,    3.0153,    2.7808,    2.5289,    2.1257,    2.4793,    2.8540,  999.0000,  999.0000,  999.0000,  999.0000,  999.0000,    4.6110,    4.0635,    3.6775,    4.2598,    4.8148,    5.2413,
  8-AUG-2000 00:23:22.00,    0.9883,    0.9465,  999.0000,  999.0000,  999.0000,  999.0000,   -0.5603,   -0.8899,  999.0000,  999.0000,   -2.1078,   -2.3801,  999.0000,  999.0000,   -2.3954,   -2.3052,  999.0000,  999.0000,  999.0000,  999.0000,   -1.1300,   -1.0654,   -1.1766,   -1.3606,  999.0000,   -3.8815,   -3.4798,   -3.0781,   -2.1734,   -0.9374,   -0.2528,    0.1146,    0.4482,    0.7649,    1.2673,    1.8498,    2.0024,    1.9959,    1.9589,    1.9122,    2.0337,    2.1990,    2.0959,    1.9360,    2.1795,    2.4902,    2.9159,    3.3559,    2.9555,    2.4827,    2.1649,    2.3424,    2.5253,    3.4322,    3.6159,    3.7963,    3.9101,    4.0428,    4.3939,    4.6366,    4.0134,    3.6330,    4.7080,    5.5985,    5.6178,
  8-AUG-2000 00:28:26.00,  999.0000,    0.7096,  999.0000,  999.0000,   -0.8024,   -1.1319,   -0.9037,   -0.8856,   -1.4357,   -1.8196,  999.0000,  999.0000,  999.0000,  999.0000,  999.0000,  999.0000,   -1.8144,   -1.7566,  999.0000,  999.0000,   -1.3550,   -1.4592,   -1.8089,   -1.8074,  999.0000,   -3.4724,   -2.7784,   -2.0843,   -1.4266,   -0.7929,   -0.2639,    0.2048,    0.5968,    0.9503,    1.3438,    1.7544,    2.1159,    2.4592,    2.2850,    1.9491,    2.0926,    2.3608,    2.1184,    1.7680,    2.1572,    2.6696,    2.9299,    3.1587,    3.3197,    3.4749,    2.9920,    2.4771,    3.1289,    3.7976,    4.3498,    4.8715,    4.7832,    4.6968,    4.6318,    4.5019,    3.8537,    3.4540,    4.5441,    5.3683,    4.9366,
  8-AUG-2000 00:33:31.00,  999.0000,  999.0000,  999.0000,   -2.0542,  999.0000,  999.0000,  999.0000,  999.0000,   -1.5251,   -1.6106,   -2.1387,   -2.4308,  999.0000,  999.0000,  999.0000,  999.0000,  999.0000,  999.0000,   -1.1738,   -1.0836,   -1.0983,   -1.1035,   -1.0991,   -1.0809,  999.0000,   -2.7656,   -2.4050,   -2.0444,   -1.5968,   -1.0919,   -0.5355,   -0.0361,    0.3654,    0.7969,    1.4407,    2.2197,    2.4293,    2.4797,    2.4405,    2.2776,    2.2366,    2.2073,    2.0105,    1.7783,    2.0903,    2.4932,    2.8464,    3.1934,    3.2625,    3.3078,    2.9607,    2.5940,    2.9806,    3.3829,    4.0087,    4.6152,    4.8371,    5.0146,    4.6775,    4.3770,    4.3680,    4.4506,    5.0814,    5.5623,    5.3353,
  8-AUG-2000 00:38:35.00,    0.9979,    0.8167,    0.2008,   -0.2568,   -0.1062,   -0.0222,  999.0000,  999.0000,   -0.4106,   -0.8360,   -1.9464,   -2.7831,   -3.0727,   -3.1583,   -2.8891,   -2.4753,   -1.8418,   -1.5205,  999.0000,  999.0000,   -1.8035,   -1.9177,   -2.0523,   -2.6292,   -3.6079,   -3.2601,   -2.7474,   -2.2348,   -1.7313,   -1.2337,   -0.7297,   -0.4295,    0.0605,    0.9884,    1.4702,    1.8902,    1.9344,    1.8533,    1.7245,    1.5011,    1.4178,    1.2633,    1.2116,    1.0881,    1.1981,    1.3310,    1.4834,    1.6382,    1.7280,    1.8121,    1.7303,    1.6402,    1.9488,    2.2715,    3.0689,    3.8604,    4.5355,    5.1132,    4.5629,    4.0759,    4.0937,    4.1914,    4.7673,    5.2436,    5.2493,
  8-AUG-2000 00:43:39.00,    1.0791,    0.9622,  999.0000,  999.0000,   -0.8591,   -1.3722,   -1.5843,   -1.7763,   -1.9138,   -2.1268,   -2.5145,   -2.6967,   -2.4685,   -2.5139,   -3.0347,   -3.0827,   -2.4127,   -1.8518,   -1.4364,   -1.0121,   -0.5776,   -0.4968,   -0.7806,   -1.2139,   -1.7830,   -3.0094,   -2.5617,   -2.1140,   -1.7510,   -1.4439,   -1.2331,   -1.0778,   -0.4834,    0.3306,    0.8873,    1.3329,    1.6791,    1.8146,    1.8109,    1.8310,  999.0000,  999.0000,  999.0000,    1.0106,    1.0470,    1.1291,    1.4529,    1.7957,    1.8223,    1.8217,    1.4938,    1.1495,    1.8001,    2.4854,    3.1581,    3.8153,    4.1636,    4.4560,    4.1012,    3.8135,    4.0606,    4.3734,    5.0792,    5.6134,    5.3371,
  8-AUG-2000 00:48:43.00,    0.8973,    0.7884,    0.2413,   -0.2826,   -0.7171,   -1.2073,   -1.8759,   -2.3620,   -2.3547,   -2.5782,   -3.3360,   -3.9006,   -4.0791,   -3.9712,   -3.3655,   -2.7907,  999.0000,  999.0000,  999.0000,  999.0000,   -0.1501,   -0.2028,  999.0000,  999.0000,   -2.1580,   -2.7592,   -2.4537,   -2.1482,   -1.6818,   -1.1095,   -0.6875,   -0.3519,    0.1767,    0.7894,    1.7473,    2.7332,    2.9440,  999.0000,    2.9443,    2.6855,    2.5776,    2.4633,    2.2193,    1.7793,    1.7162,    1.7875,  999.0000,  999.0000,  999.0000,  999.0000,  999.0000,  999.0000,    3.0526,    3.1899,    3.9677,    4.7259,    5.0941,    5.4164,    5.2065,    5.0768,    5.5874,    6.0926,    6.5656,    6.8460,    6.2174,
  8-AUG-2000 00:53:47.00,    1.6592,    1.5979,  999.0000,  999.0000,  999.0000,  999.0000,   -0.4673,   -0.9558,  999.0000,  999.0000,   -3.0339,   -3.3891,  999.0000,  999.0000,  999.0000,  999.0000,  999.0000,  999.0000,   -1.1541,   -1.1931,  999.0000,  999.0000,   -2.5690,   -2.6128,  999.0000,   -3.4916,   -2.7067,   -1.8844,   -1.3379,   -1.0833,   -0.6665,   -0.3146,    0.1994,    1.3437,  999.0000,    1.9848,    2.1301,    2.1091,    2.1625,    2.2393,    2.1447,    2.0057,  999.0000,  999.0000,  999.0000,    2.3800,    2.3619,    2.3219,    2.5407,    2.7819,    2.7031,    2.6082,    3.1159,    3.6293,    3.9010,    4.1826,    4.6614,    5.1036,    5.0873,    5.1472,    5.8137,    6.3857,    6.9451,    7.3379,    6.9437,
  8-AUG-2000 00:58:51.00,    1.8279,    1.8291,  999.0000,  999.0000,    0.3566,   -0.1678,   -0.7998,   -1.3816,  999.0000,  999.0000,   -2.7202,   -3.0313,   -3.0722,   -2.9962,   -2.7167,   -2.2944,   -1.6552,   -1.3201,  999.0000,  999.0000,  999.0000,  999.0000,   -1.6712,   -1.6693,  999.0000,  999.0000,   -1.4674,   -1.5979,   -1.8670,   -2.7014,   -2.1808,   -1.6306,   -0.7348,  999.0000,  999.0000,    2.4016,    2.5398,    2.3669,    2.4061,    2.5116,    2.6389,    2.7997,    2.4895,    1.8762,    1.9232,    2.0524,    1.9794,    1.8811,    1.8688,    1.8639,    1.6404,    1.4059,    2.5259,    3.6628,    4.5025,    5.3064,    5.3973,    5.5011,    5.5454,    6.0530,    6.4305,    6.7052,    6.9134,    7.0329,    6.7333,
  8-AUG-2000 01:04:02.00,    0.9356,    0.7954,    0.2556,   -0.1081,    0.2049,    0.3298,  999.0000,  999.0000,  999.0000,  999.0000,  999.0000,  999.0000,   -3.0086,   -3.2456,   -3.0656,   -2.6824,   -1.9904,   -1.6995,  999.0000,  999.0000,  999.0000,  999.0000,  999.0000,  999.0000,   -3.4019,   -2.9814,   -2.0305,   -1.4883,   -1.8643,   -2.2403,   -1.8426,  999.0000,    0.8083,    0.8359,    1.3809,    1.7454,    2.1018,    2.4432,    2.6722,    2.8660,  999.0000,  999.0000,    1.3184,    1.6146,    1.3702,    1.1411,    1.2326,    1.3643,    1.4805,    1.5954,    1.4346,    1.2601,    2.3231,    3.4084,    4.6364,    5.8048,    5.7808,    5.7728,    5.9500,    6.1972,    7.0029,    7.7193,    7.9011,    8.0343,    7.9387,
  8-AUG-2000 01:09:06.00,    1.8293,    1.5402,    0.5001,   -0.3539,  999.0000,  999.0000,   -0.7686,   -0.9346,  999.0000,  999.0000,  999.0000,  999.0000,  999.0000,  999.0000,   -2.6218,   -2.4285,   -1.5756,   -1.0489,  999.0000,  999.0000,   -0.7724,   -0.7402,  999.0000,  999.0000,  999.0000,  999.0000,   -0.8890,   -1.5862,   -1.5956,   -1.6050,   -1.3608,   -0.9545,   -0.2656,  999.0000,    2.4902,    2.2484,    2.5964,    2.7539,    2.9139,    3.0748,    3.1128,    3.1188,    3.1447,    3.1748,    2.6261,    1.9809,    1.8651,    1.8155,    1.9183,    2.0343,    1.9460,    1.8475,    3.0305,    4.2228,    4.7192,    5.1964,    5.2914,    5.4062,    5.7502,    6.1461,    6.9570,    7.6437,    7.5865,    7.5231,    7.4301,
  8-AUG-2000 01:14:10.00,    1.6382,    1.3226,    0.4214,   -0.3037,   -0.3519,   -0.4605,   -0.7619,   -1.1090,   -1.5801,   -2.0915,  999.0000,  999.0000,   -3.9063,   -4.0603,  999.0000,  999.0000,   -2.1709,   -1.7268,  999.0000,  999.0000,   -1.1365,   -1.4622,   -2.3268,   -2.6471,   -2.4730,   -2.2928,  999.0000,  999.0000,   -1.7376,   -1.5539,   -1.3710,   -0.9291,   -0.1367,    0.6969,    1.7011,    2.7789,    3.1194,    3.1872,    3.3569,    3.5584,    3.5102,    3.3970,    3.1555,    2.8869,    2.4861,    2.0632,    2.1568,    2.3150,    2.3899,    2.4577,    2.7459,    3.0452,    3.6288,    4.2128,    4.5378,    4.8610,    5.1464,    5.4583,    6.0761,    6.6902,    7.2738,    7.7619,    7.6772,    7.5480,    7.2089,
  8-AUG-2000 01:19:14.00,  999.0000,  999.0000,  999.0000,   -0.0551,   -0.1268,   -0.3463,  999.0000,  999.0000,  999.0000,  999.0000,  999.0000,  999.0000,   -5.1926,   -5.4400,  999.0000,  999.0000,  999.0000,  999.0000,  999.0000,  999.0000,   -1.7585,   -1.4649,  999.0000,  999.0000,  999.0000,  999.0000,   -1.1942,   -1.2393,   -1.4141,   -1.5889,   -1.4640,   -1.1668,   -0.3148,    0.8148,    1.6565,    2.3738,    2.6976,    2.8760,    3.1934,    3.5542,    3.4466,    3.2172,    2.7666,    2.2692,    1.9685,    1.7007,    1.8114,    1.9694,    2.4204,    2.8966,    3.1498,    3.3920,    4.1534,    4.9138,    5.0940,    5.2863,    5.7198,    6.1690,    6.8004,    7.4563,    8.3074,    9.0199,    8.9016,    8.6888,    8.0304,
  8-AUG-2000 01:24:18.00,  999.0000,  999.0000,  999.0000,  999.0000,  999.0000,  999.0000,  999.0000,  999.0000,  999.0000,  999.0000,   -4.1020,   -4.4353,   -4.3607,   -4.1338,   -3.6422,   -2.9573,   -1.9786,   -1.0012,   -0.0254,    0.1433,   -0.6336,   -1.1288,  999.0000,  999.0000,   -1.7432,   -1.6301,   -1.2629,   -1.4509,   -1.6501,   -1.7681,   -1.7423,   -1.6171,   -0.7497,    0.4890,    1.3893,    2.1435,    2.6306,    3.0189,    3.2629,    3.4617,    3.3168,    3.0823,    2.8284,    2.5703,    2.4232,    2.2946,    2.3745,    2.4806,    2.6223,    2.7671,    2.9710,    3.1779,    4.0797,    4.9822,    5.2360,    5.4946,    5.8462,    6.2100,    6.7141,    7.2533,    8.0730,    8.7511,    8.5806,    8.4000,    8.1715,
  8-AUG-2000 01:29:22.00,  999.0000,  999.0000,  999.0000,   -1.9701,  999.0000,  999.0000,  999.0000,  999.0000,  999.0000,  999.0000,   -4.5303,   -4.6478,  999.0000,  999.0000,  999.0000,  999.0000,  999.0000,  999.0000,  999.0000,  999.0000,   -1.2403,   -0.9521,  999.0000,  999.0000,  999.0000,  999.0000,  999.0000,  999.0000,  999.0000,   -1.2784,   -1.0351,   -0.8552,   -0.1458,    0.8635,    1.8132,    2.7777,    3.1856,    3.3580,    3.2687,    3.0670,    2.9829,    2.9313,    2.7629,    2.5492,    2.4162,    2.3553,    2.3915,    2.4482,    2.0748,    1.6645,    1.7518,    1.8641,    3.3356,    4.8120,    5.2443,    5.6698,    5.9605,    6.2588,    6.6471,    7.0748,    7.8175,    8.4401,    8.3423,    8.2690,    8.4665,
  8-AUG-2000 01:34:27.00,  999.0000,  999.0000,  999.0000,   -0.8504,   -0.9806,   -1.0616,   -0.9856,   -1.0138,   -1.3239,   -1.8011,  999.0000,  999.0000,   -4.3927,   -4.7123,   -4.0862,   -3.6656,  999.0000,  999.0000,  999.0000,  999.0000,  999.0000,  999.0000,  999.0000,  999.0000,   -2.6886,   -2.4355,  999.0000,   -1.5923,   -1.5634,   -1.5903,   -1.2556,  999.0000,  999.0000,    0.5812,    1.3638,    2.1958,    2.5798,  999.0000,  999.0000,    3.2300,    3.3262,    3.3913,  999.0000,  999.0000,  999.0000,    2.4462,    2.4323,    2.4417,    2.0531,    1.6301,    2.1112,    2.5512,    4.0029,    5.5216,    5.8279,    6.1405,    6.5772,    7.0150,    7.4645,    7.9052,    8.2761,    8.5977,    8.6243,    8.5236,  999.0000,
  8-AUG-2000 01:39:31.00,  999.0000,  999.0000,  999.0000,   -0.7648,  999.0000,  999.0000,   -1.1246,   -1.2217,   -1.2568,   -1.3943,  999.0000,  999.0000,  999.0000,  999.0000,   -3.2669,   -3.1500,   -2.2869,   -1.2312,    0.0810,    0.3625,   -0.5636,   -0.9129,  999.0000,  999.0000,   -2.8095,   -2.7142,   -2.2979,   -1.6401,   -1.4556,   -1.5825,   -1.5485,   -1.4220,   -0.8366,   -0.0217,    0.4908,    0.8728,    1.4412,    2.0786,    2.7984,    3.5439,    3.7995,    3.9278,    3.3214,    2.5596,    2.2362,    1.9858,    2.0500,    2.1536,    1.8302,    1.3710,  999.0000,  999.0000,  999.0000,    5.1567,    5.9318,    6.7029,    7.3917,    8.0519,    8.3811,    8.7303,    9.2396,    9.6553,    9.5096,    9.2991,    8.7821,
  8-AUG-2000 01:44:35.00,    0.5646,   -0.4403,   -0.8017,   -1.1017,   -1.1661,   -1.2141,   -1.2097,   -1.3437,  999.0000,  999.0000,   -2.8688,   -3.2008,  999.0000,  999.0000,   -3.1394,   -2.9115,   -2.3688,   -2.0389,  999.0000,  999.0000,  999.0000,  999.0000,  999.0000,  999.0000,  999.0000,   -2.0971,   -1.7432,   -1.5007,   -1.3337,   -1.2702,   -1.0918,   -0.8473,   -0.3532,    0.2657,    0.9267,    1.6059,    2.0385,    2.3800,    3.1918,    4.1506,    4.1775,    3.9621,    3.4618,    2.9012,    2.4394,    1.9942,    1.6632,    1.3466,  999.0000,  999.0000,  999.0000,    2.1016,    3.2628,    4.4380,    5.5553,    6.6608,    7.5296,    8.3564,    8.6980,    9.0019,    9.0055,    9.0141,    9.0519,    9.0265,    8.7029,
  8-AUG-2000 01:49:40.00,  999.0000,  999.0000,  999.0000,   -1.0548,  999.0000,  999.0000,   -0.9846,   -1.1507,   -1.8295,   -2.4836,   -3.0805,   -3.6666,   -4.2313,   -4.3122,  999.0000,  999.0000,   -2.0322,   -1.2004,   -0.2729,   -0.0541,   -0.6657,   -0.9729,  999.0000,  999.0000,   -2.1843,  999.0000,  999.0000,   -1.9269,   -1.8078,   -1.6554,   -1.5651,   -1.4989,   -0.7317,    0.3897,    1.2527,    2.0416,    2.5390,    2.9287,    3.2865,    3.6343,    3.7129,    3.7811,    3.3377,    2.9280,    2.7726,    2.6738,    2.0938,    1.4538,    1.5216,    1.6504,    2.0689,    2.5020,    3.9612,    5.4299,    6.4630,    7.4842,    8.2656,    8.9923,    9.0846,    9.1449,    8.9507,    8.8223,    8.9772,    9.0666,    8.2105,
  8-AUG-2000 01:54:44.00,    1.2244,    0.8947,  999.0000,  999.0000,   -1.0978,   -1.6397,   -1.7904,   -1.7752,   -1.3115,   -1.4136,   -2.8253,   -3.9443,   -4.4783,   -4.5306,  999.0000,  999.0000,  999.0000,  999.0000,   -0.6076,   -0.2404,  999.0000,  999.0000,  999.0000,  999.0000,   -2.0682,   -1.4629,   -1.3294,   -1.4641,   -1.4338,  999.0000,   -1.5123,   -1.2505,   -0.8891,   -0.4120,    0.3876,    1.4175,    1.9622,    2.2775,    2.9606,    3.7438,  999.0000,  999.0000,  999.0000,    3.0266,    2.7711,    2.5127,    1.9632,    1.3774,    1.6583,    2.0138,    2.6527,    3.3058,    4.2642,    5.2313,    6.4298,    7.5911,    8.0111,    8.4394,    8.9627,    9.4625,    9.7735,   10.0172,  999.0000,  999.0000,  999.0000,
  8-AUG-2000 01:59:49.00,    1.5800,    1.1174,  999.0000,  999.0000,   -1.1056,   -1.5784,   -1.1936,   -1.1359,   -1.9625,   -2.7254,   -3.3413,   -3.7933,   -3.9177,   -3.7086,   -2.9201,   -2.3850,  999.0000,  999.0000,  999.0000,  999.0000,   -1.6340,   -1.4004,  999.0000,  999.0000,   -1.8162,   -0.5332,  999.0000,   -0.9087,   -1.0178,   -1.3492,   -1.5734,   -1.7360,   -1.5304,   -1.1407,   -0.0651,    1.3068,    2.0606,  999.0000,    3.7035,    3.5155,    3.3029,    3.0646,    2.5969,    2.0926,    1.7907,    1.5226,    1.4000,    1.2957,    1.7736,    2.3561,    3.3524,    4.3747,    4.6874,    5.0043,    6.2158,    7.4030,    8.1036,    8.7858,    9.2532,    9.6802,    9.7848,    9.8252,    9.4809,    9.1801,    9.1385,
  8-AUG-2000 02:04:54.00,  999.0000,  999.0000,  999.0000,   -1.6990,   -1.7136,   -1.7171,   -1.6849,   -1.6654,   -1.6800,   -2.0001,   -3.0270,   -3.8062,   -4.0900,   -4.1080,  999.0000,  999.0000,  999.0000,  999.0000,  999.0000,  999.0000,   -1.0000,   -0.8291,  999.0000,  999.0000,  999.0000,  999.0000,  999.0000,   -1.1096,   -1.3951,   -1.6807,   -1.9298,   -2.1580,   -1.8607,   -1.3005,   -0.4363,    0.5592,    1.4682,    2.3452,    2.8348,  999.0000,  999.0000,    3.9403,    3.6550,    3.2314,    2.6134,    1.9631,    1.9059,    1.9229,  999.0000,  999.0000,  999.0000,    4.3661,    4.5855,    4.6126,    6.0302,    7.4238,    8.3406,    9.2128,    9.5694,    9.8846,    9.8696,    9.7752,    9.2048,    8.6520,  999.0000,
  8-AUG-2000 02:09:58.00,    1.2205,    1.1415,  999.0000,  999.0000,   -0.5679,   -1.0815,   -1.4150,   -1.6787,   -1.7533,   -1.7783,  999.0000,  999.0000,  999.0000,  999.0000,  999.0000,  999.0000,   -1.1511,   -0.7769,   -0.0235,    0.0131,   -0.7901,   -1.3591,   -1.6868,   -1.8453,  999.0000,  999.0000,  999.0000,   -0.9974,   -1.3424,   -1.6815,   -1.8834,   -2.0063,   -1.7529,   -1.3112,   -0.5578,    0.3634,    1.3026,    2.2448,    2.7232,  999.0000,  999.0000,    3.6805,    3.4441,    3.0910,    2.5251,    1.9237,    1.9770,    2.1122,    2.2382,    2.3635,  999.0000,  999.0000,  999.0000,    3.6680,    5.1663,    6.6498,    7.8403,    8.9987,    9.7854,   10.4535,   10.1741,    9.8127,    8.9591,    8.1866,    7.7968,
  8-AUG-2000 02:15:02.00,  999.0000,  999.0000,  999.0000,  999.0000,   -0.7347,   -0.9767,   -0.9913,   -1.2023,   -1.9440,   -2.7757,   -3.8158,   -4.4676,   -4.3433,   -4.0987,   -3.6452,   -2.9847,  999.0000,  999.0000,   -0.0595,    0.2286,   -0.2878,   -0.6808,  999.0000,  999.0000,   -1.6996,  999.0000,   -2.0096,   -1.6073,   -1.5742,   -1.4823,   -1.3465,   -1.1855,   -0.8002,   -0.3100,    0.1941,  999.0000,  999.0000,  999.0000,  999.0000,    2.8114,    3.0913,    3.3493,    3.3062,    3.2527,    2.9170,    2.4826,    2.5380,    2.6492,    2.8618,    3.0831,    3.3013,    3.5194,    4.0385,    4.5730,    5.7554,    6.9133,    7.5993,    8.2820,    8.8083,    9.2487,    9.0256,    8.7273,    7.9795,    7.3599,    7.3458,
  8-AUG-2000 02:20:06.00,  999.0000,    2.5357,  999.0000,  999.0000,   -0.3017,   -1.0375,   -1.1019,   -1.3517,  999.0000,  999.0000,   -3.6053,   -3.8806,  999.0000,  999.0000,  999.0000,  999.0000,   -0.5013,    0.1257,    0.6875,    0.8093,  999.0000,  999.0000,  999.0000,  999.0000,   -2.0867,   -1.3327,   -1.3274,   -1.7329,   -1.8427,   -1.7577,   -1.4037,   -0.8948,   -0.3102,    0.6770,    1.4070,    1.5573,    1.9450,    2.2449,    2.5340,  999.0000,  999.0000,    3.3892,  999.0000,  999.0000,    2.1838,    2.2914,    2.4749,    2.7188,    3.1000,    3.4931,    3.2769,    3.0303,    3.5844,    4.1094,    5.5771,    7.0286,  999.0000,  999.0000,  999.0000,    9.2231,    8.7761,    8.3379,    7.9532,    7.6421,    7.6789,
  8-AUG-2000 02:25:10.00,  999.0000,  999.0000,  999.0000,  999.0000,   -1.2491,   -1.7459,   -1.7620,   -1.8847,   -2.2958,   -2.7814,   -3.4398,   -3.7923,  999.0000,  999.0000,  999.0000,  999.0000,  999.0000,  999.0000,  999.0000,  999.0000,   -1.4645,   -1.3069,  999.0000,  999.0000,   -1.1467,   -0.9825,   -1.2659,   -1.5822,   -1.5038,   -1.1657,   -0.5583,    0.2040,    0.6839,  999.0000,  999.0000,    1.7003,    1.9066,  999.0000,  999.0000,    2.2355,    2.6130,    3.0688,    3.0168,    2.8574,    2.7189,    2.5839,    2.9469,    3.3694,    3.2517,    3.1691,    3.0379,    2.9051,  999.0000,  999.0000,  999.0000,    6.9887,    7.8551,    8.6813,    9.0404,    9.3088,    8.8511,    8.3740,    7.7805,    7.3066,    7.3971,
  8-AUG-2000 02:30:15.00,  999.0000,  999.0000,  999.0000,   -1.0654,   -1.1912,   -1.2435,   -1.0607,   -1.1854,   -2.1422,   -2.9687,   -3.4939,   -3.7615,  999.0000,  999.0000,   -3.0198,   -2.5504,  999.0000,  999.0000,   -0.1300,   -0.1415,   -1.1114,   -1.4461,   -1.1257,   -0.9222,   -1.5889,   -1.2076,   -1.1344,   -1.3089,   -1.2024,   -1.0200,   -0.6515,   -0.1761,    0.2085,  999.0000,  999.0000,    0.9984,    1.4049,    1.8097,    1.9348,    1.9658,    2.3995,    2.9380,    2.9397,    2.8280,    2.7096,    2.5901,  999.0000,  999.0000,  999.0000,    3.6390,    3.4474,    3.2346,    3.5369,    3.8649,    5.2721,    6.6693,    7.8684,    9.0044,    9.4093,    9.7007,    9.0862,    8.5068,    8.1379,    7.8125,    7.6928,
  8-AUG-2000 02:35:19.00,  999.0000,  999.0000,  999.0000,   -1.0399,   -1.0004,   -1.0745,   -1.5120,   -1.9733,  999.0000,  999.0000,   -3.5510,   -3.8767,   -3.8021,   -3.4489,  999.0000,  999.0000,  999.0000,  999.0000,    0.7375,    1.0990,  999.0000,  999.0000,  999.0000,  999.0000,  999.0000,  999.0000,  999.0000,   -1.4915,   -1.0045,   -0.5123,   -0.0994,    0.2679,    0.8176,    1.4586,    1.6540,    3.0137,  999.0000,    1.3019,    1.3711,    1.4761,    2.0854,    2.8619,    2.9792,    2.9675,    2.7949,    2.5955,    3.0399,    3.5647,    3.5342,    3.4557,    3.2285,    2.9938,    3.1945,    3.4228,    4.9187,    6.4092,    7.7926,    9.1056,    9.6030,    9.9606,    9.2022,    8.4772,    7.8723,    7.4118,    7.3425,
  8-AUG-2000 02:40:23.00,  999.0000,    1.3875,  999.0000,  999.0000,  999.0000,  999.0000,   -1.2604,   -1.7825,  999.0000,  999.0000,   -3.2878,   -3.5689,  999.0000,  999.0000,  999.0000,  999.0000,  999.0000,  999.0000,  999.0000,  999.0000,  999.0000,  999.0000,  999.0000,  999.0000,  999.0000,   -1.0572,   -1.1162,   -1.1193,   -1.1222,   -1.0979,   -0.8026,   -0.3514,    0.2202,    0.8521,    1.4171,    2.0322,    1.7649,    1.1485,    1.3431,  999.0000,  999.0000,    2.5730,    2.4734,    2.2684,    2.3270,    2.4296,    3.3435,    4.3588,    4.4108,    4.3798,    4.0488,    3.8217,    3.9605,    4.1568,    5.5256,    6.9166,    8.1179,    9.2192,    9.5070,    9.7182,    9.3170,    8.9184,  999.0000,  999.0000,  999.0000,
  8-AUG-2000 02:45:27.00,  999.0000,    1.2971,  999.0000,  999.0000,  999.0000,  999.0000,  999.0000,  999.0000,  999.0000,  999.0000,   -4.2696,   -4.4727,  999.0000,  999.0000,  999.0000,  999.0000,  999.0000,  999.0000,   -0.0821,    0.0882,  999.0000,  999.0000,   -1.0068,   -1.0910,  999.0000,  999.0000,  999.0000,   -1.1071,   -1.0006,   -0.8941,   -0.4004,    0.3159,    0.9800,    1.6180,    1.6825,  999.0000,  999.0000,    0.9172,    1.1042,    1.4458,    1.7709,    2.0917,    2.4555,    2.8284,    2.7521,    2.6009,    3.5464,    4.6289,    4.8409,    4.9778,  999.0000,  999.0000,  999.0000,    4.3405,  999.0000,  999.0000,  999.0000,    9.0152,    9.4531,    9.7792,    9.2122,    8.6594,    8.1913,    7.8139,    7.8645,
  8-AUG-2000 02:50:32.00,  999.0000,  999.0000,  999.0000,  999.0000,   -1.6636,   -1.6683,  999.0000,  999.0000,  999.0000,  999.0000,  999.0000,  999.0000,  999.0000,  999.0000,  999.0000,  999.0000,  999.0000,  999.0000,  999.0000,  999.0000,  999.0000,  999.0000,  999.0000,  999.0000,  999.0000,  999.0000,   -1.7660,   -1.9246,   -1.6368,   -1.3382,   -0.8416,   -0.2311,    0.5237,    1.3507,    1.7034,    1.8512,    1.4831,    0.7370,    0.7642,    0.9308,    1.7044,    2.6586,    2.4676,    2.0344,    2.1345,    2.3235,    3.0143,    3.7678,    4.1183,    4.4340,    4.5180,    4.5903,    4.4294,    4.2864,    5.4814,    6.6770,    7.8831,    9.0594,    9.8905,   10.4858,    9.1974,    8.0156,    7.4726,    7.0996,    7.5292,
  8-AUG-2000 02:55:36.00,  999.0000,  999.0000,  999.0000,  999.0000,   -0.8680,   -1.1850,   -1.4936,   -1.7644,   -1.9326,   -1.9658,  999.0000,  999.0000,  999.0000,  999.0000,  999.0000,  999.0000,   -0.0099,    0.0114,  999.0000,  999.0000,   -0.9563,   -1.1390,  999.0000,  999.0000,  999.0000,   -1.5726,   -1.5392,   -1.6402,   -1.4134,   -1.1013,   -0.7448,   -0.3426,    0.5727,    1.7365,    1.9884,    1.8463,    1.5446,    0.6287,  999.0000,    0.8172,    1.4894,    2.3778,    2.3070,    2.0334,    2.1476,    2.3265,    3.3762,    4.5348,    4.4475,    4.2528,    4.2978,    4.3548,    4.4919,    4.6377,    5.2356,    5.8743,    7.3257,    8.6982,    9.1589,    9.4296,    8.1835,    7.1070,    7.0472,    7.0761,    7.5242,
  8-AUG-2000 03:00:40.00,  999.0000,  999.0000,  999.0000,   -0.6782,  999.0000,  999.0000,  999.0000,  999.0000,  999.0000,  999.0000,  999.0000,  999.0000,  999.0000,  999.0000,   -2.4456,   -2.4304,  999.0000,  999.0000,   -1.5834,   -1.4103,  999.0000,  999.0000,  999.0000,  999.0000,  999.0000,  999.0000,  999.0000,   -1.9821,   -1.4966,   -0.9597,  999.0000,    0.1852,    0.9580,    1.8236,    1.5031,    0.6701,    0.1566,   -0.2387,    0.3026,    1.1368,    1.6573,    2.0962,    2.0668,    1.9384,    2.0577,    2.2183,    3.2689,    4.4307,    4.6242,    4.7344,    4.6805,    4.6184,    4.6516,    4.6930,    5.1410,    5.6269,    6.8686,    8.0797,    8.9382,    9.5434,    8.1249,    6.8660,    6.5627,    6.4804,    7.4413,
  8-AUG-2000 03:05:44.00,  999.0000,  999.0000,  999.0000,  999.0000,   -1.0015,   -1.3122,   -1.5989,   -1.8010,  999.0000,  999.0000,  999.0000,  999.0000,  999.0000,  999.0000,  999.0000,  999.0000,  999.0000,  999.0000,   -1.5060,   -1.4043,  999.0000,  999.0000,   -0.8359,   -0.6456,  999.0000,   -0.7314,   -0.9323,   -1.1333,   -0.9668,   -0.5586,    0.0246,    0.7683,    1.3881,    1.9346,    1.4767,    0.7697,    0.2970,   -0.0911,    0.3220,    0.9855,    1.5563,    2.1029,    2.4825,    2.8267,    2.9876,    3.1180,    3.8576,    4.6732,    4.9115,    5.0999,    5.1315,    5.1553,    5.0036,    4.8571,    5.2061,    5.5811,    6.4756,    7.3838,    8.5941,    9.5681,    8.4303,    7.5275,    7.0783,    6.8691,    7.7936,
  8-AUG-2000 03:10:48.00,  999.0000,  999.0000,  999.0000,  999.0000,   -0.8770,   -1.3665,  999.0000,  999.0000,   -2.3672,   -2.6120,  999.0000,  999.0000,  999.0000,  999.0000,   -2.8095,   -2.6626,  999.0000,  999.0000,   -1.3723,   -1.1305,  999.0000,  999.0000,   -1.0668,   -1.1326,   -1.2775,   -1.7639,   -1.5641,   -1.4030,   -1.0459,   -0.5596,   -0.1191,  999.0000,    1.6160,    1.8908,  999.0000,    1.3221,    1.0833,    0.7055,    0.7829,    1.0027,    1.4589,    1.9765,    2.9926,    4.1141,    4.2225,    4.1620,    4.3358,    4.4777,    4.4305,    4.4268,    4.3810,    4.3337,    4.2758,    4.2239,    4.5607,    4.9428,    6.2286,    7.4431,  999.0000,  999.0000,  999.0000,    8.1133,    7.8159,    7.6582,    8.1601,
  8-AUG-2000 03:15:53.00,  999.0000,  999.0000,  999.0000,  999.0000,  999.0000,  999.0000,   -1.4185,   -1.6570,  999.0000,  999.0000,  999.0000,  999.0000,   -2.6957,   -2.7843,  999.0000,  999.0000,  999.0000,  999.0000,  999.0000,  999.0000,   -1.9548,   -1.8788,  999.0000,  999.0000,   -1.7088,   -1.4187,   -1.4908,   -1.7678,   -1.5543,   -1.0179,   -0.3212,    0.4677,    0.9364,    1.5765,    1.0958,    0.1028,   -0.0465,    0.0180,    0.2753,    0.5930,    0.9307,    1.2737,    2.1836,    3.2135,    3.5097,    3.6837,  999.0000,  999.0000,  999.0000,    4.1306,    4.0020,    3.8623,    3.8416,    3.8280,    4.1279,    4.4772,    5.8113,    7.1420,    8.4327,    9.4585,    8.3683,    7.4440,    7.5139,    7.6627,    8.1841,
  8-AUG-2000 03:20:57.00,    0.5301,   -0.0374,   -0.1691,   -0.3720,   -0.8489,   -1.3105,   -1.7230,   -2.0775,  999.0000,  999.0000,   -2.6700,   -2.7743,   -2.6924,   -2.5472,  999.0000,  999.0000,  999.0000,  999.0000,   -1.2721,   -1.1730,  999.0000,  999.0000,  999.0000,  999.0000,  999.0000,   -1.3325,   -1.4746,   -1.5538,   -1.0352,   -0.1338,    0.3502,    0.4888,    0.4401,  999.0000,  999.0000,   -0.0243,   -0.0206,    0.0096,    0.2761,    0.7359,    1.1138,    1.5041,    2.2879,    3.1549,    3.5456,    3.8569,    3.9228,    3.9580,    3.7673,    3.5572,    3.5140,    3.4792,    3.6094,    3.7413,    3.8149,    3.9512,    5.3400,    6.7079,    7.8349,    8.7696,    8.1691,    7.6629,    7.7220,    7.8810,    8.5112,
  8-AUG-2000 03:26:01.00,    0.6089,   -0.1365,   -0.1599,   -0.2582,  999.0000,  999.0000,  999.0000,  999.0000,   -2.1893,   -2.5773,   -2.9694,   -3.3136,   -3.5623,   -3.8853,   -4.3373,   -4.3361,  999.0000,  999.0000,   -2.2667,   -1.6777,   -1.2066,   -0.9329,   -0.8627,   -0.8791,   -0.9742,   -1.1392,   -1.3601,   -0.9977,   -0.4659,    0.1021,    0.7425,  999.0000,  999.0000,    2.7888,    2.2002,    0.9098,    0.7800,    1.3647,  999.0000,    1.6646,    2.0589,    2.4924,    3.1874,    3.9378,    4.1375,    4.2454,    4.4940,    4.7602,    4.6447,    4.4963,    4.7117,    4.9452,    5.0209,    5.0897,    4.8837,    4.7467,    5.9853,    7.2231,    8.4521,    9.4917,    9.0188,    8.6024,    8.5246,    8.5443,    9.0241,
  8-AUG-2000 03:31:05.00,    0.8225,    0.6042,    0.1566,   -0.2798,  999.0000,  999.0000,   -1.4581,   -1.8646,   -2.3078,   -2.6959,   -2.9563,   -3.0733,   -2.9036,   -2.9760,   -3.4690,   -3.6495,  999.0000,  999.0000,  999.0000,  999.0000,  999.0000,  999.0000,  999.0000,  999.0000,   -1.0031,   -1.5736,   -1.3271,   -1.1853,   -0.5831,    0.2077,    0.7196,    1.8738,    2.3990,    2.1067,    2.1190,  999.0000,  999.0000,  999.0000,    1.8034,    1.4894,    1.5338,    1.6076,    2.3658,    3.2689,    3.5839,    3.8009,    3.9857,    4.1665,    3.9795,    3.7607,    4.0218,    4.3069,    4.0550,    3.8027,    4.1628,    4.4651,    5.8626,    7.2130,    8.0174,    8.7123,    8.5314,    8.3809,    8.4119,    8.5172,    8.9729,
  8-AUG-2000 03:36:09.00,  999.0000,  999.0000,  999.0000,   -0.1628,  999.0000,  999.0000,  999.0000,  999.0000,  999.0000,  999.0000,   -2.6564,   -2.8694,   -2.7962,   -2.7594,   -2.7858,   -2.7656,  999.0000,  999.0000,  999.0000,  999.0000,  999.0000,  999.0000,  999.0000,  999.0000,  999.0000,  999.0000,   -1.7679,   -1.6934,   -1.0131,   -0.3328,    0.0989,  999.0000,  999.0000,  999.0000,  999.0000,  999.0000,  999.0000,  999.0000,    0.9959,    0.8883,    0.9435,    1.0000,    1.6539,    2.4342,    2.9901,    3.5085,    3.7242,    3.9020,    3.5907,    3.2372,    3.2578,    3.2970,    3.1902,    3.0887,  999.0000,  999.0000,  999.0000,  999.0000,  999.0000,  999.0000,  999.0000,  999.0000,  999.0000,  999.0000,  999.0000,
  8-AUG-2000 03:41:13.00,  999.0000,  999.0000,  999.0000,   -0.7994,   -0.9896,   -1.2249,  999.0000,  999.0000,   -2.3638,   -2.6454,  999.0000,  999.0000,   -2.8100,   -2.8459,   -2.8488,   -2.7464,  999.0000,  999.0000,  999.0000,  999.0000,   -1.4347,   -1.3531,  999.0000,  999.0000,  999.0000,  999.0000,   -1.8773,   -1.6315,   -1.0357,   -0.4125,    0.5588,    1.8717,    2.3674,    2.5363,    2.1106,    1.4234,    1.4004,    1.5997,    1.5503,    1.4233,    1.2899,    1.1548,    1.3910,    1.6870,    2.3492,    3.0473,    3.6607,    4.2635,    3.8983,    3.4497,    3.1082,    2.7814,    3.1651,    3.5705,    4.0150,    4.5055,    5.9134,    7.2815,    8.1894,    8.9823,    8.8564,    8.6692,    8.2464,    7.9621,    8.5040,
  8-AUG-2000 03:46:18.00,  999.0000,  999.0000,  999.0000,   -0.1664,  999.0000,  999.0000,  999.0000,  999.0000,   -2.3145,   -2.5937,  999.0000,  999.0000,   -2.3875,   -2.2164,  999.0000,  999.0000,   -1.1697,   -1.1723,   -1.6434,   -1.8328,  999.0000,  999.0000,   -1.4115,   -1.5095,   -1.8240,   -2.1386,  999.0000,   -2.2918,   -1.3424,  999.0000,  999.0000,    1.5601,    1.8525,  999.0000,  999.0000,  999.0000,  999.0000,  999.0000,  999.0000,  999.0000,  999.0000,  999.0000,  999.0000,    1.5110,  999.0000,  999.0000,  999.0000,  999.0000,  999.0000,  999.0000,  999.0000,    3.8657,  999.0000,  999.0000,  999.0000,  999.0000,  999.0000,  999.0000,  999.0000,  999.0000,  999.0000,    9.0036,    8.2989,    7.7215,  999.0000,
  8-AUG-2000 03:51:22.00,  999.0000,  999.0000,  999.0000,   -0.9274,   -0.9567,   -1.1706,   -1.9753,   -2.5591,   -2.5459,   -2.5751,   -2.7024,   -2.7794,   -2.7560,   -2.7674,   -2.8390,   -2.5123,   -1.5804,   -1.2052,  999.0000,  999.0000,   -2.3046,   -2.3041,  999.0000,  999.0000,   -1.1674,   -1.1138,   -1.3201,   -0.9130,  999.0000,   -0.0525,    0.2374,    1.8276,  999.0000,  999.0000,  999.0000,    1.0997,    1.2081,    1.3111,    1.4064,    1.4992,    1.3694,    1.1817,    1.2703,    1.4174,    1.7622,    2.1400,    2.6333,    3.1411,    3.1039,    3.0197,    3.7588,    4.5390,    4.5098,    4.4744,    4.8509,    5.2691,    6.5199,    7.7496,    8.7338,    9.5962,    9.4846,    9.3146,    8.7939,    8.4185,    8.7295,
  8-AUG-2000 03:56:26.00,  999.0000,  999.0000,  999.0000,  999.0000,   -0.7814,   -1.0635,   -1.4906,   -1.8679,  999.0000,  999.0000,   -2.5942,   -2.7575,   -2.7634,   -2.8040,   -2.9049,   -2.5575,   -1.5290,   -1.1598,   -1.6689,   -1.8166,  999.0000,  999.0000,   -0.9893,   -0.9991,   -1.2683,   -2.0179,   -1.5463,   -1.0746,   -0.5592,   -0.0150,    0.7035,    1.5224,    1.6499,    1.6595,  999.0000,    1.0143,    0.9053,    0.8325,    0.9338,    1.0896,    1.0803,    1.0282,    0.9469,    0.8594,    1.2147,    1.6437,    2.3393,    3.0682,    3.1040,    3.0802,    3.3927,    3.7221,    3.6145,    3.5072,    3.8549,    4.2388,    5.2583,    6.3708,    7.4222,    8.4955,    8.5285,    8.5485,    8.4908,    8.4822,    8.7056,
  8-AUG-2000 04:01:31.00,  999.0000,    0.1723,   -0.2753,   -0.7269,   -1.1936,   -1.6557,   -2.1034,   -2.4871,   -2.6977,   -2.8311,   -2.7858,   -2.7252,  999.0000,  999.0000,  999.0000,  999.0000,  999.0000,  999.0000,  999.0000,  999.0000,   -1.9063,   -1.5806,   -1.0130,   -0.7513,  999.0000,   -2.1220,   -1.5290,   -0.9194,   -0.4602,   -0.0626,    0.3810,    0.8512,    1.0207,    1.0398,    1.1482,    1.2951,    1.3092,    1.2743,    1.3080,    1.3632,    1.4376,    1.5169,    1.3012,    1.0230,    1.3179,    1.7084,    2.1092,    2.5112,    2.5910,    2.6570,    3.1290,    3.4643,    3.6867,    3.9120,    4.4995,    5.1154,  999.0000,  999.0000,  999.0000,    9.5723,    9.6056,    9.5853,    9.2440,    9.0438,    9.5104,
  8-AUG-2000 04:06:35.00,  999.0000,  999.0000,  999.0000,  999.0000,   -0.9768,   -1.3778,   -1.7947,   -2.1297,  999.0000,  999.0000,   -2.4698,   -2.5210,   -2.4478,   -2.4495,   -2.5812,   -2.4067,   -1.7674,   -1.5142,  999.0000,  999.0000,   -2.2976,   -2.3261,  999.0000,  999.0000,   -1.3986,  999.0000,  999.0000,   -0.8913,   -0.7462,   -0.6198,   -0.2492,    0.2618,    0.3478,    0.2211,    0.4251,    0.7720,    1.0439,    1.3219,    1.5065,    1.6648,    1.6581,    1.5948,    1.5081,    1.4147,    1.6622,    1.9665,    2.2598,    2.5516,  999.0000,  999.0000,  999.0000,    2.8690,    3.4754,    4.1074,    4.4645,    4.8699,    6.2405,    7.5706,    8.4324,    9.2614,    9.8290,   10.2470,    9.7682,    9.4496,    9.8874,
  8-AUG-2000 04:11:39.00,  999.0000,  999.0000,  999.0000,  999.0000,  999.0000,  999.0000,   -1.6081,   -1.8280,   -1.7197,   -1.8141,   -2.3773,   -2.6595,  999.0000,  999.0000,  999.0000,  999.0000,   -1.2624,   -1.2433,   -1.5710,   -1.6774,  999.0000,  999.0000,   -1.2188,   -1.0923,   -1.5977,   -1.5252,   -1.3556,   -1.1132,   -0.9942,   -0.8835,   -0.5222,   -0.0622,    0.0396,   -0.0771,    0.2015,    0.6509,    0.8657,    1.0963,    1.4386,    1.6591,  999.0000,    1.4013,    1.6548,    1.9305,    2.2778,    2.6371,    2.5595,    2.4273,    2.4637,    2.5146,  999.0000,  999.0000,  999.0000,    4.0529,    4.0932,    4.2221,    5.7641,    7.2097,    7.9936,    8.7334,    9.1212,    9.4180,    9.1699,    8.9784,    9.0536,
  8-AUG-2000 04:16:43.00,  999.0000,  999.0000,  999.0000,  999.0000,  999.0000,  999.0000,  999.0000,  999.0000,   -2.5073,   -2.7950,   -2.8301,   -2.7969,   -2.6272,   -2.5280,   -2.5514,   -2.2583,   -1.4844,   -1.0793,   -1.1657,   -1.4426,   -1.9430,   -1.9535,   -1.4591,   -1.1655,   -1.6969,   -2.0308,   -1.9512,   -1.5939,   -1.2985,  999.0000,  999.0000,   -0.5860,   -0.2404,    0.2226,    0.4408,    0.5897,    0.8001,    1.0333,    0.9647,    0.8019,    1.0489,    1.4024,    1.7002,    1.9862,    2.4502,    2.9439,    2.6265,    2.2076,    2.5022,    2.8581,    3.2080,    3.5575,    3.6537,    3.7548,  999.0000,  999.0000,  999.0000,    6.8097,    7.6649,    8.4910,    9.0840,    9.5538,    9.2852,    9.0852,    9.2090,
  8-AUG-2000 04:21:47.00,  999.0000,  999.0000,  999.0000,   -1.1706,   -1.4574,   -1.7612,   -2.1196,   -2.4504,   -2.7064,   -2.8375,   -2.6795,   -2.5307,  999.0000,  999.0000,  999.0000,  999.0000,  999.0000,  999.0000,  999.0000,  999.0000,   -1.3562,   -1.1229,   -0.7835,   -0.6296,  999.0000,   -1.7980,   -1.3960,   -0.9403,   -0.6861,   -0.5646,   -0.3228,    0.7412,  999.0000,    0.5440,    0.5883,    0.5346,    0.6984,    0.9213,    1.0289,    1.2324,    1.4467,    1.6826,    2.0996,    2.5549,    3.0482,    3.5478,    3.2589,    2.8716,    2.9718,    3.1141,    3.1190,    3.1170,    3.2713,    3.4281,    3.5808,    3.8005,    5.3581,    6.8595,    7.7110,    8.5245,    9.0342,    9.5067,    9.7557,    9.9005,    9.4469,
  8-AUG-2000 04:26:51.00,  999.0000,  999.0000,  999.0000,   -0.9763,   -1.4796,   -1.9389,   -2.2578,   -2.5503,   -2.7712,   -2.8800,   -2.7293,   -2.6294,   -2.6308,   -2.6670,   -2.7636,   -2.7039,  999.0000,  999.0000,   -1.8130,   -1.6528,  999.0000,  999.0000,   -1.6528,   -1.5543,   -2.0672,   -2.0067,   -1.6932,   -1.1001,   -0.8919,   -0.9369,   -0.6560,   -0.1876,    0.0445,    0.1583,    0.0834,   -0.0729,    0.2012,    1.0447,    1.3680,    1.6445,    1.8302,    1.9303,    2.1767,    2.4541,    2.8014,    3.1603,    3.0664,    2.9047,    2.8730,    2.7531,    2.9864,    3.2334,    3.5466,    3.8549,    3.7929,    3.8135,    5.4844,    7.0837,    7.9333,    8.6586,    8.9411,    9.4497,   10.1684,   10.6539,  999.0000,
  8-AUG-2000 04:31:55.00,  999.0000,  999.0000,  999.0000,   -1.0695,   -1.2567,   -1.4652,  999.0000,  999.0000,   -2.2947,   -2.5068,   -2.5697,   -2.6165,   -2.6311,   -2.6484,   -2.6704,   -2.5645,  999.0000,  999.0000,   -1.6648,   -1.3804,   -1.1142,   -0.9646,  999.0000,  999.0000,  999.0000,   -1.1504,   -1.0161,   -0.8762,   -0.7553,   -0.6231,   -0.1272,    0.6132,    0.7893,    0.5872,    0.4232,    0.2494,    0.1734,    0.1336,    0.4980,    0.9887,    1.4279,    1.8536,    1.9323,    1.9431,    2.4917,    3.1281,  999.0000,  999.0000,  999.0000,    2.1671,    2.5542,    2.9750,    3.4322,    3.8863,    4.1177,    4.3830,    5.3245,    6.2740,  999.0000,  999.0000,  999.0000,   10.0448,    9.7923,    9.5523,    9.5001,
  8-AUG-2000 04:36:59.00,  999.0000,  999.0000,  999.0000,   -0.9509,   -0.9685,   -0.9822,   -0.9837,   -1.1917,   -1.9583,   -2.4812,   -2.4402,   -2.4080,   -2.3934,   -2.2497,  999.0000,  999.0000,   -1.1460,   -1.1384,   -1.6109,   -1.8099,   -1.6885,   -1.6996,   -1.8473,   -1.9322,   -1.9600,   -1.6979,  999.0000,  999.0000,   -0.2167,    0.1379,    0.4071,    0.5814,  999.0000,    0.0070,   -0.0755,   -0.2249,   -0.2340,   -0.1412,    0.3307,    0.9426,    1.3055,    1.6036,  999.0000,  999.0000,  999.0000,    3.1547,    3.1901,    2.9914,    2.8735,    2.4728,    2.3826,    2.3041,    2.9782,    3.6774,    4.1105,    4.5625,    5.3925,    6.2618,    7.5866,    8.7842,  999.0000,  999.0000,  999.0000,    9.4649,  999.0000,
  8-AUG-2000 04:42:04.00,  999.0000,  999.0000,  999.0000,   -0.8409,   -0.9111,   -1.0144,   -1.2236,   -1.3685,  999.0000,  999.0000,  999.0000,  999.0000,  999.0000,  999.0000,  999.0000,  999.0000,   -1.1078,   -1.1117,  999.0000,  999.0000,  999.0000,  999.0000,  999.0000,  999.0000,  999.0000,  999.0000,   -1.5410,   -1.2495,   -0.7199,   -0.8152,   -0.7209,    0.0383,   -0.1329,   -0.1990,   -0.1364,  999.0000,    0.1577,   -0.2013,    0.0670,    0.4061,    0.7997,    1.2074,    1.3401,    1.4145,  999.0000,  999.0000,  999.0000,    1.9637,  999.0000,  999.0000,  999.0000,  999.0000,  999.0000,    4.0180,    4.4499,    4.8677,    5.6910,    6.5155,    7.7143,    8.8016,  999.0000,  999.0000,  999.0000,    9.5706,    9.3767,
  8-AUG-2000 04:47:09.00,    0.3298,   -0.2516,   -0.6700,   -1.0473,  999.0000,  999.0000,  999.0000,  999.0000,   -2.1445,   -2.2920,   -2.2730,   -2.2896,   -2.3774,   -2.3201,  999.0000,  999.0000,   -1.3918,   -1.1630,   -1.0416,   -1.1331,   -1.4740,   -1.6108,  999.0000,  999.0000,   -1.8583,  999.0000,  999.0000,  999.0000,  999.0000,   -1.6468,   -1.5416,  999.0000,  999.0000,  999.0000,   -0.6545,   -0.7410,   -0.7181,   -0.7139,   -0.3110,    0.2166,    0.4533,    0.6669,    1.2719,    1.8973,    2.1129,    2.2658,  999.0000,  999.0000,  999.0000,    1.7202,    2.3632,    3.0482,  999.0000,  999.0000,  999.0000,    4.6141,  999.0000,  999.0000,  999.0000,  999.0000,  999.0000,    9.8237,  999.0000,  999.0000,  999.0000,
  8-AUG-2000 04:52:13.00,  999.0000,  999.0000,  999.0000,   -0.7178,  999.0000,  999.0000,  999.0000,  999.0000,   -0.9470,   -0.9887,   -1.0209,   -1.0845,  999.0000,  999.0000,  999.0000,  999.0000,   -1.7160,   -1.7147,   -1.5435,   -1.4263,  999.0000,  999.0000,  999.0000,  999.0000,   -1.1556,   -1.2454,   -1.4502,   -1.4359,   -1.2676,   -1.3682,   -1.1985,   -0.9946,   -0.3747,    0.4866,    0.5824,    0.3474,    0.2309,    0.0958,    0.2795,    0.5358,    0.6492,    1.0303,    1.4633,    1.9042,    1.9186,    1.8578,    2.2526,    2.6945,    2.5726,    2.4021,    2.7376,    3.0983,    3.7956,    4.4291,    4.5171,    4.6329,    5.4216,    6.2296,    7.3233,    8.4265,    8.7699,    9.1551,    9.7911,   10.2831,   10.0946,
  8-AUG-2000 04:57:17.00,  999.0000,  999.0000,  999.0000,   -1.0193,  999.0000,  999.0000,   -1.6886,   -1.8123,   -1.6675,   -1.6096,   -1.7530,   -1.8510,   -1.8583,   -1.8362,  999.0000,  999.0000,  999.0000,  999.0000,  999.0000,  999.0000,   -1.3242,   -1.2107,   -1.0557,   -1.0401,   -1.1513,   -1.2284,   -1.2781,   -1.3768,   -1.4283,   -1.1032,   -0.9364,   -1.3794,   -0.7844,    0.0719,    0.1416,   -0.1284,   -0.1043,  999.0000,  999.0000,    0.4092,    0.5486,    0.6728,  999.0000,  999.0000,    2.0127,    1.4122,    1.7625,    2.1333,    2.2614,    2.3687,    2.3177,    2.2588,  999.0000,  999.0000,  999.0000,    4.3807,  999.0000,  999.0000,  999.0000,    8.6470,    9.0698,    9.4856,    9.8598,   10.1486,   10.0334,
  8-AUG-2000 05:02:21.00,  999.0000,  999.0000,  999.0000,   -1.1732,   -1.4307,   -1.6460,   -1.7265,   -1.7513,   -1.6254,   -1.6288,  999.0000,  999.0000,  999.0000,  999.0000,   -3.1405,   -3.2601,  999.0000,  999.0000,  999.0000,  999.0000,   -2.4701,   -2.3594,  999.0000,  999.0000,  999.0000,  999.0000,   -2.0497,   -1.9948,   -2.2167,   -2.5635,   -2.3110,   -1.8204,   -1.1659,   -0.4292,   -0.4492,   -0.7961,   -0.7661,   -0.5893,   -0.1208,    0.3431,    0.9044,    1.4789,    1.5142,    1.4353,    1.3219,    1.2027,    1.4611,    1.7666,    1.9596,    2.1429,    2.2501,    2.3534,    3.0577,    3.7654,    4.0904,    4.4404,    5.2909,    6.1567,    7.1997,    8.2526,    9.3845,   10.3463,   10.2886,   10.2110,   10.0401,
  8-AUG-2000 05:07:26.00,  999.0000,  999.0000,  999.0000,   -0.7878,   -0.9633,   -1.1479,   -1.3615,   -1.4744,   -1.3149,   -1.2677,  999.0000,  999.0000,  999.0000,  999.0000,   -2.3308,   -2.1744,   -1.4576,   -1.1861,   -1.5079,   -1.8082,   -2.0833,   -2.2603,  999.0000,  999.0000,   -2.4886,   -2.4471,  999.0000,  999.0000,   -2.0412,   -2.5394,   -2.1154,   -1.6837,   -1.1534,   -0.5738,   -0.4821,   -0.6012,   -0.5330,  999.0000,  999.0000,    0.1248,    0.4376,    0.7597,    0.9204,    1.0469,    1.0274,    0.9835,    1.3713,    1.8130,    2.1566,    2.4917,    3.1811,    3.8882,    4.4092,    4.9241,    5.2517,    5.5769,    5.8512,    6.2213,    7.6992,    9.0726,    9.6106,   10.0611,    9.9871,    9.8723,    9.5649,
  8-AUG-2000 05:12:30.00,  999.0000,  999.0000,  999.0000,  999.0000,   -0.9287,   -1.0288,   -1.2863,   -1.4280,   -1.2569,   -1.3563,   -2.0819,   -2.5509,   -2.5070,   -2.4930,   -2.5311,   -2.2334,   -1.4259,   -0.9646,   -0.9646,   -1.2482,   -1.8641,   -2.2287,   -2.3340,   -2.3236,   -2.2080,   -1.9892,   -1.6878,   -2.1845,   -1.8736,   -1.5628,   -1.1155,   -0.5897,   -0.1922,    0.1411,    0.1771,    0.0847,   -0.1198,   -0.3657,    0.0818,    0.7460,    1.1708,    1.5334,    1.6607,    1.7382,    1.6379,    1.5081,    1.7899,    2.1232,    2.2044,    2.2639,    2.9868,    3.7429,    4.1534,    4.5579,    4.9405,    5.3400,    6.0653,    6.8249,    8.0148,    9.1913,    9.8746,   10.3920,    9.9149,    9.5136,    9.3817,
  8-AUG-2000 05:17:34.00,  999.0000,  999.0000,  999.0000,   -1.1192,   -1.0315,   -1.0330,  999.0000,  999.0000,  999.0000,  999.0000,   -2.4691,   -2.6318,   -2.5455,   -2.3290,  999.0000,  999.0000,   -1.0014,   -0.8816,   -1.1918,   -1.6400,   -2.2501,   -2.5821,   -2.6275,   -2.6365,  999.0000,  999.0000,  999.0000,   -2.5864,   -2.5118,   -2.4141,   -1.8962,   -1.1365,   -0.8686,   -0.8467,   -0.8770,   -0.9300,   -1.1735,   -1.4874,   -0.9603,   -0.1702,    0.6493,    1.4765,    1.7426,    1.8899,    1.7981,    1.6664,    2.0613,    2.5219,    2.3207,    2.0624,    2.6029,    3.1833,    3.8308,    4.4800,    5.1656,    5.8593,  999.0000,  999.0000,  999.0000,    9.0939,    9.8803,   10.5089,   10.1914,    9.9204,  999.0000,
  8-AUG-2000 05:22:38.00,  999.0000,  999.0000,  999.0000,  999.0000,   -0.7356,   -1.0117,  999.0000,  999.0000,   -1.2421,   -1.3186,  999.0000,  999.0000,  999.0000,  999.0000,  999.0000,  999.0000,  999.0000,  999.0000,  999.0000,  999.0000,   -2.1527,   -2.1632,  999.0000,  999.0000,   -2.1688,   -1.8117,   -1.8516,   -2.1895,   -2.3377,   -2.3610,   -1.9570,   -1.3072,   -1.1089,   -1.1363,   -1.2996,   -1.6831,   -1.7181,   -1.6086,   -0.8999,    0.0353,    0.7223,    1.6474,    1.7489,    1.8317,    1.7762,    1.9050,    2.2125,    2.5722,    2.7963,    3.0151,    3.2885,    3.5647,    4.0059,    4.4583,    5.4385,    6.4066,    7.1344,    7.8367,    8.2434,    8.6958,    9.5145,   10.1738,    9.8782,    9.6002,    9.4055,
  8-AUG-2000 05:27:42.00,  999.0000,  999.0000,  999.0000,   -0.8486,   -0.9144,   -1.1120,   -1.7308,   -2.0894,   -1.7441,   -1.5251,   -1.5983,   -1.6403,  999.0000,  999.0000,  999.0000,  999.0000,  999.0000,  999.0000,  999.0000,  999.0000,  999.0000,  999.0000,  999.0000,  999.0000,   -1.8202,   -1.5810,   -1.5084,   -1.5609,   -1.5167,   -1.4086,   -1.1111,   -0.7045,   -0.5105,   -0.4228,   -0.4894,  999.0000,   -0.7801,   -0.8164,    0.0210,    1.0403,    2.4888,  999.0000,  999.0000,    2.7201,  999.0000,  999.0000,  999.0000,    2.8990,    3.1710,    3.4629,    3.8003,    4.1400,    4.5168,    4.9039,    5.8963,    6.8512,    7.0601,    7.3211,    8.1863,    9.0264,    9.6660,   10.1211,    9.4707,    8.9609,    9.1150,
  8-AUG-2000 05:32:46.00,  999.0000,  999.0000,  999.0000,  999.0000,  999.0000,  999.0000,  999.0000,  999.0000,   -1.4860,   -1.6758,   -1.6758,   -1.7470,   -1.9606,   -2.0132,  999.0000,  999.0000,  999.0000,  999.0000,   -0.8770,   -0.9447,  999.0000,  999.0000,   -2.1846,   -2.2967,   -2.2682,   -2.1346,   -2.2475,   -2.5452,   -2.4758,   -2.1645,   -1.8225,   -1.4628,   -1.2486,   -1.1071,   -1.1595,   -1.2957,   -1.0830,  999.0000,  999.0000,   -0.0582,    0.4769,    1.0624,    1.5397,    1.9941,    2.1953,    2.3543,    2.5997,    2.8559,    3.0898,    3.3218,    3.6649,    4.0137,    4.4895,    4.9729,    5.7930,    6.6016,    7.1813,    7.7600,    8.4430,    9.0835,    9.3898,    9.5287,    8.6650,    7.9709,    8.0783,
  8-AUG-2000 05:37:51.00,  999.0000,  999.0000,  999.0000,   -0.9351,   -1.0434,   -1.1549,  999.0000,  999.0000,   -1.5214,   -1.5683,   -1.4410,   -1.2988,  999.0000,  999.0000,  999.0000,  999.0000,   -0.4381,   -0.4439,   -0.6867,   -1.0232,  999.0000,  999.0000,   -2.3618,   -2.5489,   -2.1207,   -1.9939,   -2.0410,   -2.2186,   -2.0990,   -1.7837,   -1.3386,   -0.8188,   -0.6048,   -0.5437,   -0.8471,   -1.3079,   -1.2221,   -1.8178,  999.0000,   -0.1290,    0.3295,    0.8034,    1.1297,    1.4255,    1.6332,    1.8262,    2.1470,    2.4837,    2.8022,    3.1192,    3.2229,    3.3160,    3.7144,    4.1237,    4.8973,    5.6864,    6.7846,    7.8038,  999.0000,  999.0000,  999.0000,  999.0000,  999.0000,  999.0000,  999.0000,
  8-AUG-2000 05:42:55.00,  999.0000,  999.0000,  999.0000,   -0.9739,   -1.4377,   -1.7926,  999.0000,  999.0000,  999.0000,  999.0000,  999.0000,  999.0000,   -1.8413,   -1.7289,  999.0000,  999.0000,   -0.7700,   -0.6336,  999.0000,  999.0000,  999.0000,  999.0000,  999.0000,  999.0000,   -2.1886,   -2.0067,   -1.8849,   -1.8081,   -1.5443,   -1.1573,   -0.8524,   -0.5948,   -0.3765,   -0.1780,   -0.4712,   -0.9767,   -1.2438,   -1.4229,   -0.9837,  999.0000,  999.0000,    0.9958,    1.3574,    1.6521,    1.7076,    1.7233,    1.9455,    2.1935,    2.4581,    2.7241,    2.8853,    3.0412,    3.5210,    4.0224,    5.5380,    7.0032,    7.3329,    7.8590,    8.5545,    9.1586,    8.3253,    7.4364,    6.2144,    5.2489,    5.4939,
  8-AUG-2000 05:48:00.00,  999.0000,  999.0000,  999.0000,   -0.7168,  999.0000,  999.0000,   -1.4673,   -1.6404,   -1.6053,   -1.5883,   -1.6132,   -1.7844,   -2.2481,   -2.3982,  999.0000,  999.0000,   -1.2133,   -1.0478,   -1.1883,   -1.3040,  999.0000,  999.0000,  999.0000,  999.0000,   -2.3319,   -2.0495,   -1.8647,   -1.7533,   -1.5096,   -1.1789,   -1.0466,   -1.0284,   -1.1253,   -1.1610,   -1.1711,   -1.1344,   -1.2853,   -1.7073,   -1.3234,   -0.7562,    0.1425,    1.1275,    1.5237,    1.7955,    1.7950,    1.7493,    2.0668,    2.4298,    2.9582,    3.5009,    3.2514,    2.9623,    3.8864,    4.8341,    6.0443,    7.2239,  999.0000,  999.0000,  999.0000,    8.9938,    7.7827,    6.5987,    5.5766,    4.9521,    6.2049,
  8-AUG-2000 05:53:04.00,  999.0000,  999.0000,  999.0000,  999.0000,   -1.2814,   -1.6220,  999.0000,  999.0000,   -1.7053,   -1.6658,  999.0000,  999.0000,   -1.0799,   -1.0409,   -1.2735,   -1.2628,   -0.8824,   -0.6771,   -0.7049,   -0.8192,  999.0000,  999.0000,   -1.4666,   -1.4489,   -1.7582,   -1.4214,   -1.3193,   -1.3933,   -1.3733,   -1.2915,   -1.2797,   -1.3081,   -1.3998,   -0.8368,  999.0000,  999.0000,  999.0000,   -2.1771,   -1.9015,   -1.6435,   -0.4241,    1.0587,    1.4634,    1.6660,    1.4591,    1.1840,    1.4752,    1.8372,    2.1472,    2.4527,    2.4528,    2.4378,    3.2650,    4.1083,    5.1050,    6.1038,    7.1456,    8.1151,    8.2470,    8.2726,    7.4488,    6.6373,    5.8995,    5.5808,    7.2414,
  8-AUG-2000 05:58:08.00,  999.0000,  999.0000,  999.0000,  999.0000,   -0.9190,   -0.9762,   -0.9645,   -1.0855,   -1.5653,   -1.8779,  999.0000,  999.0000,  999.0000,  999.0000,   -1.5048,   -1.3088,   -0.9285,   -0.7664,   -0.8951,   -0.9606,  999.0000,  999.0000,  999.0000,  999.0000,   -2.4793,   -1.8358,   -1.5682,   -1.5827,   -1.4190,   -1.1381,   -1.0465,   -1.0639,   -0.9089,   -0.6676,   -0.4518,   -0.2469,   -0.4039,   -0.9170,   -0.4586,  999.0000,  999.0000,    1.8969,    2.1054,    2.1958,    2.0994,    2.0016,    2.5710,    3.1809,    3.1155,    2.9955,    3.1248,    3.2666,    4.0532,    4.8576,    6.1197,    7.3473,    7.8870,    8.3822,    8.3602,    8.2401,    7.3356,    6.4342,    5.3185,    4.6944,    6.9973,
  8-AUG-2000 06:03:13.00,  999.0000,  999.0000,  999.0000,  999.0000,   -0.8478,   -0.9045,   -0.9542,   -0.9901,  999.0000,  999.0000,   -0.9857,   -0.9879,  999.0000,  999.0000,   -1.0164,   -1.0187,  999.0000,  999.0000,   -0.9924,   -1.2962,   -1.9662,   -2.1912,  999.0000,  999.0000,   -2.7045,   -2.1452,   -1.9038,   -1.8658,   -1.4772,   -0.8721,   -0.8286,   -1.1082,   -0.9782,   -0.6433,   -0.6017,   -0.6869,   -0.5857,  999.0000,  999.0000,    0.3297,    1.1842,    2.1768,    2.2294,    2.1230,    1.5200,  999.0000,  999.0000,    2.2647,    2.4274,    2.5948,    2.8179,    3.0437,    3.7188,    4.4031,    5.2121,    6.0090,    6.5612,    7.0836,    7.2605,    7.3271,    6.4608,    5.8355,  999.0000,  999.0000,  999.0000,
  8-AUG-2000 06:08:18.00,  999.0000,  999.0000,  999.0000,  999.0000,   -1.0195,   -1.1191,   -1.0548,   -0.9914,  999.0000,  999.0000,   -0.8093,   -0.7781,   -0.8059,   -0.8459,   -0.9074,   -0.8713,   -0.6869,   -0.7936,   -1.2881,   -1.5473,  999.0000,  999.0000,  999.0000,  999.0000,  999.0000,  999.0000,   -1.4321,   -1.5973,   -1.2424,   -0.8003,   -1.0069,   -1.4414,   -1.4392,   -1.2186,   -1.3308,   -1.4990,   -1.8229,   -2.2220,   -1.7363,  999.0000,  999.0000,  999.0000,  999.0000,    1.5739,    1.3505,    1.0066,    1.3570,    1.7942,    2.0299,    2.2481,    2.5568,    2.8699,    3.6641,    4.4617,    4.9976,    5.5262,    5.9075,    6.2802,    6.5545,    6.7150,  999.0000,  999.0000,  999.0000,    4.6924,  999.0000,
  8-AUG-2000 06:13:23.00,  999.0000,  999.0000,  999.0000,   -1.1771,   -1.0630,   -0.9725,  999.0000,  999.0000,  999.0000,  999.0000,   -0.8969,   -0.9488,   -1.1346,   -1.2109,   -1.0967,   -1.0306,  999.0000,  999.0000,   -1.0503,   -1.0065,  999.0000,  999.0000,  999.0000,  999.0000,  999.0000,  999.0000,  999.0000,  999.0000,  999.0000,   -0.0970,   -0.8118,   -1.5930,   -1.7238,   -1.5294,   -1.6379,  999.0000,  999.0000,   -2.6399,   -2.0054,   -1.0464,    0.1427,    1.3918,    1.2862,    0.8941,    0.7922,    0.7387,    1.0680,    1.4451,    1.9869,    2.5429,    3.1025,    3.6624,    4.3543,    5.0369,    5.0169,    5.0074,    5.2077,    5.4301,    5.9089,    6.1961,    4.9522,    4.0659,  999.0000,  999.0000,  999.0000,
  8-AUG-2000 06:18:28.00,  999.0000,  999.0000,  999.0000,  999.0000,  999.0000,  999.0000,   -0.9406,   -0.9538,   -0.9669,   -0.9580,   -0.8980,   -0.8951,   -1.0063,   -1.0694,  999.0000,  999.0000,   -1.0080,   -1.1499,  999.0000,  999.0000,   -2.2252,   -2.3906,   -2.3570,   -2.1244,  999.0000,  999.0000,   -0.8845,   -0.8217,   -0.5874,   -0.3531,   -0.8172,   -1.6830,   -1.8666,   -1.7088,   -1.5532,   -1.3985,   -1.7935,   -2.6723,   -2.3505,   -1.6792,   -0.2815,    1.3373,    1.6297,    1.6710,    1.2814,    0.8200,    1.2890,    1.8742,    2.3250,    2.7642,    3.3339,    3.9100,    4.3850,    4.8855,    4.0893,    3.3468,    3.5620,    3.8868,    4.8857,    5.6426,    4.4663,    3.7885,  999.0000,  999.0000,  999.0000,
  8-AUG-2000 06:23:32.00,  999.0000,  999.0000,  999.0000,   -1.1351,   -1.0547,   -1.0126,   -1.0930,   -1.2189,   -1.4676,   -1.5592,   -1.2870,   -1.1681,   -1.3554,   -1.5464,   -1.7439,   -1.7166,   -1.3479,   -1.1279,   -1.1060,   -1.4694,   -2.2843,   -2.6216,   -2.4666,   -2.2612,  999.0000,  999.0000,  999.0000,   -1.5242,   -1.0980,   -0.6718,   -0.8042,   -1.2579,   -1.4160,   -1.4262,   -1.5126,   -1.6320,   -1.3696,  999.0000,  999.0000,  999.0000,  999.0000,    1.5534,    1.6911,    1.7277,    1.3855,    0.9803,    1.4191,    1.9634,    2.6178,    3.2818,    3.7527,    4.2139,  999.0000,  999.0000,  999.0000,  999.0000,  999.0000,  999.0000,  999.0000,  999.0000,  999.0000,    4.9125,    5.6429,    6.4726,    7.9777,
  8-AUG-2000 06:28:36.00,  999.0000,  999.0000,  999.0000,   -0.8083,  999.0000,  999.0000,  999.0000,  999.0000,  999.0000,  999.0000,   -0.8800,   -0.9005,   -0.9415,   -0.9386,  999.0000,  999.0000,   -0.7016,   -0.7569,   -0.9909,   -1.4810,   -2.2710,   -2.5021,  999.0000,  999.0000,  999.0000,  999.0000,   -0.7759,   -1.1259,   -0.7807,   -0.4355,   -0.6684,   -1.2339,   -1.4933,   -1.5995,   -1.5407,   -1.4106,   -1.6807,   -2.0987,   -1.3643,   -0.2696,    0.6502,    1.5245,    1.4814,    1.3729,    1.2032,    0.9635,    1.4519,    2.0280,    2.4340,    2.8253,    3.4115,    4.0074,    4.0144,    4.0115,  999.0000,  999.0000,  999.0000,    3.9756,    4.7394,    5.3666,    4.9025,    4.6508,  999.0000,  999.0000,  999.0000,
  8-AUG-2000 06:33:40.00,  999.0000,  999.0000,  999.0000,   -0.9085,  999.0000,  999.0000,   -0.8471,   -0.8554,   -0.9418,   -0.9994,  999.0000,  999.0000,   -0.9730,   -1.1791,   -1.7584,   -2.1115,  999.0000,  999.0000,   -2.1400,   -2.3823,   -2.8972,   -3.0874,   -2.9426,   -2.6881,   -2.3341,   -2.0374,  999.0000,   -1.2847,   -1.3338,   -1.3802,   -1.4733,   -1.5932,   -1.6783,   -1.7459,   -1.6532,   -1.4913,   -1.4787,   -1.5214,   -0.9975,   -0.2967,    0.6994,    1.7722,  999.0000,  999.0000,  999.0000,    0.5950,    1.0971,    1.7084,    2.2353,    2.7954,    3.2244,    3.8232,    3.5562,    3.4586,  999.0000,  999.0000,    2.6653,    3.4071,    4.1897,    4.9016,    4.9386,    5.0893,  999.0000,  999.0000,  999.0000,
  8-AUG-2000 06:38:44.00,  999.0000,  999.0000,  999.0000,   -1.0219,   -0.9649,   -0.9367,   -1.0011,   -1.0410,  999.0000,  999.0000,   -0.9620,   -1.0027,  999.0000,  999.0000,   -1.5272,   -1.5037,   -1.1789,   -1.0793,   -1.2797,   -1.5327,  999.0000,  999.0000,   -2.4763,   -2.3722,   -1.8880,   -2.0976,   -1.9399,   -1.7448,   -1.5792,   -1.3990,   -1.4194,   -1.5552,   -1.8092,   -2.1222,   -2.0565,   -1.8273,   -1.7373,   -1.6988,   -1.2277,   -0.6214,    0.1504,    0.9652,    1.1412,    1.1820,    0.9945,    0.7690,    1.2432,    1.8048,  999.0000,  999.0000,  999.0000,    4.0954,  999.0000,  999.0000,  999.0000,    1.5280,    2.3539,    3.1767,    4.0490,    4.8807,  999.0000,  999.0000,  999.0000,  999.0000,  999.0000,
  8-AUG-2000 06:43:48.00,  999.0000,  999.0000,  999.0000,   -0.9185,   -0.9463,   -1.0049,  999.0000,  999.0000,   -1.4767,   -1.4956,   -1.1943,   -1.0429,  999.0000,  999.0000,   -1.4884,   -1.4286,   -1.0527,   -0.9401,   -1.1786,   -1.3331,  999.0000,  999.0000,  999.0000,  999.0000,   -1.6135,   -1.5665,  999.0000,   -1.3598,   -1.2077,   -1.0562,   -1.0116,   -1.0285,   -1.0438,   -1.0581,   -0.9969,   -0.9031,   -0.9716,   -1.1036,   -1.0931,   -1.0576,   -0.4954,    0.2021,    0.6635,    1.0751,    0.8706,    0.5635,    1.0254,    1.5835,    2.0781,    2.5862,    2.7048,    2.8457,    2.5749,    2.3044,  999.0000,  999.0000,  999.0000,    3.4796,    4.5145,    5.3799,    4.6536,    4.3056,    6.1202,    7.7073,    9.0892,
  8-AUG-2000 06:48:53.00,  999.0000,  999.0000,  999.0000,   -1.0236,   -1.3791,   -1.5729,   -1.2496,   -1.0578,  999.0000,  999.0000,   -1.5493,   -1.6741,   -1.7210,   -1.7028,  999.0000,  999.0000,   -1.3100,   -1.3852,   -1.7348,   -2.1033,   -2.4939,   -2.6836,   -2.6660,   -2.4522,  999.0000,   -1.8917,   -1.6017,   -1.3116,   -1.0596,   -0.7708,   -0.8623,   -1.1204,   -1.1766,   -1.1317,   -1.0678,   -0.9957,   -0.9941,  999.0000,   -1.6473,   -1.0592,   -0.4316,    0.3644,    0.8471,    1.2635,    1.0268,    0.6812,    1.1733,    1.7700,  999.0000,  999.0000,  999.0000,    3.4158,    2.6304,    1.9485,    1.4925,    1.1204,    2.4201,    3.6905,    4.6200,    5.4733,  999.0000,  999.0000,  999.0000,    7.7810,    9.2428,
  8-AUG-2000 06:53:57.00,  999.0000,  999.0000,  999.0000,   -1.7679,  999.0000,  999.0000,  999.0000,  999.0000,   -1.2096,   -1.0954,   -0.9754,   -0.9033,   -0.9267,   -0.9295,  999.0000,  999.0000,   -0.8308,   -0.8785,   -1.0335,   -1.2829,   -1.6428,   -1.7845,  999.0000,  999.0000,   -1.5343,   -1.4152,  999.0000,  999.0000,  999.0000,   -0.6814,   -0.9149,   -1.1352,   -1.2825,   -1.4111,   -1.3016,   -1.1357,   -1.0547,   -1.0070,   -0.9474,   -0.8841,   -0.3078,    0.4020,    0.7398,    0.9989,    0.8266,    0.5824,    1.1043,    1.7220,    2.1205,    2.5000,  999.0000,  999.0000,  999.0000,    2.5577,    2.0663,    1.6367,    2.4402,    3.2689,    4.3894,    5.3085,    4.3810,    3.8400,  999.0000,  999.0000,  999.0000,
  8-AUG-2000 06:59:01.00,  999.0000,  999.0000,  999.0000,   -0.9538,   -0.9714,   -0.9670,  999.0000,  999.0000,  999.0000,  999.0000,   -0.5939,   -0.5910,   -0.7315,   -0.8190,   -0.8146,   -0.8619,   -0.9877,   -1.0758,  999.0000,  999.0000,  999.0000,  999.0000,  999.0000,  999.0000,   -1.3395,   -1.2554,   -1.0064,   -0.6309,   -0.7621,   -1.2874,   -1.5204,   -1.6755,   -1.6745,   -1.4370,  999.0000,   -1.4485,   -1.2911,   -1.1023,   -0.9911,   -0.9042,   -0.1360,    0.8095,    1.0107,    1.0544,    0.9495,    0.8199,    1.1781,    1.5973,    2.1901,    2.7980,    3.1452,    3.4794,    2.8000,    2.1106,    1.8001,    1.5464,    2.4265,    3.3239,    4.4227,    5.4936,  999.0000,  999.0000,  999.0000,    9.4377,   10.5107,
  8-AUG-2000 07:06:14.00,  999.0000,  999.0000,  999.0000,   -1.1047,   -1.0578,   -1.0117,   -0.9678,   -0.9386,   -0.9488,   -1.0129,   -1.2016,   -1.3562,   -1.4425,   -1.5189,  999.0000,  999.0000,  999.0000,  999.0000,  999.0000,  999.0000,  999.0000,  999.0000,   -2.0508,   -2.0362,   -2.1508,   -1.7683,   -1.7384,  999.0000,  999.0000,   -2.3940,   -2.5115,   -2.5873,   -2.4112,   -2.1091,   -1.7703,   -1.4158,   -1.1102,   -0.8227,   -0.8237,   -0.9149,   -0.1620,    0.8103,    1.2175,    1.5052,    1.5840,    1.6279,    2.0204,    2.4564,    2.7090,    2.9459,    3.1378,    3.3274,    2.9088,    2.4810,    2.0839,    1.7437,    2.5384,    3.3913,    4.9186,    6.2390,    5.8480,    5.6788,    7.4620,    9.2538,   10.9622,
  8-AUG-2000 07:12:56.00,  999.0000,   -1.4032,   -1.2437,   -1.0958,   -0.9919,   -0.9072,  999.0000,  999.0000,   -0.8370,   -0.8498,   -0.9463,   -1.0129,  999.0000,  999.0000,   -1.0326,   -1.0482,   -1.0775,   -1.1450,   -1.2635,   -1.4662,  999.0000,  999.0000,   -2.3703,   -2.2438,   -2.4462,   -1.4699,  999.0000,  999.0000,  999.0000,   -2.3497,   -2.3458,   -2.3436,   -2.4272,   -2.5537,   -2.0744,   -1.3333,   -1.0140,   -0.8504,   -0.4992,   -0.0893,    0.3141,    0.7158,    0.8572,    0.9316,    1.3129,    1.7454,    2.0223,    2.2725,    2.5934,    2.9191,    3.1136,    3.3015,    2.5515,    1.7987,    1.7972,    1.8490,    2.9631,    4.0395,    4.6786,    5.3475,  999.0000,  999.0000,  999.0000,    9.0106,   10.1252,
  8-AUG-2000 07:19:38.00,  999.0000,  999.0000,  999.0000,  999.0000,  999.0000,  999.0000,  999.0000,  999.0000,  999.0000,  999.0000,  999.0000,  999.0000,  999.0000,  999.0000,  999.0000,  999.0000,  999.0000,  999.0000,  999.0000,  999.0000,  999.0000,  999.0000,  999.0000,  999.0000,  999.0000,  999.0000,  999.0000,  999.0000,  999.0000,  999.0000,  999.0000,  999.0000,  999.0000,  999.0000,  999.0000,  999.0000,  999.0000,  999.0000,  999.0000,  999.0000,  999.0000,  999.0000,  999.0000,  999.0000,  999.0000,  999.0000,  999.0000,  999.0000,  999.0000,  999.0000,  999.0000,  999.0000,  999.0000,  999.0000,  999.0000,  999.0000,  999.0000,  999.0000,  999.0000,  999.0000,  999.0000,  999.0000,  999.0000,  999.0000,  999.0000,
  8-AUG-2000 07:26:20.00,  999.0000,  999.0000,  999.0000,  999.0000,  999.0000,  999.0000,  999.0000,  999.0000,  999.0000,  999.0000,  999.0000,  999.0000,  999.0000,  999.0000,  999.0000,  999.0000,  999.0000,  999.0000,  999.0000,  999.0000,  999.0000,  999.0000,  999.0000,  999.0000,  999.0000,  999.0000,  999.0000,  999.0000,  999.0000,  999.0000,  999.0000,  999.0000,  999.0000,  999.0000,  999.0000,  999.0000,  999.0000,  999.0000,  999.0000,  999.0000,  999.0000,  999.0000,  999.0000,  999.0000,  999.0000,  999.0000,  999.0000,  999.0000,  999.0000,  999.0000,  999.0000,  999.0000,  999.0000,  999.0000,  999.0000,  999.0000,  999.0000,  999.0000,  999.0000,  999.0000,  999.0000,  999.0000,  999.0000,  999.0000,  999.0000,
  8-AUG-2000 07:33:02.00,  999.0000,  999.0000,  999.0000,  999.0000,  999.0000,  999.0000,  999.0000,  999.0000,  999.0000,  999.0000,  999.0000,  999.0000,  999.0000,  999.0000,  999.0000,  999.0000,  999.0000,  999.0000,  999.0000,  999.0000,  999.0000,  999.0000,  999.0000,  999.0000,  999.0000,  999.0000,  999.0000,  999.0000,  999.0000,  999.0000,  999.0000,  999.0000,  999.0000,  999.0000,  999.0000,  999.0000,  999.0000,  999.0000,  999.0000,  999.0000,  999.0000,  999.0000,  999.0000,  999.0000,  999.0000,  999.0000,  999.0000,  999.0000,  999.0000,  999.0000,  999.0000,  999.0000,  999.0000,  999.0000,  999.0000,  999.0000,  999.0000,  999.0000,  999.0000,  999.0000,  999.0000,  999.0000,  999.0000,  999.0000,  999.0000,
  8-AUG-2000 07:39:44.00,  999.0000,  999.0000,  999.0000,  999.0000,  999.0000,  999.0000,  999.0000,  999.0000,  999.0000,  999.0000,  999.0000,  999.0000,  999.0000,  999.0000,  999.0000,  999.0000,  999.0000,  999.0000,  999.0000,  999.0000,  999.0000,  999.0000,  999.0000,  999.0000,  999.0000,  999.0000,  999.0000,  999.0000,  999.0000,  999.0000,  999.0000,  999.0000,  999.0000,  999.0000,  999.0000,  999.0000,  999.0000,  999.0000,  999.0000,  999.0000,  999.0000,  999.0000,  999.0000,  999.0000,  999.0000,  999.0000,  999.0000,  999.0000,  999.0000,  999.0000,  999.0000,  999.0000,  999.0000,  999.0000,  999.0000,  999.0000,  999.0000,  999.0000,  999.0000,  999.0000,  999.0000,  999.0000,  999.0000,  999.0000,  999.0000,
  8-AUG-2000 07:46:26.00,  999.0000,  999.0000,  999.0000,  999.0000,  999.0000,  999.0000,  999.0000,  999.0000,  999.0000,  999.0000,  999.0000,  999.0000,  999.0000,  999.0000,  999.0000,  999.0000,  999.0000,  999.0000,  999.0000,  999.0000,  999.0000,  999.0000,  999.0000,  999.0000,  999.0000,  999.0000,  999.0000,  999.0000,  999.0000,  999.0000,  999.0000,  999.0000,  999.0000,  999.0000,  999.0000,  999.0000,  999.0000,  999.0000,  999.0000,  999.0000,  999.0000,  999.0000,  999.0000,  999.0000,  999.0000,  999.0000,  999.0000,  999.0000,  999.0000,  999.0000,  999.0000,  999.0000,  999.0000,  999.0000,  999.0000,  999.0000,  999.0000,  999.0000,  999.0000,  999.0000,  999.0000,  999.0000,  999.0000,  999.0000,  999.0000,
  8-AUG-2000 07:53:08.00,  999.0000,  999.0000,  999.0000,  999.0000,  999.0000,  999.0000,  999.0000,  999.0000,  999.0000,  999.0000,  999.0000,  999.0000,  999.0000,  999.0000,  999.0000,  999.0000,  999.0000,  999.0000,  999.0000,  999.0000,  999.0000,  999.0000,  999.0000,  999.0000,  999.0000,  999.0000,  999.0000,  999.0000,  999.0000,  999.0000,  999.0000,  999.0000,  999.0000,  999.0000,  999.0000,  999.0000,  999.0000,  999.0000,  999.0000,  999.0000,  999.0000,  999.0000,  999.0000,  999.0000,  999.0000,  999.0000,  999.0000,  999.0000,  999.0000,  999.0000,  999.0000,  999.0000,  999.0000,  999.0000,  999.0000,  999.0000,  999.0000,  999.0000,  999.0000,  999.0000,  999.0000,  999.0000,  999.0000,  999.0000,  999.0000,
  8-AUG-2000 07:59:50.00,  999.0000,  999.0000,  999.0000,  999.0000,  999.0000,  999.0000,  999.0000,  999.0000,  999.0000,  999.0000,  999.0000,  999.0000,  999.0000,  999.0000,  999.0000,  999.0000,  999.0000,  999.0000,  999.0000,  999.0000,  999.0000,  999.0000,  999.0000,  999.0000,  999.0000,  999.0000,  999.0000,  999.0000,  999.0000,  999.0000,  999.0000,  999.0000,  999.0000,  999.0000,  999.0000,  999.0000,  999.0000,  999.0000,  999.0000,  999.0000,  999.0000,  999.0000,  999.0000,  999.0000,  999.0000,  999.0000,  999.0000,  999.0000,  999.0000,  999.0000,  999.0000,  999.0000,  999.0000,  999.0000,  999.0000,  999.0000,  999.0000,  999.0000,  999.0000,  999.0000,  999.0000,  999.0000,  999.0000,  999.0000,  999.0000,
  8-AUG-2000 08:06:32.00,  999.0000,  999.0000,  999.0000,  999.0000,  999.0000,  999.0000,  999.0000,  999.0000,  999.0000,  999.0000,  999.0000,  999.0000,  999.0000,  999.0000,  999.0000,  999.0000,  999.0000,  999.0000,  999.0000,  999.0000,  999.0000,  999.0000,  999.0000,  999.0000,  999.0000,  999.0000,  999.0000,  999.0000,  999.0000,  999.0000,  999.0000,  999.0000,  999.0000,  999.0000,  999.0000,  999.0000,  999.0000,  999.0000,  999.0000,  999.0000,  999.0000,  999.0000,  999.0000,  999.0000,  999.0000,  999.0000,  999.0000,  999.0000,  999.0000,  999.0000,  999.0000,  999.0000,  999.0000,  999.0000,  999.0000,  999.0000,  999.0000,  999.0000,  999.0000,  999.0000,  999.0000,  999.0000,  999.0000,  999.0000,  999.0000,
  8-AUG-2000 08:08:57.00,  999.0000,   -1.5603,   -1.2779,   -1.0484,   -1.0221,   -1.0073,  999.0000,  999.0000,   -1.0731,   -1.0972,   -1.1265,   -1.1109,   -1.0055,   -0.9125,   -0.8408,   -0.8336,   -0.9243,   -0.9811,   -0.9928,   -1.2067,   -1.6572,   -2.1265,   -2.6152,   -2.5058,  999.0000,  999.0000,   -0.5484,   -0.4102,   -1.1575,   -1.9049,   -2.0724,   -1.9063,   -2.4588,   -3.3709,   -2.5104,   -0.8841,   -0.4353,   -0.4217,   -0.1851,    0.1213,    0.6205,    1.1700,    2.4011,    2.4041,    2.2841,    1.9099,    1.4988,    1.4743,    1.4680,    1.4633,    1.7450,    2.0410,    1.8829,    1.7326,    2.5124,    3.2758,    3.7111,    4.1399,    4.5229,    4.9666,    5.2970,    5.6244,    5.9337,    6.2510,    6.6057,
  8-AUG-2000 08:15:39.00,   -0.7361,   -0.9794,   -0.8170,   -0.7543,   -1.0747,   -1.3094,  999.0000,  999.0000,  999.0000,  999.0000,  999.0000,  999.0000,  999.0000,  999.0000,   -0.9566,   -0.9422,   -0.9656,   -0.9890,   -1.0124,   -1.3660,   -2.1062,   -2.7039,   -3.1544,   -3.0335,  999.0000,  999.0000,   -1.1134,   -0.8918,   -1.3282,   -1.8248,   -1.8427,   -1.5853,   -1.8842,   -2.4615,   -1.8077,   -0.6221,    0.0973,    0.6444,    0.8793,    1.0167,    1.4029,    1.8538,    2.0888,    2.2782,    2.4654,    2.6523,    2.2742,    1.8255,    1.7753,    1.7594,    1.7563,    1.7538,    1.6526,    1.5731,    2.9212,    4.2125,    4.3688,    4.5105,  999.0000,  999.0000,  999.0000,  999.0000,  999.0000,  999.0000,  999.0000,
  8-AUG-2000 08:22:22.00,   -0.7829,   -0.9900,  999.0000,  999.0000,  999.0000,  999.0000,  999.0000,  999.0000,   -1.5481,   -1.5451,   -1.3505,   -1.2118,  999.0000,  999.0000,   -1.1306,   -1.1413,  999.0000,  999.0000,   -1.3454,   -1.4731,  999.0000,  999.0000,  999.0000,  999.0000,   -2.4605,   -1.9467,   -1.2887,   -0.6306,   -0.6448,   -1.1016,   -1.1178,   -0.8806,   -1.4082,   -2.3183,   -1.8732,   -0.8426,   -0.0506,    0.6532,    0.9720,    1.1705,    1.4318,    1.7094,    1.9872,    2.2650,    1.8886,    1.4031,    1.4104,    1.4793,    1.2957,    1.0367,    0.9001,    0.7499,    0.9619,    1.2295,    1.9916,    2.7428,    3.2761,    3.8433,    4.8038,    5.7527,    5.7244,    5.7682,    5.6997,    8.8988,    6.7538,
  8-AUG-2000 08:29:04.00,  999.0000,   -1.2588,  999.0000,  999.0000,   -1.6143,   -1.6941,   -1.6503,   -1.5843,  999.0000,  999.0000,  999.0000,  999.0000,  999.0000,  999.0000,   -0.7062,   -0.6863,  999.0000,  999.0000,   -1.1077,   -1.3411,   -1.6834,   -1.9991,   -2.2873,   -2.3064,   -2.0811,   -1.5467,   -1.2839,   -1.0211,   -0.9286,   -0.9482,   -0.9579,   -0.9619,   -1.3942,   -2.0408,   -1.4292,   -0.0988,    0.6106,    1.1343,    1.5211,    1.7533,    1.9189,    2.0333,    2.1135,    2.1866,    1.7119,    1.1460,    1.2310,    1.3974,    0.8188,    0.6324,    0.4715,  999.0000,  999.0000,    1.4859,    1.9876,    2.4918,    3.0466,    3.6371,    4.6421,    6.1838,  999.0000,  999.0000,  999.0000,   29.6968,    7.2006,
  8-AUG-2000 08:35:47.00,   -0.8406,   -1.0816,   -1.0100,   -0.9558,   -0.9690,   -0.9595,   -0.8776,   -0.8055,   -0.7602,   -0.7810,   -0.9551,   -1.0492,   -0.9833,   -0.8694,   -0.6719,   -0.6167,   -0.7777,   -0.9154,   -1.0222,   -1.2280,   -1.5498,   -1.6453,  999.0000,  999.0000,  999.0000,   -2.1559,   -1.5488,   -0.9536,   -0.8498,   -1.0564,   -1.2433,   -1.4189,   -1.6903,   -2.1249,   -1.8069,  999.0000,    0.8908,    0.9571,  999.0000,    0.9754,    1.3192,    1.6078,    1.8692,    2.1249,    1.4787,    0.6823,    0.9244,    1.2963,  999.0000,  999.0000,  999.0000,    0.2646,    0.7226,    1.2231,    2.0680,    2.9264,    3.6816,    4.3856,    5.4247,    6.2775,  999.0000,  999.0000,  999.0000,  999.0000,  999.0000,
  8-AUG-2000 08:42:34.00,  999.0000,   -0.5272,   -0.8257,   -0.9813,   -0.5877,   -0.3005,  999.0000,  999.0000,  999.0000,  999.0000,  999.0000,  999.0000,  999.0000,  999.0000,  999.0000,  999.0000,  999.0000,  999.0000,   -0.9851,   -1.0055,   -0.9879,   -1.3816,   -2.1994,   -2.3494,   -1.8929,   -1.2893,   -0.5681,   -0.3944,  999.0000,  999.0000,  999.0000,  999.0000,   -1.4478,   -2.1717,   -1.3989,  999.0000,  999.0000,  999.0000,  999.0000,    2.2605,    2.2411,    2.0273,    2.2195,    2.4975,    2.3592,    2.0574,    2.0616,    2.1055,  999.0000,  999.0000,  999.0000,  999.0000,    1.4372,    2.1042,    2.7713,  999.0000,  999.0000,    4.1047,  999.0000,  999.0000,  999.0000,  999.0000,  999.0000,  999.0000,  999.0000,
  8-AUG-2000 08:49:17.00,   -1.7445,   -2.0396,   -1.8143,   -1.6080,  999.0000,  999.0000,   -1.2086,   -1.1035,   -1.0743,   -1.0821,   -1.1757,   -1.0962,   -0.6705,   -0.3548,   -0.2305,   -0.1915,   -0.2822,   -0.4783,   -0.8148,   -1.1155,   -1.3745,   -1.7306,   -2.1871,   -2.2092,  999.0000,  999.0000,   -1.0922,   -0.7013,   -0.9439,   -1.2040,   -1.2880,   -1.2708,   -0.9771,  999.0000,  999.0000,    0.5777,    0.6645,    0.5674,    0.8743,    1.3074,    1.7578,    2.2128,    2.0324,    1.7335,    1.9525,    1.9327,    1.9269,    1.2801,    0.5662,    1.0657,    0.7770,    0.4810,  999.0000,  999.0000,  999.0000,  999.0000,  999.0000,    4.6762,    5.4968,    6.2300,  999.0000,  999.0000,  999.0000,  999.0000,  999.0000,
  8-AUG-2000 08:56:01.00,   -1.7963,   -1.4774,   -1.4628,   -1.4177,   -1.2553,   -1.1326,   -1.1370,   -1.0857,  999.0000,  999.0000,   -0.4801,   -0.2870,   -0.1114,   -0.0310,   -0.1158,   -0.2251,   -0.3714,   -0.6151,  999.0000,  999.0000,  999.0000,  999.0000,   -2.4828,   -2.2481,   -1.4610,   -0.5593,   -0.4772,   -0.3951,   -0.5272,   -0.7359,   -1.0965,   -1.4807,   -1.6121,   -1.7299,   -0.8620,    0.4083,    0.7275,    0.6952,    0.8844,    1.1427,    1.6762,    2.2813,  999.0000,  999.0000,  999.0000,    2.3093,    2.3386,    2.3657,    2.0907,    1.7915,    1.6664,    1.5476,  999.0000,  999.0000,  999.0000,    3.0770,    4.0034,    4.8536,  999.0000,  999.0000,  999.0000,    6.4111,    5.3197,    4.5017,    5.2238,
  8-AUG-2000 09:02:44.00,  999.0000,   -0.6024,   -1.1334,   -1.5453,  999.0000,  999.0000,  999.0000,  999.0000,  999.0000,  999.0000,  999.0000,  999.0000,  999.0000,  999.0000,  999.0000,  999.0000,  999.0000,  999.0000,   -0.8513,   -1.0521,   -1.5422,   -1.8382,  999.0000,  999.0000,   -2.1256,   -1.8608,   -1.3078,   -1.1073,   -1.1541,   -0.6542,   -1.0449,  999.0000,  999.0000,   -2.2364,   -1.3666,    0.0577,    0.5513,    0.7008,    0.7976,    0.8779,    1.5007,    2.2646,    2.1991,    1.9583,    2.1568,    2.4286,  999.0000,  999.0000,    1.2933,    1.4333,  999.0000,  999.0000,    1.7565,    1.7321,  999.0000,  999.0000,  999.0000,  999.0000,  999.0000,    5.2327,    5.5752,    5.8804,  999.0000,  999.0000,  999.0000,
  8-AUG-2000 09:09:27.00,  999.0000,  999.0000,  999.0000,  999.0000,  999.0000,  999.0000,   -0.8182,   -0.9566,   -0.8952,   -0.8598,   -0.8847,   -0.8198,  999.0000,  999.0000,   -0.0868,   -0.0040,   -0.1664,   -0.4398,  999.0000,  999.0000,   -1.7038,   -1.8694,  999.0000,  999.0000,   -1.5754,   -1.3218,   -1.2581,   -1.1627,   -1.2180,   -1.3726,   -1.3239,   -1.1583,   -1.2203,   -1.3961,   -0.5546,    0.7263,    1.1580,    1.2757,    1.4602,    1.6656,    2.3112,    3.0714,    3.0983,    2.9702,    3.0002,    3.0566,    2.5190,  999.0000,  999.0000,  999.0000,  999.0000,    1.4365,  999.0000,  999.0000,  999.0000,  999.0000,  999.0000,  999.0000,  999.0000,  999.0000,  999.0000,  999.0000,  999.0000,  999.0000,  999.0000,
  8-AUG-2000 09:16:11.00,  999.0000,  999.0000,  999.0000,   -1.0456,   -0.9359,   -0.8129,   -0.6476,   -0.5377,  999.0000,  999.0000,  999.0000,  999.0000,   -0.7377,   -0.8282,   -1.0067,   -1.0167,   -0.7710,   -0.6946,   -0.8438,   -1.0161,  999.0000,  999.0000,  999.0000,  999.0000,   -1.8478,   -1.9832,   -1.7756,   -1.3106,   -1.1349,   -1.1496,   -0.9937,   -0.7397,   -0.8385,   -1.1140,   -0.3897,    0.7665,    1.2437,    1.4699,    1.7383,    2.0199,    2.8749,    3.8790,    3.7692,    3.4237,    3.0267,    2.6211,    2.1916,    1.7592,    2.0208,  999.0000,  999.0000,  999.0000,  999.0000,  999.0000,  999.0000,  999.0000,  999.0000,    3.9556,  999.0000,  999.0000,  999.0000,  999.0000,  999.0000,  999.0000,  999.0000,
  8-AUG-2000 09:22:55.00,  999.0000,   -1.1251,   -1.0549,   -1.0037,   -1.0256,   -1.0409,   -1.0351,   -1.0416,  999.0000,  999.0000,  999.0000,  999.0000,  999.0000,  999.0000,  999.0000,  999.0000,  999.0000,  999.0000,  999.0000,  999.0000,   -1.5605,   -1.5966,   -1.6288,   -1.4571,   -0.5339,   -0.9201,   -0.9086,   -0.6931,   -0.6253,   -0.6547,   -0.7693,   -0.9329,   -1.0407,   -1.2204,   -0.5414,    0.5006,    0.7952,    0.8405,    1.0007,    1.1968,    1.9132,    2.7649,    2.8934,    2.8690,    2.6875,    2.4798,    1.7465,    0.9475,    0.9814,    1.0871,    0.8557,    0.6075,    0.6510,    0.7216,    2.1676,    3.5707,    4.1172,    4.7059,  999.0000,  999.0000,  999.0000,  999.0000,  999.0000,  999.0000,  999.0000,
  8-AUG-2000 09:29:38.00,   -1.0540,   -1.0948,   -1.0656,   -1.0242,   -0.9364,   -0.8807,   -0.9275,   -0.9296,  999.0000,  999.0000,  999.0000,  999.0000,   -0.3347,   -0.1688,    0.0784,    0.2211,    0.2050,    0.1500,  999.0000,  999.0000,  999.0000,  999.0000,  999.0000,  999.0000,  999.0000,   -1.2931,   -1.0644,   -0.8526,   -0.8006,   -0.8538,   -0.8166,   -0.7274,   -0.4477,  999.0000,  999.0000,    0.6770,    0.7542,    0.7214,    0.8884,    1.1178,    1.6972,    2.3676,    2.4444,    2.3957,    2.1009,    1.7651,    1.4416,    1.1197,    1.1028,    1.0595,    0.8378,    0.5425,    0.7938,    1.0011,    2.0734,    3.1739,    3.5854,    3.9579,    3.7372,    3.7392,    4.7652,    5.6128,    4.8021,    4.2386,    4.7667,
  8-AUG-2000 09:36:21.00,  999.0000,  999.0000,  999.0000,  999.0000,  999.0000,  999.0000,   -1.3117,   -1.3662,   -0.9873,   -0.7261,  999.0000,  999.0000,  999.0000,  999.0000,  999.0000,  999.0000,  999.0000,  999.0000,   -0.8261,   -0.9783,   -1.2958,   -1.4053,  999.0000,  999.0000,   -0.8394,   -0.6581,   -0.6401,   -0.7447,   -0.8338,   -0.9126,   -0.7378,   -0.4171,    0.0290,  999.0000,  999.0000,    1.5554,    1.5052,    1.2483,    1.3753,    1.6223,    2.3672,    3.2417,    3.0381,    2.6065,    2.4040,    2.2397,    1.6070,    0.9159,  999.0000,  999.0000,  999.0000,    0.0390,  999.0000,  999.0000,  999.0000,    3.7668,    4.0290,    4.2835,  999.0000,  999.0000,  999.0000,    4.9613,    4.5104,    4.2096,  999.0000,
  8-AUG-2000 09:43:04.00,  999.0000,  999.0000,  999.0000,  999.0000,  999.0000,  999.0000,   -0.9413,   -1.0574,  999.0000,  999.0000,  999.0000,  999.0000,  999.0000,  999.0000,   -0.1793,   -0.1257,   -0.1813,   -0.2580,  999.0000,  999.0000,  999.0000,  999.0000,  999.0000,  999.0000,   -1.6060,   -1.4839,   -1.3604,   -1.2358,   -1.2714,   -1.4124,   -1.1989,   -0.7815,   -0.2688,  999.0000,  999.0000,    1.5200,    1.2957,    0.7007,    0.8058,    1.0874,    1.8502,    2.7380,    2.7622,    2.6037,    2.1963,    1.7474,    1.4936,    1.2642,    1.1651,    1.0773,    0.7121,    0.3329,    0.5295,    0.7548,    2.1767,    3.5279,    3.4686,    3.3975,    3.1894,    3.0197,    3.1572,    3.2015,    2.6875,    2.4367,    3.4678,
  8-AUG-2000 09:49:47.00,  999.0000,   -0.6634,   -1.1974,   -1.5380,   -1.1357,   -0.7892,  999.0000,  999.0000,  999.0000,  999.0000,  999.0000,  999.0000,    0.3885,    0.6331,    1.0105,    1.1934,    1.0808,    0.8170,    0.3517,    0.0474,  999.0000,  999.0000,  999.0000,  999.0000,   -1.0195,   -0.9926,   -0.9831,   -0.8942,   -0.8640,   -0.8399,   -0.8235,   -0.8117,   -0.5145,   -0.0746,    0.1614,    1.1935,    0.8570,    0.6052,    0.6886,    0.7519,    1.4840,    2.3900,    2.2776,    1.9498,    1.7008,    1.4649,    1.2512,    1.0403,    1.0873,    1.1564,    0.4791,   -0.2354,    0.3567,    0.9805,    2.2673,    3.4947,    3.5370,    3.5682,    3.4716,    3.3623,    2.9991,    2.7362,    2.6789,    2.7377,  999.0000,
  8-AUG-2000 09:56:30.00,   -0.8957,   -0.9095,   -0.9402,   -0.9703,  999.0000,  999.0000,   -1.0537,   -1.0325,   -0.8789,   -0.7801,   -0.8079,   -0.7810,   -0.6450,   -0.5278,  999.0000,  999.0000,  999.0000,  999.0000,   -0.1060,   -0.2417,  999.0000,  999.0000,   -1.4223,   -1.4961,   -1.2796,   -0.9891,   -0.6394,   -0.2723,   -0.1214,    0.0284,   -0.0308,   -0.2358,    0.0501,    0.6537,    0.9653,  999.0000,    1.5984,    1.5464,    1.4810,    1.3376,    1.9112,    2.6712,    2.6161,    2.3886,    2.1255,    1.8881,    1.3288,    0.7283,    1.0833,    1.5201,    0.7368,   -0.1074,    0.5419,    1.2077,    2.1111,    3.0895,    3.3763,    3.6394,    3.6298,    3.6444,  999.0000,  999.0000,  999.0000,  999.0000,  999.0000,
  8-AUG-2000 10:03:13.00,  999.0000,   -1.6377,   -1.6830,   -1.7673,   -2.0014,   -2.0323,   -1.4135,   -0.9210,   -0.7704,   -0.6965,   -0.8003,   -0.6227,    0.1175,    0.6766,    0.9209,    1.0537,    1.0172,    0.7792,    0.2731,   -0.2553,   -0.8098,   -1.0884,  999.0000,  999.0000,   -1.0709,   -0.6206,   -0.6347,   -0.6527,   -0.6674,   -0.6798,   -0.3963,  999.0000,  999.0000,    0.9993,    1.3773,    1.7138,    1.8501,    1.9126,    2.0085,    2.1150,    2.8163,    3.6724,    3.1772,    2.3960,    2.4573,    1.9406,    1.3174,    0.8894,    1.2066,    1.5956,    0.7588,   -0.1392,    0.7172,  999.0000,  999.0000,    3.1924,    2.9575,    2.7507,    3.0560,    3.1499,    2.5197,    1.9446,  999.0000,  999.0000,  999.0000,
  8-AUG-2000 10:09:55.00,   -1.0866,   -1.2063,  999.0000,  999.0000,  999.0000,  999.0000,   -0.6261,   -0.4714,   -0.2125,   -0.1173,   -0.4011,   -0.4932,   -0.2021,    0.1307,    0.5360,    0.6552,  999.0000,  999.0000,   -0.2906,   -0.6217,   -0.9714,   -1.1460,   -1.1401,   -1.0845,   -1.0078,   -0.8779,   -0.8255,   -0.8022,   -0.6611,   -0.4422,   -0.2582,   -0.0941,    0.1810,    0.5115,    1.1833,    2.0025,    2.0932,    1.9146,    2.0187,    2.2112,    2.6401,    3.1305,    2.6042,    1.8628,    1.7508,    1.5726,    1.3286,    1.0764,  999.0000,  999.0000,  999.0000,  999.0000,  999.0000,    0.7975,    1.3966,    1.9548,    1.6948,    1.4419,  999.0000,  999.0000,  999.0000,    0.7868,    1.6326,    2.4948,    3.4291,
  8-AUG-2000 10:16:38.00,  999.0000,   -0.7841,  999.0000,  999.0000,  999.0000,  999.0000,  999.0000,  999.0000,  999.0000,  999.0000,   -0.5339,   -0.3149,    0.2864,    0.7108,    0.8278,    0.9437,    1.0578,    0.9944,  999.0000,  999.0000,  999.0000,  999.0000,   -0.5051,   -0.6261,  999.0000,   -0.6101,   -0.6357,   -0.6685,   -0.6162,   -0.4889,   -0.4728,   -0.5059,   -0.4529,   -0.2892,    0.5668,    1.7552,    1.8847,    1.6086,    1.9207,    2.4952,    2.7927,    3.0471,    2.2396,    1.2073,  999.0000,  999.0000,  999.0000,  999.0000,  999.0000,  999.0000,  999.0000,  999.0000,  999.0000,  999.0000,  999.0000,  999.0000,  999.0000,  999.0000,  999.0000,  999.0000,  999.0000,  999.0000,  999.0000,  999.0000,  999.0000,
  8-AUG-2000 10:23:21.00,  999.0000,  999.0000,  999.0000,   -0.9801,  999.0000,  999.0000,  999.0000,  999.0000,   -0.0999,    0.0054,  999.0000,  999.0000,   -0.1702,   -0.2171,  999.0000,  999.0000,  999.0000,  999.0000,   -0.3512,   -0.5287,   -0.8828,   -1.1936,   -1.4598,   -1.4240,   -0.7635,   -0.6544,   -0.6230,   -0.6499,   -0.5522,   -0.8530,   -0.6774,   -0.3609,    0.0312,    0.2574,    0.6938,  999.0000,  999.0000,  999.0000,  999.0000,    3.4474,    3.6489,    3.7408,    3.1053,    2.3159,    2.5855,    3.0316,    2.3652,    1.5597,  999.0000,  999.0000,  999.0000,  999.0000,  999.0000,  999.0000,  999.0000,  999.0000,  999.0000,  999.0000,  999.0000,  999.0000,  999.0000,  999.0000,  999.0000,  999.0000,  999.0000,
  8-AUG-2000 10:30:03.00,  999.0000,   -0.4087,  999.0000,  999.0000,   -1.0495,   -1.1363,   -0.8173,   -0.5561,   -0.4507,   -0.3445,   -0.2363,   -0.1417,   -0.0744,    0.0698,    0.3478,    0.7936,    1.4944,    1.6274,    1.0042,    0.4935,    0.1146,   -0.0662,  999.0000,  999.0000,   -0.7884,   -0.5669,   -0.4335,   -0.3661,   -0.2429,   -0.0829,   -0.0019,    0.0336,    0.0120,   -0.0382,    0.4071,    1.0666,    1.2399,    1.2336,    2.1056,    3.2521,    3.3264,    3.1219,    2.4033,    1.5761,    1.6083,    1.7839,    1.5166,    1.1939,    1.1421,    1.1135,    0.5937,    0.0494,    0.1063,    0.1806,    0.7325,    1.2502,    1.0879,    1.0006,    1.8038,    2.4683,    1.8465,    1.5165,    2.3242,    3.0613,  999.0000,
  8-AUG-2000 10:36:48.00,   -1.3725,   -1.5875,   -1.4778,   -1.3291,   -1.0307,   -0.6155,    0.1730,    0.7581,    0.7932,    0.7242,    0.4140,    0.2205,    0.2600,    0.4582,    0.9322,    1.1634,    1.0259,    0.8693,  999.0000,  999.0000,  999.0000,  999.0000,  999.0000,  999.0000,   -0.4353,   -0.2850,   -0.3952,   -0.7009,   -0.7094,   -0.5222,   -0.2550,   -0.0168,    0.2772,    0.6118,    1.0574,    1.5869,    1.5843,    1.4155,    2.0740,    2.9934,    3.1596,    3.1300,    2.3905,    1.5008,    1.3740,    1.3744,    1.1971,    0.9977,    0.7099,    0.4144,    0.0279,   -0.3632,   -0.3039,   -0.2338,    0.0475,    0.3286,    0.6058,    0.8880,  999.0000,  999.0000,  999.0000,    2.2266,    3.1461,    3.8691,  999.0000,
  8-AUG-2000 10:43:30.00,  999.0000,  999.0000,  999.0000,   -1.3973,   -1.1778,   -0.8964,   -0.4165,   -0.1069,  999.0000,  999.0000,   -0.5589,   -0.6482,   -0.6145,   -0.3543,    0.2996,    0.6062,  999.0000,  999.0000,   -0.0565,   -0.1868,  999.0000,  999.0000,   -0.2592,   -0.2507,   -0.2127,   -0.2159,   -0.2281,   -0.1816,   -0.1707,   -0.1542,    0.0521,  999.0000,  999.0000,    1.2357,    1.4812,  999.0000,  999.0000,    1.9427,    2.4747,    3.1248,    3.1597,    3.0345,    2.4253,    1.7137,    1.5062,    1.3826,    0.8513,    0.2689,    0.3146,    0.4145,    0.0605,   -0.3161,   -0.5229,   -0.7236,   -0.7213,   -0.6879,   -0.0340,    0.6084,    1.1176,    1.5785,    1.6534,    1.7773,    2.1954,    2.6441,    3.1750,
  8-AUG-2000 10:50:13.00,  999.0000,  999.0000,  999.0000,  999.0000,   -0.7806,   -0.7462,  999.0000,  999.0000,   -0.6431,   -0.6557,   -0.7771,   -0.8300,  999.0000,  999.0000,  999.0000,  999.0000,  999.0000,  999.0000,  999.0000,  999.0000,   -0.0716,   -0.0490,   -0.0899,   -0.1309,   -0.0095,  999.0000,  999.0000,    0.2266,    0.1372,   -0.0415,   -0.1878,   -0.3155,    0.3162,    1.3277,    1.7355,  999.0000,  999.0000,    2.1107,    2.5123,    3.0053,    2.7824,    2.3733,    2.0064,    1.6485,    1.4075,    1.1861,    0.6103,   -0.0098,    0.2871,    0.6630,    0.2094,   -0.2857,   -0.5305,   -0.7672,   -0.7546,   -0.6945,    0.3104,    1.2669,    1.6621,    2.0404,    2.2841,    2.6305,    3.7268,    4.3839,  999.0000,
  8-AUG-2000 10:56:56.00,  999.0000,  999.0000,  999.0000,  999.0000,  999.0000,  999.0000,  999.0000,  999.0000,  999.0000,  999.0000,  999.0000,  999.0000,    0.8462,    0.8603,  999.0000,  999.0000,  999.0000,  999.0000,  999.0000,  999.0000,  999.0000,  999.0000,  999.0000,  999.0000,   -0.2720,    0.0115,   -0.0213,   -0.2606,   -0.2893,   -0.1794,   -0.2151,   -0.3345,    0.1642,    0.9719,    1.4605,    1.8112,    1.9011,    1.8946,    2.6449,    3.6317,    3.5607,    3.2146,    2.7304,    2.0896,    1.7307,    1.3168,    0.9654,    0.6177,    0.0862,   -0.4611,   -0.5868,   -0.6914,   -1.0716,   -1.4500,   -1.5012,   -1.4987,   -0.3549,    0.6450,    0.5988,    0.5705,    1.0496,    1.5400,  999.0000,  999.0000,  999.0000,
  8-AUG-2000 11:03:39.00,   -0.1066,   -0.3212,  999.0000,  999.0000,  999.0000,  999.0000,   -1.5208,   -1.6960,   -1.6960,   -1.6726,   -1.5950,   -1.4476,  999.0000,  999.0000,  999.0000,  999.0000,  999.0000,  999.0000,    0.5621,    0.8492,  999.0000,  999.0000,  999.0000,  999.0000,  999.0000,    0.2147,    0.2589,    0.2477,    0.2558,    0.0717,   -0.0895,   -0.3234,    0.0913,    0.8304,    1.2684,    1.5763,    1.4783,    1.1711,    1.8329,    2.7616,    2.7779,    2.5153,  999.0000,  999.0000,  999.0000,    0.5432,    0.2833,    0.0439,   -0.1538,   -0.3480,   -0.4842,   -0.6176,   -0.9427,   -1.2630,  999.0000,  999.0000,  999.0000,   -0.3682,  999.0000,  999.0000,  999.0000,  999.0000,  999.0000,  999.0000,  999.0000,
  8-AUG-2000 11:10:22.00,  999.0000,  999.0000,  999.0000,  999.0000,  999.0000,  999.0000,  999.0000,  999.0000,  999.0000,  999.0000,  999.0000,  999.0000,    0.7930,    0.7521,  999.0000,  999.0000,  999.0000,  999.0000,  999.0000,  999.0000,  999.0000,  999.0000,   -0.7936,   -0.9653,  999.0000,  999.0000,  999.0000,  999.0000,  999.0000,   -1.0697,   -1.0822,   -1.1026,   -0.2024,    1.3537,    1.5638,    1.3961,    1.7318,  999.0000,  999.0000,    3.3147,  999.0000,  999.0000,  999.0000,    0.6935,    0.8305,    1.1062,    1.0538,    0.9604,    0.6650,    0.3522,   -0.0150,   -0.3848,   -0.7222,   -1.0598,   -1.4336,   -1.7629,   -1.2008,   -0.6507,   -0.2397,    0.2133,    1.0016,    1.7095,    1.9350,    2.1029,  999.0000,
  8-AUG-2000 11:17:05.00,  999.0000,  999.0000,  999.0000,  999.0000,  999.0000,  999.0000,  999.0000,  999.0000,    0.0299,    0.1974,  999.0000,  999.0000,    0.6999,    0.8189,  999.0000,  999.0000,  999.0000,  999.0000,    0.9920,    1.0266,  999.0000,  999.0000,  999.0000,  999.0000,  999.0000,  999.0000,  999.0000,  999.0000,  999.0000,  999.0000,  999.0000,  999.0000,  999.0000,    3.0827,    2.2469,    1.3534,    1.6350,    2.3512,    3.1731,    4.0281,    3.4146,    2.4192,    1.7885,    1.2350,    1.3059,    1.4809,    1.3929,    1.2721,    0.9151,    0.5377,    0.2215,   -0.0916,   -0.6089,   -1.1244,   -1.3237,   -1.4916,   -1.0300,   -0.5413,    0.2623,    1.0281,    1.4923,    1.8620,    1.6667,    1.5170,  999.0000,
  8-AUG-2000 11:23:47.00,  999.0000,  999.0000,  999.0000,  999.0000,  999.0000,  999.0000,  999.0000,  999.0000,  999.0000,  999.0000,  999.0000,  999.0000,  999.0000,  999.0000,  999.0000,  999.0000,  999.0000,  999.0000,  999.0000,  999.0000,  999.0000,  999.0000,    0.0125,   -0.1449,  999.0000,  999.0000,  999.0000,   -0.5408,   -0.2109,    0.1913,    0.2639,    0.2253,    0.9758,    2.1210,    2.1676,    1.7397,    1.7658,    1.9597,    2.5074,    3.1657,    2.5533,    1.6105,    1.3661,    1.2696,    1.3594,    1.4803,    1.4690,    1.4411,    0.8550,    0.2208,   -0.0765,   -0.3570,   -0.8613,   -1.3674,   -1.7615,   -2.1153,   -1.6677,   -1.1536,    0.1312,    1.2973,    1.5148,    1.6756,  999.0000,  999.0000,  999.0000,
  8-AUG-2000 11:30:29.00,  999.0000,  999.0000,  999.0000,  999.0000,  999.0000,  999.0000,  999.0000,  999.0000,  999.0000,  999.0000,  999.0000,  999.0000,  999.0000,  999.0000,  999.0000,  999.0000,  999.0000,  999.0000,  999.0000,  999.0000,  999.0000,  999.0000,    1.3963,    1.3581,  999.0000,  999.0000,  999.0000,  999.0000,  999.0000,    0.8452,    0.5358,    0.2172,    0.7759,    1.7733,    1.6837,    1.1247,    1.3764,    1.9279,    2.4667,    3.0016,    2.5721,    1.8919,    1.7482,    1.7180,    2.0297,    2.3984,    2.3996,    2.3549,    1.3159,    0.1912,   -0.0249,   -0.1956,   -0.8938,   -1.5950,   -1.9508,   -2.2748,   -1.9622,   -1.5609,   -0.1334,    1.1529,    1.3112,    1.4459,    1.4399,    1.4159,  999.0000,
  8-AUG-2000 11:37:13.00,  999.0000,  999.0000,  999.0000,  999.0000,    0.2693,    0.1689,  999.0000,  999.0000,    0.5551,    0.6341,  999.0000,  999.0000,  999.0000,  999.0000,  999.0000,  999.0000,  999.0000,  999.0000,    0.3102,    0.2742,  999.0000,  999.0000,  999.0000,  999.0000,  999.0000,  999.0000,  999.0000,    0.4412,    0.4844,    0.5336,    0.4443,    0.2752,    0.8170,    1.8611,    1.8249,    1.4057,    1.2415,    1.1716,    1.7097,    2.4380,    2.0877,    1.4571,    1.3970,    1.4576,    1.7394,    2.0580,    1.7219,    1.3039,    0.7540,    0.1927,    0.1428,    0.1184,   -0.4271,   -0.9720,   -0.9613,   -0.9370,   -0.6405,   -0.3161,    0.3317,    0.9293,    1.1256,    1.3674,    1.8813,    2.2441,    1.8932,
  8-AUG-2000 11:43:55.00,  999.0000,  999.0000,  999.0000,  999.0000,   -0.5987,    0.1796,    0.9579,    1.4315,  999.0000,  999.0000,    0.3804,    0.2047,  999.0000,  999.0000,  999.0000,  999.0000,    1.0727,    1.0577,    0.7915,    0.8264,    1.2141,    1.5153,    1.7275,    1.8546,  999.0000,    0.6332,    0.8619,  999.0000,  999.0000,  999.0000,  999.0000,  999.0000,    2.3049,    2.8353,    2.5642,    2.0915,    2.0691,    2.1967,    2.5068,    2.8740,    2.5042,    1.9428,    1.8731,    1.9076,    1.9635,    2.0229,    1.3961,    0.7911,    0.4432,    0.1176,   -0.0522,   -0.2141,   -0.9381,   -1.6602,   -1.7083,   -1.7509,   -1.6837,   -1.5527,   -0.6829,    0.1882,    0.8107,    1.3100,    1.2299,    2.3558,    1.4825,
  8-AUG-2000 11:50:40.00,  999.0000,  999.0000,  999.0000,   -2.0534,   -1.1624,   -0.3529,  999.0000,  999.0000,    1.2951,    1.6235,  999.0000,  999.0000,    1.0749,    0.9615,  999.0000,  999.0000,    0.9835,    0.8007,    0.3648,    0.0972,  999.0000,  999.0000,   -0.1134,   -0.1836,    0.7002,    0.3030,    0.2342,    0.4119,    0.7067,    1.0786,    1.1819,    1.1305,    1.3619,  999.0000,  999.0000,    2.3541,    2.3365,    2.2055,    2.6112,    3.1943,    2.5632,    1.6163,    1.6443,    1.8786,    2.0854,    2.2877,  999.0000,  999.0000,  999.0000,  999.0000,  999.0000,  999.0000,  999.0000,  999.0000,  999.0000,  999.0000,  999.0000,  999.0000,  999.0000,  999.0000,  999.0000,  999.0000,  999.0000,  999.0000,  999.0000,
  8-AUG-2000 11:57:24.00,  999.0000,  999.0000,  999.0000,  999.0000,   -3.6457,   -4.0490,  999.0000,  999.0000,  999.0000,  999.0000,  999.0000,  999.0000,  999.0000,  999.0000,  999.0000,  999.0000,  999.0000,  999.0000,    0.4745,    0.7061,    0.8011,    1.0179,    1.3603,    1.7026,    1.1828,    0.9468,    1.0484,    1.5217,    1.7643,    1.8403,    1.7654,    1.5410,    1.7005,    2.0521,    2.1372,  999.0000,  999.0000,    2.0686,    2.3518,    2.7291,    2.1050,    1.2205,    1.0787,    1.0940,    1.2492,    1.3520,    1.0535,    0.6635,    0.4152,    0.1731,   -0.4087,   -1.0074,   -1.7400,   -2.4583,   -2.1630,   -1.8684,   -1.5869,   -1.2964,   -0.9005,   -0.0216,  999.0000,  999.0000,  999.0000,   17.5788,  999.0000,
  8-AUG-2000 12:05:41.00,  999.0000,  999.0000,  999.0000,  999.0000,    1.1430,    1.2074,    1.2718,    1.1422,    0.4883,    0.0712,  999.0000,  999.0000,  999.0000,  999.0000,  999.0000,  999.0000,    0.9877,    1.0543,    1.0353,    1.0331,    1.0507,    1.0373,    0.9919,    0.9466,    0.7307,    0.4990,    0.4438,  999.0000,  999.0000,    0.6357,    0.5804,    0.4633,    0.6319,    1.0976,    1.2593,    1.3610,    1.5311,    1.7264,    2.0271,    2.3607,    1.8989,    1.2302,    1.0662,    1.0090,  999.0000,  999.0000,  999.0000,    0.5507,    0.4173,    0.2846,   -0.5559,   -1.2798,   -2.4042,   -3.3804,   -2.9997,   -2.4686,   -1.9225,   -1.1651,   -0.4311,    0.4340,    0.8933,    1.2086,    0.6614,    0.1721,   -0.0444,
  8-AUG-2000 12:12:16.00,  999.0000,  999.0000,  999.0000,  999.0000,  999.0000,  999.0000,  999.0000,  999.0000,  999.0000,  999.0000,  999.0000,  999.0000,   -1.8323,   -0.8463,    0.1397,    0.5774,    0.1824,    0.0246,    0.1825,    0.2707,  999.0000,  999.0000,  999.0000,  999.0000,    0.3024,    0.3087,  999.0000,  999.0000,  999.0000,  999.0000,  999.0000,  999.0000,  999.0000,    2.4503,    2.6171,    2.7712,    2.8363,    2.8685,    2.9208,    2.9795,    2.5110,    1.9054,    1.7727,    1.7401,    1.7126,    1.6860,    1.3239,    0.9199,    1.0876,    1.3045,  999.0000,  999.0000,  999.0000,   -2.2417,  999.0000,  999.0000,  999.0000,   -0.3338,  999.0000,  999.0000,  999.0000,  999.0000,  999.0000,  999.0000,  999.0000,
  8-AUG-2000 12:18:53.00,  999.0000,  999.0000,  999.0000,  999.0000,  999.0000,  999.0000,  999.0000,  999.0000,  999.0000,  999.0000,    2.6383,    2.4298,  999.0000,  999.0000,    1.8044,    1.6729,    1.6582,    1.6480,  999.0000,  999.0000,  999.0000,  999.0000,    1.6261,    1.6217,    1.7206,    1.9855,    2.0094,    1.5559,    1.2078,    0.7187,    0.8059,    1.2117,    1.4721,    1.8764,    1.9074,    1.8192,    1.7735,    1.7434,    1.8518,    2.0034,    1.5113,    0.8518,    0.7607,    0.7899,    0.6782,    0.5431,    0.2291,   -0.1072,    0.0901,    0.3334,  999.0000,  999.0000,  999.0000,  999.0000,  999.0000,   -1.6014,   -1.7102,   -1.7356,   -0.7954,    0.0830,    0.4684,    0.7613,    0.4309,    0.1585,    0.2410,
  8-AUG-2000 12:25:30.00,  999.0000,    0.2294,    1.1305,    1.7412,    1.2350,    0.7600,  999.0000,  999.0000,   -0.3657,   -0.7107,   -0.9857,   -1.1041,   -0.9096,   -0.7396,  999.0000,  999.0000,  999.0000,  999.0000,   -0.1032,    0.0402,    0.2026,    0.3837,    0.5841,    0.7846,  999.0000,  999.0000,  999.0000,   -0.4188,   -0.1237,    0.1715,    0.7660,  999.0000,  999.0000,    2.9835,    3.2471,    3.3542,    3.4868,    3.6426,    3.3246,    2.8584,    2.3207,    1.7644,    1.2919,    0.9123,    0.5396,    0.1562,    0.1765,    0.2473,    0.3933,    0.5458,   -0.4327,   -1.4678,   -2.0409,   -2.5886,   -2.0313,   -1.4820,   -1.0933,   -0.6782,    0.0417,    0.6695,    0.5614,    0.5336,  999.0000,  999.0000,  999.0000,
  8-AUG-2000 12:32:09.00,    1.0074,    2.1381,    2.1966,    2.3294,    2.7478,    2.9543,    2.4833,    1.9751,  999.0000,  999.0000,    0.1494,    0.0530,    0.9805,    1.5783,  999.0000,  999.0000,    1.6530,    1.8666,    2.3318,    2.2116,    1.4055,    0.8753,    0.6295,    0.3837,  999.0000,  999.0000,  999.0000,  999.0000,  999.0000,  999.0000,  999.0000,    1.6562,    1.6110,  999.0000,  999.0000,  999.0000,  999.0000,  999.0000,  999.0000,  999.0000,  999.0000,  999.0000,  999.0000,    0.0941,    0.0856,    0.0975,    0.0975,    0.3045,    0.2506,    0.1936,   -0.6757,   -1.5855,   -1.7964,   -1.9823,   -1.3140,   -0.6598,   -0.2848,    0.0828,    0.3660,    0.6129,    0.5688,    0.5255,    0.4866,    0.4430,    0.3768,
  8-AUG-2000 12:38:45.00,  999.0000,  999.0000,  999.0000,    0.0641,    0.5000,    0.9105,    1.2397,    1.4413,  999.0000,  999.0000,    1.0112,    0.8576,  999.0000,  999.0000,  999.0000,  999.0000,   -0.0129,    0.1248,    0.6778,    1.0940,    1.3500,    1.4320,  999.0000,  999.0000,  999.0000,  999.0000,  999.0000,   -0.1067,    0.3945,    0.8957,    1.5617,    2.3226,    2.7535,  999.0000,  999.0000,    3.5509,    3.2004,    2.6221,    2.2392,    1.9173,    1.8808,    1.9185,  999.0000,  999.0000,  999.0000,  999.0000,  999.0000,    0.9919,    1.0287,    1.0810,    0.0407,   -1.0541,   -1.3597,   -1.6364,   -0.9161,   -0.2220,   -0.0519,    0.1651,    0.9253,    1.5343,    1.0109,    0.4012,    0.1348,   -0.0368,    0.0221,
  8-AUG-2000 12:45:21.00,  999.0000,  999.0000,  999.0000,  999.0000,   -0.8746,   -0.8180,   -0.4201,   -0.0186,    0.3925,    0.7228,    0.8662,    0.8183,  999.0000,  999.0000,  999.0000,  999.0000,   -1.3322,   -1.4107,  999.0000,  999.0000,   -0.2411,   -0.0266,    0.0070,    0.4286,    1.2025,    1.9764,  999.0000,    0.9016,    0.8573,    0.8130,    1.1165,    1.6200,    1.8380,  999.0000,  999.0000,    1.9572,    1.4397,    0.7261,    0.3604,    0.1035,    0.1200,    0.2076,   -0.0614,   -0.4059,   -0.5956,   -0.7595,   -0.7790,   -0.8347,   -0.9297,   -1.0964,   -1.6365,   -2.1993,   -1.9489,   -1.6856,   -1.4381,   -1.1885,   -0.8964,   -0.5915,   -0.1388,    0.2759,  999.0000,  999.0000,  999.0000,    0.5640,   -0.5826,
  8-AUG-2000 12:51:57.00,  999.0000,  999.0000,  999.0000,  999.0000,  999.0000,  999.0000,  999.0000,  999.0000,  999.0000,  999.0000,  999.0000,  999.0000,  999.0000,  999.0000,    1.7758,    1.8869,    1.9981,    2.1093,  999.0000,  999.0000,  999.0000,  999.0000,  999.0000,  999.0000,  999.0000,  999.0000,  999.0000,    0.6534,    0.5734,    0.4834,    0.8948,    1.5251,    2.0526,    2.5287,    2.6187,    2.5420,    1.7777,    0.7591,    0.5505,    0.5950,    0.9386,    1.3599,    1.0474,    0.5795,    0.3785,    0.2221,  999.0000,  999.0000,  999.0000,   -1.0904,   -1.4625,   -1.8347,   -1.5349,   -1.2229,   -0.8257,   -0.4402,   -0.2902,   -0.1079,    0.4479,    0.9343,    0.8669,    0.8355,  999.0000,  999.0000,  999.0000,
  8-AUG-2000 12:58:32.00,  999.0000,  999.0000,  999.0000,  999.0000,    1.0180,    1.1849,  999.0000,  999.0000,    2.9075,    3.1539,  999.0000,  999.0000,  999.0000,  999.0000,    0.5938,    0.2386,    0.1216,    0.1059,  999.0000,  999.0000,  999.0000,  999.0000,    0.7033,    0.8228,  999.0000,  999.0000,  999.0000,  999.0000,  999.0000,    0.8020,    1.5564,    2.3819,    3.0524,    3.6452,    3.6052,    3.2919,    2.6275,    1.8334,    1.6412,    1.6372,    1.7900,    1.9836,    1.8119,    1.5628,    1.5318,    1.5371,    1.3342,    1.1053,    0.4006,   -0.3451,   -0.8769,   -1.3980,   -1.6889,   -2.1103,   -1.0872,   -0.2961,   -0.3636,   -0.5282,    0.2733,    0.9990,    1.1192,    1.2303,    1.2877,    1.2880,    1.0193,
  8-AUG-2000 13:05:08.00,  999.0000,  999.0000,  999.0000,   -0.3313,   -0.2903,   -0.3257,   -0.6051,   -0.7680,   -0.6159,   -0.5026,  999.0000,  999.0000,   -0.4324,   -0.3162,  999.0000,  999.0000,  999.0000,  999.0000,    1.0712,    1.3111,    1.5072,    1.7032,  999.0000,  999.0000,  999.0000,    0.5350,    1.0203,    1.5055,    1.3795,    0.6940,    1.2631,    2.3359,    3.0897,    3.6839,    3.8769,    3.8966,    2.7734,    1.2276,    0.8531,    0.8446,    0.8900,    0.9495,    0.6551,    0.2858,    0.3821,    0.5561,    0.2982,   -0.2026,   -0.6087,   -1.0066,   -1.7660,   -2.5434,  999.0000,  999.0000,  999.0000,   -1.4485,  999.0000,  999.0000,  999.0000,  999.0000,  999.0000,  999.0000,  999.0000,  999.0000,  999.0000,
  8-AUG-2000 13:11:44.00,  999.0000,    2.3443,  999.0000,  999.0000,  999.0000,  999.0000,  999.0000,  999.0000,    2.0166,    2.0475,    2.2581,    2.7603,  999.0000,  999.0000,    6.0146,    6.7604,    6.9916,    6.5569,  999.0000,  999.0000,    2.5916,    1.9884,  999.0000,  999.0000,  999.0000,  999.0000,  999.0000,  999.0000,  999.0000,   -0.5729,    0.6184,    1.8965,    2.7593,    3.4143,    3.6082,    3.6029,    2.7564,    1.5991,    1.3492,    1.3830,    1.1699,    0.8925,    0.6869,    0.4965,    0.0725,   -0.3905,  999.0000,  999.0000,  999.0000,  999.0000,  999.0000,  999.0000,  999.0000,  999.0000,  999.0000,  999.0000,  999.0000,  999.0000,  999.0000,  999.0000,  999.0000,  999.0000,  999.0000,  999.0000,  999.0000,
  8-AUG-2000 13:18:20.00,  999.0000,   -6.9655,  999.0000,  999.0000,  999.0000,  999.0000,  -14.8044,  -15.1945,  999.0000,  999.0000,  999.0000,  999.0000,  999.0000,  999.0000,    4.3674,    6.1895,    6.5348,    6.8800,  999.0000,  999.0000,  999.0000,  999.0000,  999.0000,  999.0000,  999.0000,    0.7048,    0.8847,    0.9514,    0.7451,    0.2604,    0.9599,    2.3471,    3.2010,    3.8184,    3.7409,    3.3633,    2.4392,    1.0005,    0.9621,    1.1988,    1.3397,    1.4556,    1.2532,    0.9835,    0.8237,    0.6821,    0.4143,    0.1308,   -0.5143,   -1.1906,   -1.4133,   -1.6133,   -2.1451,   -2.6444,   -1.3994,   -0.1572,  999.0000,  999.0000,  999.0000,  999.0000,  999.0000,  999.0000,  999.0000,  999.0000,  999.0000,
  8-AUG-2000 13:24:56.00,   -2.4741,   -0.6818,    2.1899,    4.3612,  999.0000,  999.0000,  999.0000,  999.0000,  999.0000,  999.0000,  999.0000,  999.0000,   -0.3313,   -0.8081,   -1.2075,   -0.7720,  999.0000,  999.0000,    4.3387,    5.6862,    6.6167,    7.5471,  999.0000,  999.0000,  999.0000,  999.0000,  999.0000,  999.0000,  999.0000,  999.0000,  999.0000,  999.0000,  999.0000,  999.0000,  999.0000,  999.0000,  999.0000,   -1.1554,   -0.4989,    0.1987,    0.6041,    0.9336,    0.8594,    0.6997,    0.4556,    0.1975,   -0.0232,   -0.1444,   -0.8452,   -1.4945,   -1.6070,   -1.5929,  999.0000,  999.0000,  999.0000,    0.0311,    0.0764,    0.4208,    0.4357,    0.5067,    1.0268,    1.3677,    0.6350,    0.0997,    0.4969,
  8-AUG-2000 13:31:32.00,  999.0000,   -4.2352,   -4.7604,   -5.1025,  999.0000,  999.0000,  999.0000,  999.0000,  999.0000,  999.0000,   -2.5731,   -1.9193,  999.0000,  999.0000,    1.7958,    2.8884,  999.0000,  999.0000,    5.5019,    6.1423,    6.5124,    6.8825,  999.0000,  999.0000,  999.0000,  999.0000,  999.0000,  999.0000,  999.0000,  999.0000,  999.0000,    2.4429,    2.8434,    3.4129,    3.0677,    2.4597,    1.7004,    0.8851,    1.1395,    1.7284,    1.8437,    1.8358,    1.6744,    1.4805,    1.2259,    0.9312,  999.0000,  999.0000,  999.0000,   -0.7467,  999.0000,  999.0000,  999.0000,  999.0000,  999.0000,  999.0000,  999.0000,    1.8303,    1.2385,    0.7620,    1.2080,    1.5671,    1.4056,    1.1840,    0.6785,
  8-AUG-2000 13:39:13.00,  999.0000,  999.0000,  999.0000,    2.1286,  999.0000,  999.0000,  999.0000,  999.0000,    0.9607,    0.8099,  999.0000,  999.0000,  999.0000,  999.0000,  999.0000,  999.0000,    1.0967,    0.4141,  999.0000,  999.0000,   -4.5255,   -5.0687,  999.0000,  999.0000,   -3.2846,   -2.6899,  999.0000,  999.0000,  999.0000,  999.0000,  999.0000,  999.0000,  999.0000,    4.9726,    4.1436,    3.2203,    2.2379,    1.2337,    1.3602,    1.8401,    1.9332,    1.9258,    1.5854,    1.1746,  999.0000,  999.0000,  999.0000,  999.0000,  999.0000,   -1.2217,   -1.5010,   -1.7740,   -1.7669,   -1.7472,   -1.2325,   -0.7379,   -0.6453,   -0.5720,   -0.7227,   -0.7660,    0.0481,    0.8011,    1.1885,    1.4182,    0.9030,
  8-AUG-2000 13:46:01.00,    0.8225,    0.7544,  999.0000,  999.0000,  999.0000,  999.0000,  999.0000,  999.0000,  999.0000,  999.0000,  999.0000,  999.0000,  999.0000,  999.0000,  999.0000,  999.0000,   -5.9193,   -5.2827,   -3.2053,   -1.8462,   -1.3283,   -0.8104,  999.0000,  999.0000,  999.0000,  999.0000,  999.0000,   -1.8592,   -0.8497,    0.1653,    1.2370,  999.0000,  999.0000,    4.5362,    3.8801,    2.4670,    1.4753,    0.6394,    0.8127,    1.5238,    1.3359,    1.2047,    1.2014,    1.3642,    1.0958,    0.7803,    0.3071,   -0.1858,   -0.6404,   -1.0916,   -1.4624,   -1.8292,   -1.6692,   -1.4982,   -1.1900,   -0.7330,   -0.0120,    0.4221,    0.3084,    0.2217,    0.3515,    0.5371,    1.0580,    1.4648,    1.3332,
  8-AUG-2000 13:52:44.00,  999.0000,  999.0000,  999.0000,  999.0000,  999.0000,  999.0000,   -2.9969,   -1.4989,   -0.0008,    1.5334,    3.1514,    3.8542,    2.7277,    1.8831,  999.0000,  999.0000,    0.8188,    0.6261,  999.0000,  999.0000,  999.0000,  999.0000,  999.0000,  999.0000,    0.7874,    0.8130,    0.8408,    0.8686,  999.0000,  999.0000,  999.0000,  999.0000,  999.0000,  999.0000,  999.0000,  999.0000,  999.0000,  999.0000,  999.0000,    2.6525,  999.0000,  999.0000,  999.0000,    2.3033,    1.9742,    1.6046,    1.2516,    0.9008,    0.6110,    0.3264,   -0.0041,   -0.3369,   -0.3092,   -0.2813,  999.0000,  999.0000,  999.0000,   -1.6718,   -0.5240,    0.5296,    0.8740,    1.2134,    1.3703,    1.5287,    1.6950,
  8-AUG-2000 13:59:27.00,  999.0000,  999.0000,  999.0000,  999.0000,  999.0000,  999.0000,    3.1103,    3.1396,  999.0000,  999.0000,  999.0000,  999.0000,  999.0000,  999.0000,  999.0000,  999.0000,    1.0619,    0.9887,  999.0000,  999.0000,  999.0000,  999.0000,  999.0000,  999.0000,    1.9462,    2.6339,    2.3621,    2.0599,    1.8942,    1.8183,    2.2073,    2.8263,    3.4169,    3.9822,    3.8037,    3.3150,    2.4554,    1.4587,    1.0794,    0.8931,  999.0000,  999.0000,  999.0000,    1.0177,    0.8147,    0.5751,    0.1839,   -0.2262,   -0.2682,   -0.2784,   -0.3196,   -0.3623,   -0.6096,   -0.8518,  999.0000,  999.0000,  999.0000,  999.0000,  999.0000,  999.0000,  999.0000,    1.3446,    1.3818,    1.4226,    1.4807,
  8-AUG-2000 14:06:09.00,  999.0000,  999.0000,  999.0000,  999.0000,  999.0000,  999.0000,  999.0000,  999.0000,  999.0000,  999.0000,  999.0000,  999.0000,  999.0000,  999.0000,  999.0000,  999.0000,  999.0000,  999.0000,  999.0000,  999.0000,  999.0000,  999.0000,  999.0000,  999.0000,    1.7793,    2.1835,    2.2615,    2.0947,    2.0268,    2.0240,    2.3958,  999.0000,  999.0000,    4.1127,    4.0351,    3.6818,    2.8003,    1.7235,    1.4406,    1.4060,    1.5771,    1.8018,    1.7158,    1.5642,    1.3851,    1.2015,    1.1869,    1.1935,    0.8787,    0.5362,    0.4020,    0.2782,   -0.2514,   -0.7741,  999.0000,  999.0000,  999.0000,  999.0000,  999.0000,  999.0000,  999.0000,    1.0822,    1.5397,    1.8817,    1.6784,
  8-AUG-2000 14:12:52.00,  999.0000,  999.0000,  999.0000,  999.0000,  999.0000,  999.0000,  999.0000,  999.0000,  999.0000,  999.0000,    1.5966,    1.3223,  999.0000,  999.0000,    0.4994,    0.5367,  999.0000,  999.0000,  999.0000,  999.0000,    3.0895,    3.3278,  999.0000,  999.0000,    2.1051,    2.3890,    2.3885,    2.1746,    1.8438,    1.4359,    1.7973,    2.5927,    3.2843,    3.9073,    3.7979,    3.3721,    2.6627,    1.9639,    1.6973,    1.5860,    1.5531,    1.5407,    1.3658,    1.1564,    0.8719,    0.5749,    0.2480,   -0.0827,   -0.4474,   -0.8150,   -1.0198,   -1.2164,   -0.6928,   -0.1521,    0.7351,    1.5651,  999.0000,  999.0000,  999.0000,    0.4027,    0.8990,    1.3285,    1.3570,    1.3894,    1.4404,
  8-AUG-2000 14:19:35.00,  999.0000,  999.0000,  999.0000,  999.0000,  999.0000,  999.0000,  999.0000,  999.0000,  999.0000,  999.0000,  999.0000,  999.0000,  999.0000,  999.0000,  999.0000,  999.0000,  999.0000,  999.0000,  999.0000,  999.0000,  999.0000,  999.0000,  999.0000,  999.0000,  999.0000,  999.0000,  999.0000,  999.0000,  999.0000,  999.0000,  999.0000,  999.0000,  999.0000,  999.0000,  999.0000,  999.0000,  999.0000,  999.0000,  999.0000,  999.0000,  999.0000,  999.0000,  999.0000,  999.0000,  999.0000,  999.0000,  999.0000,  999.0000,  999.0000,  999.0000,  999.0000,  999.0000,  999.0000,  999.0000,  999.0000,  999.0000,  999.0000,  999.0000,  999.0000,  999.0000,  999.0000,  999.0000,  999.0000,  999.0000,  999.0000,
  8-AUG-2000 14:26:13.00,    2.0308,    2.2442,    0.9978,    0.0298,    0.1322,    0.3304,    0.8351,    1.0298,    0.3861,   -0.1243,  999.0000,  999.0000,  999.0000,  999.0000,   -1.1337,   -1.2885,   -1.3719,   -1.0281,   -0.1153,    0.5423,    0.9007,    1.0790,    1.0717,    1.3528,    0.3254,    0.7465,    1.0549,    1.4950,    1.8239,    2.0797,    2.1918,  999.0000,    6.2402,    6.7832,  999.0000,  999.0000,  999.0000,    1.9851,    1.8178,    1.6282,    1.8357,    2.1464,    2.3198,    2.4642,    2.4644,    2.4406,    1.9778,    1.4601,    0.9241,    0.3865,   -0.0184,   -0.6318,   -0.3611,   -0.1021,    0.6097,    1.2760,  999.0000,  999.0000,  999.0000,    0.6616,    1.0980,    1.4748,    1.4863,    1.5286,    2.0819,
  8-AUG-2000 14:32:56.00,   -0.3798,   -0.3966,   -0.8867,   -1.3097,  999.0000,  999.0000,   -1.8056,   -1.8007,   -1.3355,   -0.9976,  999.0000,  999.0000,  999.0000,  999.0000,   -0.7806,   -0.6667,   -0.4458,    0.4607,    2.2806,    3.5237,    4.0914,    4.6590,  999.0000,  999.0000,  999.0000,    2.5251,    2.3874,    2.3175,    2.0331,    1.6845,    1.7164,    1.9672,    2.2813,    2.6272,    2.1876,    1.4086,    0.5948,   -0.2318,   -0.4764,   -0.5390,   -0.2947,    0.0295,    0.1721,    0.2764,    0.1894,    0.0705,   -0.1486,   -0.3802,   -0.6787,   -0.9829,  999.0000,  999.0000,  999.0000,    0.1926,    0.0768,    0.1375,   -0.5294,   -0.6117,   -0.1914,    0.4850,    0.7967,    1.0985,  999.0000,  999.0000,  999.0000,
  8-AUG-2000 14:39:40.00,  999.0000,  999.0000,  999.0000,  999.0000,  999.0000,  999.0000,   -1.0196,   -1.1281,   -0.9979,   -0.8352,  999.0000,  999.0000,  999.0000,  999.0000,    0.3546,    0.5620,    0.7229,    1.1091,    1.7952,    2.4819,    3.1695,    3.5132,  999.0000,  999.0000,    3.4803,    3.2152,  999.0000,    2.5027,    2.1098,    1.7170,    1.9318,    2.6120,    3.0899,    3.3052,    2.8794,    2.1060,    1.3496,    0.6808,    0.6732,    0.8757,    1.2850,    1.7480,    1.8395,    1.8523,    1.9533,    2.0690,    1.9025,    1.7007,    1.0517,    0.3641,   -0.8637,   -2.1184,  999.0000,  999.0000,  999.0000,    2.3974,  999.0000,  999.0000,  999.0000,    0.6625,    1.2179,    1.6087,    1.0134,    0.6474,    1.3640,
  8-AUG-2000 14:46:22.00,  999.0000,  999.0000,  999.0000,  999.0000,  999.0000,  999.0000,  999.0000,  999.0000,  999.0000,  999.0000,  999.0000,  999.0000,  999.0000,  999.0000,  999.0000,  999.0000,  999.0000,  999.0000,    1.3088,    1.5312,  999.0000,  999.0000,    2.8961,    2.9792,  999.0000,  999.0000,  999.0000,    2.2584,    2.0671,    1.8236,    1.7230,  999.0000,  999.0000,  999.0000,  999.0000,  999.0000,  999.0000,    1.2687,    1.6793,    2.2632,    2.3762,    2.3669,    2.4852,    2.6306,    2.6191,    2.5816,    2.2072,    1.7908,    0.8685,   -0.0974,   -0.6843,   -1.2524,  999.0000,  999.0000,  999.0000,    4.8778,  999.0000,  999.0000,  999.0000,   -0.7068,    0.0763,    0.7192,    0.5217,    0.4564,    1.0153,
  8-AUG-2000 14:53:04.00,  999.0000,  999.0000,  999.0000,  999.0000,   -2.3972,   -2.5423,  999.0000,  999.0000,  999.0000,  999.0000,  999.0000,  999.0000,  999.0000,  999.0000,  999.0000,  999.0000,   -2.0005,   -1.9106,  999.0000,  999.0000,  999.0000,  999.0000,  999.0000,  999.0000,  999.0000,    0.5020,    0.7439,    1.3751,    0.9665,    0.1246,    0.1378,  999.0000,  999.0000,    1.6531,    1.8151,    1.8288,    1.4361,    0.8307,    0.8606,    1.0208,    1.4703,    2.0158,    2.1305,    2.1587,    1.9411,    1.6826,    1.6394,    1.7378,    1.1334,    0.5680,   -0.7590,   -1.8954,   -0.7954,    0.3187,  999.0000,  999.0000,  999.0000,  999.0000,  999.0000,   -0.9083,    0.3706,    1.4273,    1.1523,    1.0143,    1.5231,
  8-AUG-2000 14:59:49.00,  999.0000,  999.0000,  999.0000,  999.0000,  999.0000,  999.0000,  999.0000,  999.0000,  999.0000,  999.0000,  999.0000,  999.0000,  999.0000,  999.0000,  999.0000,  999.0000,    0.9941,    1.1356,  999.0000,  999.0000,    1.9695,    2.3497,    2.8354,    3.1930,  999.0000,   -1.4361,   -1.1622,  999.0000,  999.0000,  999.0000,  999.0000,  999.0000,  999.0000,  999.0000,  999.0000,  999.0000,  999.0000,    1.3957,    1.5512,  999.0000,  999.0000,    2.0631,    2.2232,    2.3787,    2.5923,    2.8155,  999.0000,  999.0000,  999.0000,    1.4318,  999.0000,  999.0000,  999.0000,  999.0000,  999.0000,  999.0000,  999.0000,  999.0000,  999.0000,  999.0000,  999.0000,  999.0000,  999.0000,  999.0000,  999.0000,
  8-AUG-2000 15:06:32.00,  999.0000,  999.0000,  999.0000,  999.0000,  999.0000,  999.0000,  999.0000,  999.0000,    1.2974,    1.3857,  999.0000,  999.0000,  999.0000,  999.0000,  999.0000,  999.0000,  999.0000,  999.0000,  999.0000,  999.0000,  999.0000,  999.0000,  999.0000,  999.0000,  999.0000,    1.7357,    2.0625,    2.3893,    2.0556,    1.2870,    1.5236,  999.0000,  999.0000,    4.0043,    4.1281,    3.9442,    3.5103,    2.9841,    2.6155,    2.2962,    2.2196,    2.2061,    1.9692,    1.6850,    1.5954,    1.5383,  999.0000,  999.0000,  999.0000,   -0.2480,   -0.1272,    0.1008,    0.3645,    0.6623,  999.0000,  999.0000,  999.0000,  999.0000,  999.0000,    0.1850,    0.6027,    1.0128,    1.3783,    1.6377,    1.3959,
  8-AUG-2000 15:13:15.00,  999.0000,  999.0000,  999.0000,  999.0000,  999.0000,  999.0000,  999.0000,  999.0000,  999.0000,  999.0000,  999.0000,  999.0000,  999.0000,  999.0000,  999.0000,  999.0000,  999.0000,  999.0000,  999.0000,  999.0000,  999.0000,  999.0000,  999.0000,  999.0000,  999.0000,    2.4868,    2.3083,    2.1797,    2.1961,    2.3382,    2.9059,    3.7185,    4.6136,    5.5501,    5.9109,    6.0231,    5.6939,    5.2015,    4.6562,    4.0942,    4.2346,    4.5575,    4.6331,    4.6564,    4.3312,    3.9480,    3.6965,    3.4615,    2.7308,    1.9573,  999.0000,  999.0000,  999.0000,    2.2975,    1.9820,    2.5443,  999.0000,  999.0000,  999.0000,    1.0366,    1.3781,    1.8009,    2.5315,    2.9273,    1.7425,
  8-AUG-2000 15:19:57.00,  999.0000,  999.0000,  999.0000,  999.0000,  999.0000,  999.0000,  999.0000,  999.0000,   -0.5953,   -0.5263,  999.0000,  999.0000,  999.0000,  999.0000,  999.0000,  999.0000,  999.0000,  999.0000,  999.0000,  999.0000,  999.0000,  999.0000,  999.0000,  999.0000,  999.0000,  999.0000,  999.0000,    2.5849,    2.5806,    2.7349,    3.2925,    4.1758,    4.8830,    5.5021,    5.6524,    5.6682,    5.5767,    5.2625,    4.6019,    3.7932,    4.0226,    4.5220,    4.5770,    4.5380,    4.6139,    4.7089,    4.7240,    4.7291,    3.7511,    2.6885,    3.0011,    3.2229,    3.3157,    3.2444,  999.0000,  999.0000,  999.0000,  999.0000,  999.0000,  999.0000,  999.0000,  999.0000,  999.0000,  999.0000,  999.0000,
  8-AUG-2000 15:26:46.00,  999.0000,  999.0000,  999.0000,  999.0000,  999.0000,  999.0000,    1.1536,    1.4784,    1.8032,    1.8636,    1.3120,    0.7827,  999.0000,  999.0000,   -0.6722,   -0.8258,  999.0000,  999.0000,    0.2231,    0.5425,    0.8263,    1.1050,  999.0000,  999.0000,  999.0000,    2.4471,    2.4752,    2.3716,    2.0074,    2.5164,    3.0742,    3.8897,    4.4175,    4.8014,    4.4824,  999.0000,  999.0000,    2.7531,    2.2719,    1.8098,    1.7795,    1.8614,    1.7142,    1.5186,    1.6885,    1.9193,    1.8063,    1.6504,    1.2700,    0.8702,  999.0000,  999.0000,  999.0000,  999.0000,  999.0000,  999.0000,  999.0000,   18.5349,  999.0000,  999.0000,  999.0000,  999.0000,  999.0000,  999.0000,  999.0000,
  8-AUG-2000 15:33:30.00,   -1.4580,   -1.3282,   -0.6407,   -0.2228,   -0.8416,   -1.2349,  999.0000,  999.0000,  999.0000,  999.0000,    0.4035,    0.6166,    0.6005,    0.4850,  999.0000,  999.0000,   -0.3796,   -0.4844,  999.0000,  999.0000,  999.0000,  999.0000,  999.0000,  999.0000,  999.0000,  999.0000,  999.0000,   -0.1305,    0.0813,    0.3522,    1.1987,    2.3764,    3.2494,    3.9700,    3.7611,    3.1506,    2.9402,    2.8776,    3.0805,    3.3665,    3.4863,    3.5628,    3.3600,    3.0980,    2.9880,    2.9033,    2.6960,    2.4735,    2.2473,    2.0209,  999.0000,  999.0000,  999.0000,  999.0000,  999.0000,  999.0000,  999.0000,  999.0000,  999.0000,  999.0000,  999.0000,  999.0000,  999.0000,  999.0000,  999.0000,
  8-AUG-2000 15:40:12.00,   -0.7346,   -0.8912,  999.0000,  999.0000,   -0.7178,   -0.4905,    0.2790,    1.0007,    1.5932,    1.8705,    1.4185,    1.0957,    1.0314,    0.8434,  999.0000,  999.0000,  999.0000,  999.0000,  999.0000,  999.0000,   -1.9753,   -2.0796,  999.0000,  999.0000,  999.0000,    2.2278,    1.3139,    0.4001,    0.2677,    0.6499,    1.4861,    2.4903,    2.9669,    2.7178,    2.6723,    2.5261,    2.1577,    1.7071,    1.5573,    1.5015,    1.5936,    1.7242,    1.5405,    1.4266,    1.3338,    1.6958,    1.4708,    1.2223,    0.8329,    0.4314,    0.5703,    0.7361,  999.0000,  999.0000,  999.0000,   25.8793,  999.0000,  999.0000,  999.0000,  999.0000,  999.0000,  999.0000,  999.0000,  999.0000,  999.0000,
  8-AUG-2000 15:46:54.00,   -0.4678,   -0.3782,   -0.3841,   -0.3712,   -0.2864,   -0.1351,  999.0000,  999.0000,    0.9555,    1.3833,  999.0000,  999.0000,  999.0000,  999.0000,  999.0000,  999.0000,  999.0000,  999.0000,    6.5735,    6.5498,    5.8227,    4.1675,  999.0000,  999.0000,  999.0000,  999.0000,   -8.8940,   -8.9352,  999.0000,  999.0000,  999.0000,  999.0000,   -0.1186,   -0.0873,    0.4377,    1.2487,    1.3685,    1.3427,    2.1168,    3.1409,    3.9738,    4.7570,  999.0000,  999.0000,  999.0000,    6.8425,    6.8520,    6.7895,    5.4628,    4.0271,    4.0463,    4.1381,    3.8905,    3.5171,    3.8983,    4.1996,    2.9084,    1.7654,    2.2289,    2.7936,  999.0000,  999.0000,  999.0000,    2.8966,    2.8544,
  8-AUG-2000 15:53:37.00,  999.0000,  999.0000,  999.0000,  999.0000,   -0.2252,   -0.0470,  999.0000,  999.0000,    0.7759,    1.0769,    1.4397,    1.6671,  999.0000,  999.0000,  999.0000,  999.0000,  999.0000,  999.0000,  999.0000,  999.0000,  999.0000,  999.0000,  999.0000,  999.0000,    1.1020,    2.8856,    1.9286,    1.0029,    1.3850,    2.6242,    3.1653,    3.6625,  999.0000,  999.0000,  999.0000,    4.0372,    3.8758,    3.6140,    3.9727,    4.5254,    5.1586,    5.8128,    5.3506,    4.6523,    4.9521,    5.4183,    5.4045,    5.3308,    4.1568,    2.8879,    2.7963,    2.7635,  999.0000,  999.0000,  999.0000,  999.0000,  999.0000,  999.0000,  999.0000,  999.0000,  999.0000,  999.0000,  999.0000,  999.0000,  999.0000,
  8-AUG-2000 16:00:19.00,   -1.4214,   -1.1117,   -1.8548,   -2.2625,   -1.3804,   -0.7266,  999.0000,  999.0000,  999.0000,  999.0000,   -1.1094,   -0.6003,  999.0000,  999.0000,    4.4380,    5.2079,    4.5964,    4.3594,    4.6212,    4.6493,    4.4035,    4.0742,  999.0000,  999.0000,    2.8278,    2.6845,  999.0000,    2.1301,    2.0512,    1.9661,    1.8612,    1.8814,    2.3166,    2.8509,    2.8009,    2.6245,    2.1914,    1.5403,    1.9228,    2.5681,    3.0413,    3.4697,    3.2251,    2.8382,    3.1500,    3.5783,    4.2567,    4.9665,    4.2940,    3.5025,    3.2985,    3.1238,    2.9206,    2.6608,    3.8012,    4.8679,    4.4642,    3.8170,  999.0000,  999.0000,  999.0000,  999.0000,  999.0000,    3.4717,    3.1304,
  8-AUG-2000 16:07:02.00,  999.0000,  999.0000,  999.0000,  999.0000,  999.0000,  999.0000,   -0.3170,   -0.2619,  999.0000,  999.0000,   -1.1243,   -1.0305,   -0.1747,    0.2841,    0.0530,   -0.0231,  999.0000,  999.0000,  999.0000,  999.0000,    0.7742,    1.1303,  999.0000,  999.0000,    1.4703,    2.3520,    2.6772,    2.5849,    2.4141,    2.1148,    2.0432,  999.0000,  999.0000,    2.0290,    1.7463,  999.0000,  999.0000,    0.6064,    0.9898,    1.6106,    1.9690,    2.2593,    1.9975,    1.6190,    2.0636,    2.6454,    3.4569,    4.2972,    3.9389,    3.2764,    2.9195,    2.5779,  999.0000,  999.0000,  999.0000,  999.0000,  999.0000,    1.3110,    2.3334,    3.2248,  999.0000,  999.0000,  999.0000,    2.6426,    2.0906,
  8-AUG-2000 16:13:44.00,  999.0000,  999.0000,  999.0000,  999.0000,  999.0000,  999.0000,  999.0000,  999.0000,  999.0000,  999.0000,   -1.2262,   -0.9629,  999.0000,  999.0000,    1.0208,    1.6879,  999.0000,  999.0000,    3.7155,    4.0275,  999.0000,  999.0000,    3.6852,    3.6368,    2.8975,    3.5717,    3.9044,    4.0812,    4.1801,  999.0000,    3.7162,    4.0003,    3.7738,    3.9334,    3.5876,    3.2041,    2.8676,    2.5484,    2.7757,    3.1737,    3.9000,    4.7116,    4.3432,    3.7252,    4.6541,    5.8408,    4.7148,    3.2998,  999.0000,  999.0000,  999.0000,  999.0000,  999.0000,  999.0000,  999.0000,  999.0000,  999.0000,  999.0000,  999.0000,  999.0000,  999.0000,  999.0000,  999.0000,  999.0000,    1.6078,
  8-AUG-2000 16:20:26.00,   -2.8485,   -2.0534,  999.0000,  999.0000,   -0.2804,    0.0814,   -0.2902,   -0.2116,    1.0846,    1.8924,  999.0000,  999.0000,  999.0000,  999.0000,    0.2807,    0.3245,    0.9243,    1.4633,    1.9212,    2.6829,    3.8006,    4.4588,  999.0000,  999.0000,    5.0118,    4.0214,    4.2231,    4.3490,    4.5081,    4.6892,    4.9546,    6.1007,  999.0000,    5.8962,    5.6974,    5.2772,    4.8781,    4.4867,    4.9210,    5.6133,    5.8859,    6.0495,    5.4140,    4.6094,    4.6503,    4.8321,    4.6474,    4.4170,    4.0028,    3.5404,    3.3793,    3.1119,    2.3944,    1.5575,    1.3017,    0.9735,    1.5495,    2.0837,    2.1325,    2.1399,    1.8156,    1.6101,    2.1164,    2.4728,    2.1220,
  8-AUG-2000 16:27:10.00,   -2.1188,   -0.6917,  999.0000,  999.0000,  999.0000,  999.0000,  999.0000,  999.0000,    1.8197,    1.8474,    1.1086,    0.5779,  999.0000,  999.0000,  999.0000,  999.0000,  999.0000,  999.0000,   -0.2260,    0.1776,    1.1885,    2.0301,  999.0000,  999.0000,    2.7419,    3.4112,    3.3471,    2.7333,    2.2918,    1.9637,    1.8411,  999.0000,  999.0000,    1.7801,    1.8089,    1.8645,    2.0126,    2.1950,    2.9182,    3.8104,    4.2142,    4.4909,    4.3441,    3.8783,    4.0018,    4.1494,    3.9454,    3.6872,  999.0000,  999.0000,  999.0000,  999.0000,  999.0000,  999.0000,  999.0000,  999.0000,  999.0000,  999.0000,  999.0000,  999.0000,  999.0000,  999.0000,  999.0000,  999.0000,  999.0000,
  8-AUG-2000 16:33:52.00,   -1.9810,   -0.6310,   -0.9133,   -1.0093,   -0.3890,   -0.0325,   -0.5197,   -0.7762,   -0.4090,   -0.0515,  999.0000,  999.0000,    0.9535,    1.2768,    1.5796,    1.7599,    1.7540,    1.5324,    1.0233,    0.7411,  999.0000,  999.0000,  999.0000,  999.0000,  999.0000,    3.2277,    2.6614,    2.0218,    1.4887,    1.0257,    0.7546,    0.5938,    0.3047,   -0.0485,    0.0245,    0.2817,    0.9439,    1.7558,    2.5651,    3.3736,    3.0913,    2.7246,  999.0000,  999.0000,  999.0000,    3.9633,    3.8099,    3.3243,    3.0597,    2.4952,  999.0000,  999.0000,  999.0000,   -0.0012,  999.0000,  999.0000,  999.0000,  999.0000,  999.0000,  999.0000,  999.0000,  999.0000,  999.0000,  999.0000,  999.0000,
  8-AUG-2000 16:40:35.00,  999.0000,  999.0000,  999.0000,   -1.8331,   -1.2143,   -0.7474,   -0.7664,   -0.6464,   -0.1505,    0.1930,  999.0000,  999.0000,  999.0000,  999.0000,  999.0000,  999.0000,    0.1290,    0.4697,  999.0000,  999.0000,    2.8902,    3.5745,  999.0000,  999.0000,    4.3530,    4.8849,    4.5035,    3.5186,    2.9244,    2.5086,    2.3064,    2.2271,    2.1355,    2.0377,    1.6163,    1.0550,    1.3190,    1.8881,    2.7414,    3.6835,  999.0000,  999.0000,  999.0000,  999.0000,  999.0000,  999.0000,  999.0000,    3.0224,    4.3607,  999.0000,  999.0000,  999.0000,  999.0000,  999.0000,    4.0002,  999.0000,  999.0000,  999.0000,  999.0000,  999.0000,  999.0000,  999.0000,  999.0000,  999.0000,  999.0000,
  8-AUG-2000 16:47:18.00,  999.0000,  999.0000,  999.0000,   -2.6381,   -1.4970,   -0.5378,   -0.1604,    0.1223,    0.1486,    0.1339,  999.0000,  999.0000,   -0.1953,   -0.3360,   -0.5305,   -0.4469,    0.0593,    0.5378,  999.0000,  999.0000,  999.0000,  999.0000,    2.7469,    2.9065,    2.8100,    2.3467,    1.5904,    1.9283,    1.5683,    1.2590,    1.4505,    1.9303,    1.7606,    1.2661,    0.7882,    0.3176,    0.5224,    0.9769,    1.6449,    2.3798,    2.8899,    3.3415,    3.8905,    4.4600,    4.7045,    5.0461,    5.5847,    6.2228,    5.6285,    4.9373,    3.9014,    2.8483,    2.4515,    2.0782,    2.5054,    2.9038,    2.7270,    2.5600,    2.2704,    2.3104,    2.5032,    2.5958,    2.0236,    1.4038,    0.2505,
  8-AUG-2000 16:54:00.00,  999.0000,   -4.3041,   -3.7730,   -3.2287,   -2.6333,   -2.0835,   -1.6798,   -1.3332,   -1.1416,   -0.8415,  999.0000,  999.0000,  999.0000,  999.0000,    1.9137,    1.9962,    1.3671,    0.7813,    0.2532,    0.4756,    1.5772,    2.0119,  999.0000,  999.0000,  999.0000,    2.9148,    1.9713,    1.0117,    0.5871,    0.5146,    1.0711,    1.9893,    2.4287,    2.6284,    2.5248,    2.2901,    2.6793,    3.2993,    4.0514,    4.8449,    5.5752,    6.2891,    5.7573,    4.9619,  999.0000,  999.0000,  999.0000,    6.2288,    5.7960,    5.0366,    4.9968,    4.6354,    3.8240,    2.7956,    3.5163,    4.2109,    4.3851,    4.5089,  999.0000,  999.0000,  999.0000,    2.7748,    3.0772,    3.1994,  999.0000,
  8-AUG-2000 17:00:43.00,  999.0000,  999.0000,  999.0000,   -5.7308,  999.0000,  999.0000,  999.0000,  999.0000,  999.0000,  999.0000,  999.0000,  999.0000,   -1.1199,   -0.8489,  999.0000,  999.0000,   -1.2944,   -1.4056,   -1.4670,   -1.2933,   -0.8442,   -0.1524,    0.7897,    1.1998,    0.4351,    0.9630,    1.2055,    1.3312,    1.3020,    1.1707,    1.8657,    3.0362,    3.7846,    4.3275,    4.3236,    3.9765,    3.9774,    4.0891,    4.0914,    4.0730,    4.2920,    4.6963,    4.2864,    3.8485,    2.3073,  999.0000,  999.0000,  999.0000,  999.0000,    2.6160,  999.0000,  999.0000,  999.0000,    1.5363,    0.9260,    0.3443,    0.3337,    0.3496,  999.0000,  999.0000,  999.0000,    1.5303,    1.2795,    0.9590,    0.3097,
  8-AUG-2000 17:07:25.00,  999.0000,   -1.7634,  999.0000,  999.0000,  999.0000,  999.0000,    0.0969,    0.2957,  999.0000,  999.0000,   -0.5140,   -0.6078,  999.0000,  999.0000,    0.1668,    0.8040,    2.0167,    2.9011,  999.0000,  999.0000,    4.2419,    4.3899,  999.0000,  999.0000,    3.9094,    2.6148,    2.8652,    3.0736,    3.1738,    3.2026,    3.4780,    3.6633,    3.6525,  999.0000,  999.0000,    3.3317,    3.4426,    3.4159,    3.8470,  999.0000,  999.0000,    5.1518,  999.0000,  999.0000,  999.0000,  999.0000,  999.0000,  999.0000,  999.0000,    4.3785,    4.3995,    4.4309,    4.0227,    3.4117,    3.7248,    4.0049,    3.6251,    3.2815,    3.3573,    3.4117,    3.2944,    3.1308,    2.6907,    1.8918,    0.6807,
  8-AUG-2000 17:14:08.00,  999.0000,  999.0000,  999.0000,  999.0000,  999.0000,  999.0000,  999.0000,  999.0000,    1.1335,    1.1137,    0.8256,    0.5983,    0.4930,    0.3011,   -0.0412,    0.1020,    0.9827,    1.4017,    1.2057,    1.2138,  999.0000,  999.0000,  999.0000,  999.0000,    1.6453,    2.8816,    3.1348,    2.7945,    2.7962,    2.8729,    3.1525,  999.0000,  999.0000,  999.0000,  999.0000,    5.1001,    5.1175,  999.0000,  999.0000,    4.7781,    4.5637,    4.3057,    3.4920,    2.5608,    2.6361,    2.8792,    3.5655,    4.3072,    3.6454,    2.8627,    2.6839,    2.5352,  999.0000,  999.0000,  999.0000,  999.0000,  999.0000,  999.0000,  999.0000,  999.0000,  999.0000,  999.0000,  999.0000,    0.7578,   -0.0032,
  8-AUG-2000 17:20:51.00,  999.0000,  999.0000,  999.0000,  999.0000,  999.0000,  999.0000,   -2.6080,   -2.5854,  999.0000,  999.0000,  999.0000,  999.0000,    0.3526,    0.7694,    0.8894,    1.2620,    2.0183,    2.4133,    2.3270,    2.4988,    2.9727,    3.2127,    3.2112,    3.1553,   -2.1870,    2.8406,    2.5480,    1.9924,    1.2521,    1.2467,    1.6929,   -0.1395,    0.3370,    1.8757,    1.2408,    1.2739,    1.5738,    2.7587,    3.3482,    3.9719,    4.2868,    4.5213,    4.2281,    3.8232,    4.1810,    4.6658,    5.0678,    5.4595,    5.3756,    5.2507,    4.4108,    3.5351,    3.4060,    3.2891,    3.0635,    2.9590,    2.2944,    1.8502,    2.5016,    3.2467,    2.5954,    2.8292,    2.7722,    2.6171,    1.9979,
  8-AUG-2000 17:27:33.00,  999.0000,  999.0000,  999.0000,  999.0000,  999.0000,  999.0000,  999.0000,  999.0000,  999.0000,  999.0000,  999.0000,  999.0000,  999.0000,  999.0000,  999.0000,  999.0000,  999.0000,  999.0000,  999.0000,  999.0000,  999.0000,  999.0000,  999.0000,  999.0000,  999.0000,  999.0000,   -1.4222,   -0.5028,   -0.8962,   -0.7247,   -0.4397,    0.1486,    0.8969,    1.7252,    2.0180,    2.0796,    2.3468,    2.6901,    3.1285,    3.5967,    3.8975,    4.1547,    3.8774,    3.4871,    4.3903,    5.5091,    6.1973,    6.8317,    6.8398,    6.7940,    5.4213,    3.9824,    4.6236,    5.2781,   -0.0090,    0.0700,    0.1504,    3.1603,    0.3265,    0.1583,   -0.0043,    7.6093,    5.1210,    2.6900,    1.7525,
  8-AUG-2000 17:34:18.00,  999.0000,  999.0000,  999.0000,  999.0000,  999.0000,  999.0000,  999.0000,  999.0000,  999.0000,  999.0000,  999.0000,  999.0000,  999.0000,  999.0000,  999.0000,  999.0000,  999.0000,  999.0000,  999.0000,  999.0000,  999.0000,  999.0000,  999.0000,  999.0000,  999.0000,  999.0000,  999.0000,  999.0000,  999.0000,    3.5179,    3.4202,    3.8362,    4.1992,    4.5190,    4.3019,    3.7227,    3.5887,    3.6192,    3.5721,    3.5005,    3.4246,    3.3475,    4.1658,    5.1734,    4.8251,    4.2507,    5.1653,    6.2659,    6.4890,    6.6365,    5.8981,    5.1155,    5.1162,    5.1208,    4.5906,    4.0984,   -0.4410,  999.0000,  999.0000,    5.1707,  999.0000,  999.0000,  999.0000,   -0.1061,   -0.6175,
  8-AUG-2000 17:41:04.00,  999.0000,  999.0000,  999.0000,  999.0000,  999.0000,  999.0000,  999.0000,  999.0000,  999.0000,  999.0000,  999.0000,  999.0000,  999.0000,  999.0000,  999.0000,  999.0000,  999.0000,  999.0000,    9.4810,    8.4577,  999.0000,  999.0000,  999.0000,  999.0000,  999.0000,  999.0000,    1.2945,    4.7402,    2.4982,    0.2355,   -0.0670,  999.0000,  999.0000,    2.4687,    2.4613,    2.1202,    2.0619,    2.1080,    2.1039,    2.0841,    1.7106,    1.5294,    1.5140,    1.6340,    2.9809,    4.5581,    5.1621,    5.6445,    5.2606,    4.8020,    4.7771,    4.7739,    4.6971,    4.6191,    4.5346,    4.4352,    4.0349,    3.6713,   -0.1653,  999.0000,  999.0000,    3.7399,    1.7035,   -0.0258,   -0.7632,
  8-AUG-2000 17:47:48.00,  999.0000,  999.0000,  999.0000,   -4.8484,  999.0000,  999.0000,  999.0000,  999.0000,  999.0000,  999.0000,  999.0000,  999.0000,    6.2192,    6.8772,  999.0000,  999.0000,  999.0000,  999.0000,  999.0000,  999.0000,  999.0000,  999.0000,  999.0000,  999.0000,  999.0000,  999.0000,  999.0000,  999.0000,    1.8438,    1.7170,    1.7185,    1.9509,  999.0000,    3.3026,    3.2929,    3.2591,    3.4405,    3.7014,    3.9976,    4.3048,    3.9512,  999.0000,  999.0000,    3.3784,    4.2306,    5.2694,    6.0095,    6.7908,    7.0279,    7.3102,    7.2466,    7.2426,    5.6629,    4.1664,    4.4753,    4.7462,    4.2605,    3.7933,    3.5405,    3.3357,    3.5151,    3.4656,  999.0000,  999.0000,  999.0000,
  8-AUG-2000 17:55:49.00,   -0.7135,   -1.0364,   -2.1731,   -2.9313,  999.0000,  999.0000,   -0.8400,   -0.2403,    0.0962,    0.3731,    0.5120,    0.4671,    0.0545,   -0.3030,   -0.5648,   -0.5514,   -0.1198,    0.2515,    0.5426,    0.6626,  999.0000,  999.0000,    0.4213,    0.8215,    0.8565,    2.0032,    2.8196,    3.3881,    3.3936,    3.0283,    2.9774,    3.2193,    3.4619,    3.6632,    3.4435,    2.9959,    3.1519,    3.5310,    3.6226,    3.6245,  999.0000,  999.0000,  999.0000,  999.0000,    7.2050,    7.5851,    7.9684,    7.9173,  999.0000,  999.0000,  999.0000,    8.3672,  999.0000,  999.0000,  999.0000,  999.0000,  999.0000,  999.0000,  999.0000,  999.0000,  999.0000,  999.0000,  999.0000,  999.0000,   -0.4975,
  8-AUG-2000 18:02:35.00,   -0.0898,    0.5185,   -0.1398,   -0.6789,   -0.7593,   -0.8872,  999.0000,  999.0000,   -1.7254,   -2.0252,  999.0000,  999.0000,   -3.0653,   -2.9931,   -2.1929,   -1.6145,   -1.3731,   -1.0828,   -0.7273,   -0.2728,    0.2977,    0.7631,  999.0000,  999.0000,    0.5767,    1.2129,    1.9087,    2.6493,    2.8930,    2.8098,    3.0653,  999.0000,  999.0000,    4.3597,    4.3444,    4.1427,    4.1125,    4.1457,    4.2957,    4.4822,    4.3074,    4.0388,    4.2863,    4.6430,    5.8830,    7.2701,    7.4520,    7.4833,    7.2949,    7.0875,    7.4075,    7.7539,    7.1100,    6.4470,    5.5924,    4.7662,    4.5079,    4.1870,    3.1417,    2.1480,    1.5673,    0.8867,   -0.3928,   -1.5752,   -2.2996,
  8-AUG-2000 18:09:19.00,  999.0000,  999.0000,  999.0000,   -1.0661,   -2.0741,   -2.7419,   -2.3221,   -2.0430,  999.0000,  999.0000,  999.0000,  999.0000,   -2.5501,   -2.4814,   -2.1172,   -1.4538,   -0.3361,    0.6147,    1.3432,    1.7902,    1.9072,    2.1949,  999.0000,  999.0000,    2.0661,    3.8477,    4.4969,    4.5278,    4.3919,    4.2217,    4.5639,    5.2508,    5.7883,    6.2510,    6.0967,    5.6759,    5.3600,    5.0828,    4.9827,    4.9379,    4.6246,    4.2414,    3.9427,    3.6619,    4.5798,    5.6974,    6.1341,    6.4858,    6.2281,    5.9615,    5.5836,    5.2482,    4.6728,    4.0855,    3.0042,    2.0000,    2.5364,    2.9705,    2.2208,    1.5619,    1.6290,    1.5645,    0.8052,   -0.0080,   -0.6219,
  8-AUG-2000 18:16:02.00,  999.0000,  999.0000,  999.0000,   -2.3226,   -2.5683,   -2.7199,  999.0000,  999.0000,  999.0000,  999.0000,  999.0000,  999.0000,   -1.6729,   -1.3866,   -0.8629,   -0.3181,  999.0000,  999.0000,  999.0000,  999.0000,    2.5663,    2.8340,  999.0000,  999.0000,  999.0000,    3.6590,    3.3799,    3.0916,    3.1000,    3.1101,    3.4919,    3.8738,  999.0000,  999.0000,  999.0000,  999.0000,  999.0000,  999.0000,  999.0000,  999.0000,  999.0000,  999.0000,  999.0000,  999.0000,  999.0000,  999.0000,  999.0000,  999.0000,  999.0000,    6.6523,  999.0000,  999.0000,  999.0000,  999.0000,  999.0000,  999.0000,  999.0000,  999.0000,  999.0000,  999.0000,  999.0000,  999.0000,  999.0000,  999.0000,  999.0000,
  8-AUG-2000 18:22:46.00,   -0.9473,   -1.0244,   -1.6798,   -2.1153,   -1.7057,   -1.3588,  999.0000,  999.0000,  999.0000,  999.0000,  999.0000,  999.0000,  999.0000,  999.0000,  999.0000,  999.0000,    0.2504,    0.4346,  999.0000,  999.0000,  999.0000,  999.0000,    1.6074,    1.6063,    1.3169,    1.8533,    2.2621,    2.5752,    2.9857,    3.4602,    3.9878,    4.5460,    5.4764,    6.5930,    6.7308,    6.4458,    6.5642,    6.8316,    6.8149,    6.7093,    6.6386,    6.5770,    6.4333,    6.2722,    6.4363,    6.6545,    7.0764,    7.5237,    7.1497,    6.7049,    6.1113,    5.5102,    4.6104,    3.7199,    3.6982,    3.6142,    2.2858,    1.1110,    1.7151,    2.1250,    0.9842,   -0.0940,  999.0000,  999.0000,  999.0000,
  8-AUG-2000 18:29:29.00,  999.0000,    1.0383,  999.0000,  999.0000,  999.0000,  999.0000,   -0.7270,   -1.0487,  999.0000,  999.0000,   -1.7597,   -1.9206,   -1.9294,   -1.7666,   -1.3058,   -0.9182,   -0.6417,   -0.2422,    0.3210,    0.6228,    0.6184,    0.8517,    1.3301,    1.5884,    0.6863,    1.4456,    1.9257,    2.1965,    2.6382,    3.1925,    3.9109,    4.7411,    5.5435,    6.3427,    6.1493,    5.5228,    5.0387,    4.6073,    4.4204,    4.3099,    4.3909,    4.5218,    4.3448,    4.1026,    4.3626,    4.7063,    5.7500,    6.8812,    6.7682,    6.5480,    5.5868,    4.5886,    4.0491,    3.5235,    3.4000,    3.2532,    2.6386,    2.1148,    2.6415,    3.0081,    2.0945,    1.2100,    0.4531,   -0.2169,   -0.6368,
  8-AUG-2000 18:36:13.00,    0.0225,   -0.2035,   -0.9232,   -1.4800,  999.0000,  999.0000,  999.0000,  999.0000,   -1.1313,   -0.9972,  999.0000,  999.0000,   -0.1480,    0.2988,    1.0303,    1.5933,    1.9005,    2.1240,  999.0000,  999.0000,    2.4598,    2.5789,  999.0000,  999.0000,    2.5866,    2.7583,    2.9108,    3.0488,    3.3468,    3.7502,    4.3276,    3.7294,  999.0000,    6.3426,    6.1962,    5.8710,    5.1481,    4.3051,    4.0951,    4.0829,    3.9032,    3.6799,    3.6099,    3.5722,    4.1373,    4.8029,    5.1916,    5.5456,    5.8681,    6.1880,    5.4466,    4.6523,    4.1580,    3.6805,    3.9312,    4.2070,    3.8476,    3.5557,    4.0442,    4.3460,    3.1560,    2.0007,  999.0000,  999.0000,  999.0000,
  8-AUG-2000 18:42:59.00,    0.5166,    0.0647,  999.0000,  999.0000,   -1.2476,   -1.5606,   -1.4757,   -1.3782,   -1.2466,   -1.1509,  999.0000,  999.0000,   -1.1136,   -0.8139,   -0.0152,    0.5722,    0.8384,    1.1193,  999.0000,  999.0000,  999.0000,  999.0000,  999.0000,  999.0000,    1.3014,    2.0225,    2.7986,    3.6158,    4.1418,    4.4760,    4.9218,    5.4180,    5.8927,  999.0000,    6.9058,    7.0064,    6.7496,    6.2834,    5.9544,    5.6682,    5.0748,    4.4015,    4.3815,    4.4999,    4.8399,    5.2168,    5.6414,    5.9536,    6.5462,    7.1789,    6.2118,    5.1623,    4.5981,    4.0440,  999.0000,  999.0000,  999.0000,  999.0000,  999.0000,  999.0000,    2.1387,  999.0000,  999.0000,   -0.1313,  999.0000,
  8-AUG-2000 18:49:42.00,    1.1111,    1.1987,    0.5111,   -0.0368,  999.0000,  999.0000,   -0.0697,   -0.1141,   -0.2487,   -0.3038,   -0.1751,   -0.0771,   -0.0405,    0.2718,    1.0632,    1.5678,  999.0000,  999.0000,    1.7740,    1.8084,    1.8026,    1.8162,    1.8498,    1.9065,    0.7162,    1.6114,    2.3208,    2.8907,    3.4042,    3.8806,    4.4510,  999.0000,  999.0000,    6.3029,    6.1669,    5.7080,    5.5090,    5.4060,    5.0742,    4.6709,    4.4198,    4.2083,    4.4430,    4.7721,    5.0709,    5.3647,  999.0000,  999.0000,    6.7467,    6.2205,    5.7182,    5.1848,    4.3779,    3.5757,    3.3324,    3.1225,    3.5767,    4.0057,    4.1425,    4.1382,    3.0070,    1.9230,    1.1226,    0.4610,    0.4545,
  8-AUG-2000 18:56:26.00,    0.8935,    0.4041,   -0.0684,   -0.5349,   -0.9782,   -1.2789,   -1.1239,   -0.8720,   -0.3586,    0.3156,    1.3616,    2.0197,    1.9027,    1.6964,    1.3351,    1.0879,  999.0000,  999.0000,    0.8662,    0.7489,    0.5807,    0.5363,    0.6197,    0.5260,    0.5405,    0.2993,    0.6810,    1.5302,    2.2548,    2.8974,    3.7024,    4.5175,    5.3441,    6.2418,    6.2848,    5.8762,    5.4177,    5.1173,    5.0387,    4.9626,    4.5916,    4.1991,    4.9365,    5.9350,    6.3730,    6.7175,    6.9957,    7.2656,    6.3214,    5.2726,    4.4404,    3.6190,    3.2864,    3.0303,    3.5237,    3.8546,    4.0078,    4.1189,    3.7420,    3.2924,    2.2621,    1.3085,    0.8147,    0.3660,    0.1299,
  8-AUG-2000 19:03:09.00,   -0.6786,   -1.3188,   -1.5002,   -1.6275,   -1.5471,   -1.5065,  999.0000,  999.0000,   -1.7676,   -1.5384,   -0.5773,    0.1585,    0.4437,    0.6783,    0.8246,    1.0016,  999.0000,  999.0000,    1.6731,    2.0357,    2.5609,    2.5503,  999.0000,  999.0000,    1.1474,    0.6294,    0.8082,    1.3397,    2.0498,    2.8776,    3.6817,  999.0000,  999.0000,    6.1843,    6.4025,  999.0000,    5.7184,    6.2132,    6.0000,  999.0000,  999.0000,    5.2507,    5.6169,    6.1119,    6.3287,    6.4992,    6.4444,    6.3615,    6.1398,    5.9062,    5.5627,    5.2138,  999.0000,  999.0000,  999.0000,    2.7390,    2.5919,    2.4496,    2.3619,    2.2399,    1.8431,    1.3544,    0.3149,   -0.6134,   -1.0164,
  8-AUG-2000 19:09:52.00,    2.1483,    1.7762,    0.7522,   -0.2525,   -1.1830,   -1.8116,  999.0000,  999.0000,   -0.8022,   -0.5308,  999.0000,  999.0000,   -0.1687,   -0.0473,    0.0756,    0.1602,    0.1865,    0.3929,    0.8391,    1.1471,    1.2934,    1.4815,    1.7126,    1.7920,  999.0000,    0.8078,    1.3066,    1.7946,    2.2758,    2.7524,    3.1311,    3.4534,    4.1302,    4.9843,    5.1656,  999.0000,  999.0000,    4.8368,    4.7748,    4.7277,    4.9726,    5.0763,    5.6480,    6.3188,    6.4498,    6.4908,    6.5539,    6.6198,    6.3304,    5.6074,    5.6117,    5.6296,    4.1663,    2.7084,    3.0506,    3.3958,    3.8007,    4.1140,    3.5670,    2.8024,    2.0714,    1.3136,    0.8016,    0.3183,   -0.0295,
  8-AUG-2000 19:16:34.00,    0.4346,    0.4124,    0.3334,    0.2106,  999.0000,  999.0000,   -0.6628,   -0.7640,   -0.3514,    0.0903,    0.5994,    0.8926,  999.0000,  999.0000,    0.4778,    0.6311,  999.0000,  999.0000,    2.4196,    2.9103,    3.2775,    3.5863,    3.8350,    3.9768,    2.3686,    2.5240,    2.6237,    2.6818,    3.0746,    3.6877,    4.2169,    4.5550,    4.8498,    5.2119,    5.0578,    4.7453,    4.4708,    4.2104,    4.2147,    4.3018,  999.0000,  999.0000,    4.2995,  999.0000,  999.0000,  999.0000,  999.0000,  999.0000,  999.0000,    4.5567,    4.3223,    4.0801,    3.4095,    2.7354,    2.2694,    1.8536,    2.4382,    2.9310,  999.0000,  999.0000,  999.0000,    0.5501,    0.5510,    0.5085,    0.2612,
  8-AUG-2000 19:23:16.00,  999.0000,  999.0000,  999.0000,  999.0000,   -1.0735,   -1.6523,   -2.0737,   -2.1937,  999.0000,  999.0000,   -0.1090,    0.4630,    0.7892,    1.0754,  999.0000,  999.0000,  999.0000,  999.0000,  999.0000,  999.0000,  999.0000,  999.0000,  999.0000,  999.0000,    0.8142,    1.1300,    1.8225,    2.7976,    3.7395,    4.6595,    5.1812,  999.0000,  999.0000,    6.0665,    5.8282,    5.3587,    5.1822,    5.1141,    5.5077,    6.0457,    6.4292,    6.7726,    7.7443,    8.8489,    9.3797,    9.8148,    9.8214,    9.7745,    9.2042,    8.5888,    8.0243,    7.4624,    6.2443,    5.0279,    4.5697,    4.1449,    4.3884,    4.5643,    3.9590,    3.2702,    1.9140,    0.6878,    0.2403,   -0.1263,   -0.1115,
  8-AUG-2000 19:29:58.00,  999.0000,   -0.7255,  999.0000,  999.0000,  999.0000,  999.0000,   -0.8035,   -0.6836,  999.0000,  999.0000,    0.7757,    1.0916,    1.0668,    1.2091,    1.6422,    1.9974,    2.2344,    2.4701,    2.7042,    2.9029,  999.0000,  999.0000,    3.3747,    3.4947,    2.8167,    2.9444,    3.4055,    4.0661,    4.2146,    4.0748,    4.1229,    4.2179,    4.3930,    4.5758,    4.6585,    4.6979,    4.8189,    4.9701,    5.4073,    5.9339,    6.0996,    6.1715,    6.5750,    7.0487,    7.6418,    8.2547,    8.8273,    9.3947,    8.4962,    7.4713,    7.2335,    7.0350,    6.0074,    4.9815,    5.0620,    4.9700,    4.2461,    3.5764,    3.5358,    3.4232,    2.7350,    2.0348,    1.2630,    0.5499,    0.1137,
  8-AUG-2000 19:36:41.00,  999.0000,  999.0000,  999.0000,   -0.6542,   -1.6476,   -2.3574,  999.0000,  999.0000,   -1.7671,   -1.5406,   -1.2451,   -0.8886,   -0.4102,    0.0324,    0.4127,    0.9842,    1.8459,    2.3494,    2.3757,    2.3367,  999.0000,  999.0000,  999.0000,  999.0000,    1.7588,    2.0960,    2.4292,    2.7768,    2.9913,  999.0000,    2.7939,    3.3721,    3.4267,    3.4452,    3.5220,    3.6240,    3.9117,    4.2682,    4.6213,    4.9734,    5.4906,    6.0508,    6.8490,    7.6976,    7.9984,    8.2080,    8.5404,    8.8882,    7.9143,    6.8265,    6.3213,    5.8452,    4.7644,    3.6859,  999.0000,  999.0000,  999.0000,  999.0000,  999.0000,  999.0000,    0.7384,  999.0000,  999.0000,  999.0000,  999.0000,
  8-AUG-2000 19:43:24.00,  999.0000,  999.0000,  999.0000,  999.0000,  999.0000,  999.0000,   -0.6905,   -0.7522,  999.0000,  999.0000,    0.1366,    0.3579,  999.0000,  999.0000,    0.5730,    0.6237,    0.6428,    0.7207,    0.8773,    0.9988,    1.0792,    1.2187,    1.4192,    1.4709,    1.7165,    1.4576,    1.3373,    1.3209,    1.7679,    2.6216,    3.6047,    4.0326,    4.5045,    4.8338,    5.1833,    5.5414,    5.2973,    4.8306,    5.1972,    5.8243,    5.5799,    5.1088,    5.3725,    5.5677,    5.8624,    6.2277,    6.4245,    6.5992,    6.3905,    6.1489,    5.6065,    5.0491,    4.7533,    4.4639,    4.3793,    4.2531,    3.8025,    3.1997,    2.5191,    1.8761,    1.5345,    1.1250,    0.3084,   -0.4249,   -0.7649,
  8-AUG-2000 19:50:11.00,  999.0000,   -1.0275,   -1.1241,   -1.2049,   -1.2254,   -1.2218,   -1.1414,   -0.9148,  999.0000,  999.0000,    0.9504,    1.1682,    0.5787,    0.2883,    0.5180,    0.7259,  999.0000,  999.0000,  999.0000,  999.0000,  999.0000,  999.0000,    1.9496,    1.9462,    1.2599,    1.4347,    1.6532,    1.8740,    2.1977,    2.5891,    2.9869,    3.3883,    3.2826,    2.9232,    2.8310,    2.8542,    3.0130,    3.2217,    3.7869,    4.4634,    4.9065,    5.2889,    6.0433,    6.7684,    7.5438,    7.1281,    7.0283,    6.8596,    7.3439,    7.8845,    7.6592,    7.3957,    6.5475,    5.5380,  999.0000,  999.0000,  999.0000,    2.6078,    2.6990,    2.7020,    2.0002,    1.3836,    1.2779,    1.0400,    0.1777,
  8-AUG-2000 19:56:56.00,  999.0000,  999.0000,  999.0000,  999.0000,  999.0000,  999.0000,   -1.7029,   -1.6554,   -1.2707,   -0.8083,   -0.1660,    0.2742,    0.3108,    0.3351,    0.3380,    0.3746,    0.4624,    0.7478,    1.2964,    1.6152,  999.0000,  999.0000,    1.7644,    1.8678,  999.0000,    1.9208,    2.1788,    2.4758,    2.7979,    3.1364,    3.3174,    3.4078,    3.6813,    4.0465,    4.2132,    4.2941,    4.6086,    4.7864,    5.4834,    6.4659,    7.1586,    7.8307,    7.8437,    7.7173,    7.4317,    7.1195,    6.8225,    6.5274,    6.8257,    7.1752,    7.0262,    6.8524,  999.0000,  999.0000,  999.0000,    5.4242,    4.6270,    3.8367,    3.1276,    2.4260,    1.7848,    1.1756,    0.7589,    0.3436,   -0.0649,
  8-AUG-2000 20:03:38.00,  999.0000,  999.0000,  999.0000,    0.8291,    1.0792,    1.2033,    0.9238,    0.5429,   -0.1125,   -0.6143,   -0.7606,   -0.7857,  999.0000,  999.0000,  999.0000,  999.0000,    0.2993,    0.7027,  999.0000,  999.0000,    2.6579,    3.2128,    3.6678,    3.9219,    2.6215,    2.4277,    2.6852,    3.2814,    3.6579,    3.9868,    3.9076,    3.6418,    4.0005,    4.6403,    4.9415,    4.8695,    5.1881,    5.9224,    6.3847,    6.3834,    6.8317,    7.2928,    7.1964,    6.9820,    6.7227,    6.2287,    6.3583,    6.4847,    7.0875,    7.7253,    7.9817,    8.2190,    7.9205,    7.6091,    7.0353,    6.4557,    5.7603,    5.0729,    4.4787,    3.8865,    3.3106,    2.7417,    2.2150,    1.6942,    1.2014,
  8-AUG-2000 20:10:21.00,  999.0000,  999.0000,  999.0000,  999.0000,   -0.4343,   -0.5740,   -0.2156,   -0.0933,   -0.6098,   -0.8863,  999.0000,  999.0000,   -0.0502,    0.2822,    0.7079,    1.1429,    1.5920,    1.8404,    1.8214,    1.8415,  999.0000,  999.0000,    2.0389,    1.9744,    2.4453,    2.1683,    2.5398,    3.3576,    3.6511,    4.6157,  999.0000,  999.0000,    3.3188,    3.2636,  999.0000,    2.8539,    3.0534,    3.3699,    3.6823,    3.9936,    4.4015,    4.8345,    4.7915,    4.6479,  999.0000,  999.0000,  999.0000,    5.1132,    5.3529,    5.6006,    6.6753,    7.7912,    7.5826,    7.3526,    7.1170,    6.8277,    6.0354,    5.2441,    4.4645,    3.6710,    2.7656,    1.9609,    1.7592,    1.5035,    0.9932,
  8-AUG-2000 20:17:03.00,  999.0000,  999.0000,  999.0000,   -0.9254,   -1.6422,   -2.1524,   -2.0018,   -1.7354,   -1.1560,   -0.7864,   -0.9020,   -0.8330,  999.0000,  999.0000,  999.0000,  999.0000,    1.3566,    1.8055,    2.2693,    2.5316,    2.5579,    2.3192,    1.8072,    1.5344,    1.4788,    1.8704,    2.6194,    3.1609,  999.0000,    4.6492,    4.3514,    3.9993,    3.9341,    5.3232,  999.0000,  999.0000,  999.0000,  999.0000,  999.0000,  999.0000,  999.0000,  999.0000,  999.0000,  999.0000,  999.0000,    4.4197,  999.0000,  999.0000,  999.0000,  999.0000,  999.0000,  999.0000,  999.0000,  999.0000,    5.2887,    4.6676,    4.3786,    4.0838,    3.7220,    3.3464,    2.8607,    2.3645,    1.8048,    1.3133,    1.1433,
  8-AUG-2000 20:23:45.00,  999.0000,  999.0000,  999.0000,   -2.2788,   -2.2847,   -2.2400,   -2.0337,   -1.7664,  999.0000,  999.0000,   -0.4695,   -0.1546,   -0.0741,    0.1367,    0.5741,    1.0110,  999.0000,  999.0000,    2.3188,    2.5783,    2.6309,    2.6058,    2.5005,    2.3078,    2.0357,    2.2718,    2.9140,    2.6190,    3.1402,    3.6803,    3.5059,    2.9205,    2.9611,    3.3147,    3.4047,    3.3808,    3.7175,    4.1875,    4.5205,    4.7938,    4.7383,    4.5853,    4.4988,    4.4653,    4.1728,    3.8432,    4.1023,    4.4349,    4.2687,    4.1675,    4.3672,    4.5819,    4.3756,    4.2254,    3.7491,    3.2966,    3.3192,    3.3503,    3.4809,    3.4952,    2.5797,    1.8178,    1.9761,    2.0185,    1.5185,
  8-AUG-2000 20:30:27.00,  999.0000,  999.0000,  999.0000,   -1.4471,   -1.8319,   -1.9975,   -1.4620,   -0.9921,   -0.6996,   -0.4282,  999.0000,  999.0000,    0.2389,    0.5316,  999.0000,  999.0000,    1.7758,    2.0328,    2.0796,    2.1917,    2.3805,    2.5360,    2.6575,    2.5604,    2.2649,    2.6565,    2.9286,    3.2008,    3.6809,    4.2980,    4.6792,    4.8541,    4.9744,    5.0774,    5.0966,    5.1058,    5.0397,    4.9456,    5.0913,  999.0000,  999.0000,  999.0000,  999.0000,    6.1267,    5.9654,    5.7427,    5.8435,    5.9848,  999.0000,  999.0000,  999.0000,  999.0000,  999.0000,    5.2773,    4.9643,    4.6671,    4.6863,    4.6759,    4.3232,    3.9059,    2.9720,    2.2168,    2.5323,    2.6914,  999.0000,
  8-AUG-2000 20:37:10.00,  999.0000,  999.0000,  999.0000,   -0.7814,   -0.6893,   -0.5243,  999.0000,  999.0000,    0.6695,    0.9464,  999.0000,  999.0000,  999.0000,  999.0000,    0.9318,    1.0529,  999.0000,  999.0000,    1.9811,    2.4020,    2.9535,    3.2508,    3.2859,    3.3471,  999.0000,    2.9124,    3.2316,    3.5547,    3.8861,    4.0456,    4.4729,    5.8125,    6.2089,    6.0795,    5.9012,    5.3945,    5.0982,    4.7333,    5.0677,    5.7394,    6.1136,    6.4505,    6.7568,    7.0566,    6.7958,    6.4416,    6.2537,    6.0866,    5.6481,    5.1863,    5.8310,    6.5310,    5.9068,    5.2639,    4.7692,    4.3220,    4.8224,    5.1984,    4.1346,    3.1767,    3.0647,    2.9543,    2.8533,    2.7407,    2.5727,
  8-AUG-2000 20:43:52.00,   -0.7160,   -0.8672,  999.0000,  999.0000,  999.0000,  999.0000,   -1.0451,   -0.9734,  999.0000,  999.0000,    0.1128,    0.2434,   -0.0887,   -0.0884,    0.4895,    0.8609,  999.0000,  999.0000,  999.0000,  999.0000,    1.1511,    1.0992,    0.9339,    0.8605,    0.8708,    1.2278,  999.0000,  999.0000,    3.1304,    3.3160,    3.7841,    4.2316,    5.2296,    6.5031,    6.4101,    5.7268,    5.8316,  999.0000,    6.8748,    7.1759,    7.4492,    7.6407,    7.3426,    6.8758,    6.3902,    5.8141,    5.8492,    5.9463,    5.5576,    5.1269,    5.8429,    6.6162,    5.7081,    4.7755,    4.0006,    3.2864,    3.7820,    4.1921,    3.6130,    3.0671,    2.7868,    2.4470,    1.7510,    1.2491,    1.6638,
  8-AUG-2000 20:50:55.00,   -1.5527,   -1.8925,   -1.4185,   -1.1257,   -1.5295,   -1.7005,   -1.1270,   -0.6657,  999.0000,  999.0000,   -0.1917,   -0.0500,  999.0000,  999.0000,    0.2769,    0.5349,    1.0191,    1.3468,  999.0000,  999.0000,    1.7045,    1.7816,    1.8153,    1.9762,    2.1100,    2.5253,    3.0660,    3.7007,    4.3044,    4.9070,    5.2072,    5.3505,    5.8634,    6.6546,    6.3573,    5.6050,    5.5063,    5.7280,    6.1043,    7.5534,    7.9060,    7.5140,    8.1292,    7.2662,    6.2246,    5.5894,    5.7167,    5.9360,    5.6140,    5.2454,    5.6091,    6.0094,    5.8971,    5.7620,    4.7294,    3.7543,    3.9281,    4.0655,    3.7821,    3.4792,    3.0206,    2.5457,    1.9738,    1.5692,    1.9550,
  8-AUG-2000 20:57:47.00,  999.0000,  999.0000,  999.0000,  999.0000,   -1.6359,   -1.6121,   -1.2478,   -0.8410,  999.0000,  999.0000,  999.0000,  999.0000,    1.7679,    2.1728,    2.3747,    2.3332,    1.9221,    1.7312,    1.8336,    2.0870,    2.5171,    2.5100,    2.0521,    2.0623,    2.4645,    2.5923,    3.0013,    3.6845,    4.1054,    3.5086,  999.0000,    4.9242,    5.2884,  999.0000,  999.0000,  999.0000,    6.1942,    6.9055,    7.0780,    7.2038,    7.5339,    7.9171,    8.1951,    8.4508,    7.5642,    6.4873,    6.6281,    6.9212,    6.6464,    6.3226,    6.6750,    7.0612,    6.6723,    6.2640,    5.4206,    4.6092,    4.4352,    4.2330,    3.7053,    3.1978,    2.8521,    2.4822,    1.9679,    1.5596,    1.6521,
  8-AUG-2000 21:04:29.00,   -1.1970,   -1.6318,   -1.8747,   -2.1514,   -2.5580,   -2.7158,  999.0000,  999.0000,   -0.8001,   -0.3011,  999.0000,  999.0000,  999.0000,  999.0000,  999.0000,  999.0000,    0.9303,    1.2221,    1.6683,    2.2708,    3.0564,    3.4740,    3.5120,    3.5991,    3.7308,    3.6234,    3.8835,    4.1638,    4.2137,    4.1120,    4.2459,    4.5152,    5.2403,    6.1933,    6.4636,    6.2160,    6.4416,    6.9881,    7.2380,    7.4656,    7.2616,    7.1568,    7.3515,    7.7913,    7.0389,    6.1225,    5.9336,    5.8356,    5.3594,    4.8506,    5.5506,    6.3110,    6.2224,    6.1147,    5.6711,    5.2207,    4.6366,    4.0878,    3.9570,    3.8209,    3.3567,    2.8847,    2.8584,    2.8025,    2.6069,
  8-AUG-2000 21:11:14.00,  999.0000,  999.0000,  999.0000,  999.0000,   -0.6636,   -0.6026,  999.0000,  999.0000,    0.6570,    1.0932,    1.5672,    1.8138,    1.6061,    1.5619,    1.8018,    2.0371,  999.0000,  999.0000,    2.7217,    2.9890,    3.3021,    3.3926,    3.2536,    3.1798,    3.0426,    3.0879,    3.3338,    3.7302,    3.8539,    3.7982,    4.0161,    4.3915,    5.0210,    5.7775,    6.2462,    7.3331,    7.4852,    7.4564,    7.6936,    7.7729,    7.4952,  999.0000,  999.0000,    8.7465,    7.9129,    6.8154,    6.6813,    6.6467,    6.4688,    6.2785,    6.3574,    6.4498,    6.5111,    6.5617,    5.9865,    5.3995,    4.5763,    3.8048,    3.8116,  999.0000,  999.0000,    3.0840,    2.9411,    2.7949,    2.6336,
  8-AUG-2000 21:17:57.00,  999.0000,  999.0000,  999.0000,  999.0000,  999.0000,  999.0000,  999.0000,  999.0000,  999.0000,  999.0000,    1.6236,    1.6465,    1.2822,    1.0285,    0.9671,    1.0884,  999.0000,  999.0000,  999.0000,  999.0000,    3.0829,    3.2619,  999.0000,  999.0000,    2.8944,    3.0298,    3.2802,    3.5140,    3.4905,    3.2687,    3.4612,    4.0039,    3.8453,    3.3085,    3.4456,    4.1882,    4.9357,    5.3721,    5.7027,    5.7961,    5.9333,    5.9763,  999.0000,  999.0000,    5.6039,    5.3589,    5.4541,    5.5872,    5.5675,    5.5347,    5.9806,    6.4504,    6.2938,    6.1193,    5.4516,    4.7726,    3.8657,    3.0600,    3.4257,    3.7716,    3.9583,    4.0047,    3.2106,    2.5344,    2.4144,
  8-AUG-2000 21:24:39.00,  999.0000,   -1.6323,  999.0000,  999.0000,  999.0000,  999.0000,  999.0000,  999.0000,  999.0000,  999.0000,  999.0000,  999.0000,  999.0000,  999.0000,    1.6090,    1.8081,    1.9310,    2.0371,  999.0000,  999.0000,  999.0000,  999.0000,    2.4565,    2.5650,  999.0000,  999.0000,  999.0000,    2.9349,    3.2790,    3.6154,    3.6629,    3.3834,  999.0000,    3.0083,    2.7628,    2.5397,    3.0612,    4.7011,  999.0000,    5.3346,    5.7243,    5.7765,    5.9403,    6.0914,    5.8333,    5.2868,    5.4208,    5.5314,    5.2308,    4.8859,    5.1009,    5.3438,    5.5830,    5.8073,    5.1242,    4.4318,    3.5532,    2.7700,    3.2162,    3.5803,    3.5678,    3.3872,    3.5535,    3.7262,    3.9292,
  8-AUG-2000 21:31:23.00,   -0.8949,   -0.9331,   -1.5109,   -1.9085,   -1.6130,   -1.2860,  999.0000,  999.0000,  999.0000,  999.0000,    0.8523,    1.2574,    1.6173,    1.9013,  999.0000,  999.0000,    2.3577,    2.4760,    2.5491,    2.6376,  999.0000,  999.0000,  999.0000,  999.0000,  999.0000,    2.2572,    2.7122,    3.1508,    3.5025,    3.7970,    4.2109,    4.6935,    4.2744,    3.3072,    2.7099,    2.3673,    2.9761,    3.9786,    4.3580,  999.0000,  999.0000,    4.7937,    4.9846,    5.2284,  999.0000,  999.0000,  999.0000,    5.1587,    5.2565,    5.3649,    5.8722,    6.3995,    6.2324,    6.0494,    5.5679,    5.0561,    3.9386,    2.8922,  999.0000,  999.0000,  999.0000,    1.8747,    2.8587,    3.7118,    3.9472,
  8-AUG-2000 21:38:06.00,   -2.5043,   -2.8773,   -2.6344,   -2.3862,   -2.1170,   -1.7638,   -1.1421,   -0.6313,   -0.4206,   -0.0061,    0.8805,    1.5558,    1.8089,    2.1095,    2.4928,    2.7204,    2.7116,    2.8120,    3.0578,    3.4949,    4.1561,    4.2945,    3.8937,    3.7937,    2.9279,    3.3952,    3.7720,    4.0228,    4.2629,    4.5058,    4.7168,    4.9095,    4.8024,    5.1962,  999.0000,    4.0062,    4.0382,    4.1825,    4.6467,    5.2374,    6.4140,    6.7361,    7.0184,    6.5966,    6.7156,    6.6879,    6.6835,    6.9772,    6.6754,    6.3419,    6.9976,    7.7028,    7.0792,    6.4334,    5.7304,    5.0207,    4.1774,    3.4295,    3.7871,    4.0964,    3.0586,    4.0343,    4.9390,    5.4686,    5.7334,
  8-AUG-2000 21:44:50.00,  999.0000,  999.0000,  999.0000,  999.0000,  999.0000,  999.0000,    0.8143,    1.0851,    1.0837,    0.9948,    0.7037,    0.6882,  999.0000,  999.0000,    2.2945,    2.6267,    2.6501,    2.7171,  999.0000,  999.0000,    3.0923,    3.1548,  999.0000,  999.0000,    3.6580,  999.0000,    3.1451,    3.7890,    4.0589,    4.4622,    4.5821,    4.5390,    4.4256,    4.2771,    4.0989,    3.9077,    4.2474,    4.7833,    5.1807,  999.0000,    6.5571,    6.3188,    6.8124,    7.3266,    7.2150,    7.0189,    6.5593,    6.0153,    5.8791,    5.7738,    6.2841,    6.8251,    6.1468,    5.4409,    4.2372,    3.0941,    3.1591,    3.2268,    3.3240,    3.4291,    3.5967,    3.8402,    4.5390,    5.1017,    5.0219,
  8-AUG-2000 21:51:33.00,   -2.8581,   -2.8662,   -2.3454,   -1.8173,   -1.2614,   -0.7425,  999.0000,  999.0000,  999.0000,  999.0000,    1.2592,    1.6871,    2.1698,    2.4581,    2.4084,    2.5596,    3.0160,    3.3448,  999.0000,  999.0000,    3.8210,    3.9124,    3.9343,    3.9915,  999.0000,    3.3878,    3.5339,    3.5669,    4.0003,    4.7316,    4.8367,    4.6383,    4.3689,    4.0245,    4.0025,    3.9557,    4.4911,    5.2856,    5.7899,    6.2470,    6.9221,    7.6540,    7.7367,    7.6822,    6.2887,  999.0000,  999.0000,    5.6918,    5.5201,    5.3780,    6.1385,    7.1784,    7.2935,    7.5840,    6.5966,    5.6528,    5.5792,    5.4703,    4.9515,    4.5430,    5.0151,    5.4433,    5.6083,    5.6726,    5.2801,
  8-AUG-2000 21:58:15.00,   -2.4222,   -2.7936,   -2.2860,   -1.8124,  999.0000,  999.0000,  999.0000,  999.0000,  999.0000,  999.0000,    0.5865,    1.0598,    1.7942,    2.1957,    2.0186,    1.9394,  999.0000,  999.0000,  999.0000,  999.0000,  999.0000,  999.0000,    2.4232,    2.6713,  999.0000,  999.0000,  999.0000,    3.4943,    3.8998,    4.6531,    4.2859,    4.9963,    5.1801,    5.2893,    5.4456,  999.0000,  999.0000,    6.1218,    6.4969,    6.9076,    7.1814,    7.4196,    7.5849,    7.7347,  999.0000,  999.0000,    6.6671,    6.7504,    7.0472,    7.3932,    8.4078,  999.0000,  999.0000,    8.4148,    6.7300,    5.1149,    4.8892,    4.7132,    5.1132,    5.4079,    4.8607,    4.4283,    4.6836,    4.8442,  999.0000,
  8-AUG-2000 22:04:11.00,   -2.7038,   -2.7143,   -1.7035,   -0.8762,   -0.7548,   -0.5002,    0.1800,    0.6782,    0.6841,    0.8325,    1.3109,    1.6629,    1.7624,    1.9703,    2.3668,    2.7487,    3.1086,    3.4271,    3.6904,    3.9167,    4.0995,    4.0627,    3.7994,    3.6948,    3.7343,    4.0535,    4.4335,    4.7447,    5.1052,    5.4599,    5.4691,    5.2088,    5.0784,    4.9591,    4.8040,    4.6334,    5.0087,    5.5859,    6.1344,    6.6740,    7.2917,    7.9298,    7.9415,    7.8207,    7.4578,    7.0546,    6.4836,    5.8917,    5.7989,    6.1472,    6.3926,    6.9616,    6.8807,    6.7699,    5.0976,    3.4922,    3.2215,    2.9741,    2.9967,    3.0361,    3.2106,    3.4145,    3.7948,    4.1272,    4.2336,
  8-AUG-2000 22:09:15.00,  999.0000,   -1.6204,   -1.3029,   -0.9779,   -0.6239,   -0.1970,    0.4628,    0.8734,    0.6100,    0.6182,    1.2545,    1.7231,    1.8562,    1.9290,    1.8968,    1.9805,  999.0000,  999.0000,    2.7595,    3.0222,    3.2884,    3.3487,    3.1965,    3.0797,    2.9948,    3.2466,    3.7674,    3.9826,  999.0000,  999.0000,    3.9848,    4.4428,    4.3216,    4.2226,    3.8537,    3.3684,    3.9573,    4.9433,    5.2954,    5.4493,    5.7677,    6.1289,    6.5841,    7.0592,    7.0659,    6.9946,    6.8084,    6.6078,    7.1730,    7.4637,    7.7621,    7.7827,    7.4622,    7.1138,    5.7305,    4.4097,    4.3356,    4.2579,    4.1401,    4.0661,    4.3431,    4.5904,    4.7131,    4.7252,    4.3375,
  8-AUG-2000 22:14:19.00,   -2.1957,   -1.9351,   -1.7215,   -1.4852,   -1.1619,   -0.7930,  999.0000,  999.0000,    0.7519,    1.1975,    1.4828,    1.7593,    2.0182,    2.3584,    2.8397,    3.4023,    4.0884,    4.4521,    4.3863,    4.4020,    4.5131,    4.2541,    3.6134,    3.5077,    3.8881,    4.4791,    5.2383,    4.7313,    5.0562,    5.3790,    5.2139,    4.7681,    4.5095,    4.3445,    3.7220,    2.9017,    3.2019,    3.9164,    4.3616,    4.7225,    5.1081,    5.5571,    5.3391,    4.9497,    4.9444,    4.9939,    4.6143,    4.1812,    4.1155,    4.0815,    4.7921,    5.5399,    5.3180,    5.0735,    4.3924,    3.7509,    3.8994,    4.0367,    4.0458,    4.0677,    4.1924,    4.3315,  999.0000,  999.0000,    2.7900,
  8-AUG-2000 22:19:23.00,  999.0000,  999.0000,  999.0000,   -0.9279,   -0.7640,   -0.4423,    0.3842,    1.0512,    1.2867,    1.3965,    1.2151,    1.3552,    2.1378,    2.6678,    2.7585,    3.1320,    3.9352,    4.4930,    4.7242,    4.6501,    4.2186,    3.9289,    3.7855,    3.8193,    4.3444,    4.5977,    5.1186,    5.6763,    6.1694,    6.6200,    6.6804,    6.4719,    6.0713,    5.6341,    5.1528,    4.6782,    4.7633,    5.0553,    5.6752,    6.3974,    6.7288,    6.8553,    6.8831,    6.7441,    6.4013,    5.9955,    5.5676,    5.1370,    4.8789,    4.6357,    4.8173,    5.2052,    5.4961,    5.8466,    4.9371,    4.0809,    4.2866,    4.4643,    4.3176,    4.2016,    4.3302,    4.5086,    4.9853,    5.4053,    5.5574,
  8-AUG-2000 22:24:27.00,   -1.3779,   -1.1853,   -1.0638,   -0.8579,   -0.3268,    0.1771,    0.5940,    0.8285,    0.5695,    0.5401,    1.0419,    1.5564,    2.0962,    2.4474,    2.4708,    2.7631,    3.4639,    3.7324,    3.4252,    3.2527,    3.2381,    3.3848,    3.6979,    3.8890,    3.9695,    3.4537,    4.2603,    5.0669,    5.6140,    5.9904,    6.0521,    5.4961,  999.0000,    5.5888,    5.4882,    5.4230,    5.6548,    5.9963,    6.5702,    7.2167,    7.6292,    7.9808,    8.2079,    8.4087,    8.0434,    7.5838,    7.0776,    6.5657,    6.0972,    5.6324,    6.8158,    7.0907,    7.3565,    6.7191,    6.1329,    5.5568,    5.1833,    4.8411,    4.8601,    4.9009,    5.1159,    5.2850,    5.1794,    5.1736,    5.6394,
  8-AUG-2000 22:29:30.00,  999.0000,  999.0000,  999.0000,  999.0000,  999.0000,  999.0000,    1.6162,    2.0251,    2.1670,    2.1791,    1.8909,    1.7813,    2.0285,    2.1165,    1.9278,    2.1410,    2.9646,    3.4389,    3.4476,    3.4975,    3.5955,    3.4516,    3.0580,    3.0241,    3.3167,    2.9674,    3.3817,    3.7961,    4.1833,    4.5526,    4.7909,    4.9537,    4.8783,    4.6837,    4.6670,    4.5266,    4.9359,    5.5015,    5.7211,    6.1250,    6.4874,    6.9018,    7.3021,    7.6994,    7.2893,    6.7446,    6.2134,    5.6839,    5.1975,    4.7148,    4.7825,    4.8775,    5.6682,    6.4506,    6.0345,    5.6075,    4.9629,    4.3696,    4.3710,    4.3942,    4.5925,    4.8013,    5.0725,    5.3074,    5.2874,
  8-AUG-2000 22:34:35.00,   -0.3264,    0.6924,  999.0000,  999.0000,    0.4181,    0.4056,    0.6455,    0.8649,    1.0287,    1.1815,    1.3088,    1.4624,    1.6687,    1.7756,    1.7097,    1.8141,    2.1769,    2.3659,    2.3235,    2.3283,    2.3882,    2.4057,    2.3794,    2.4228,    2.5296,    2.7892,    3.0806,    3.3551,    3.6365,    3.9226,    4.1220,    4.2715,    4.3244,    4.3290,    4.6052,    4.9702,    5.5832,    5.8762,    6.0605,    7.0055,    7.2447,    7.1581,    6.9173,    6.5896,    6.4065,    6.2474,    5.2229,    4.0903,    3.7938,    3.5693,    3.7043,    3.8572,    4.3667,    4.8718,    4.7537,    4.6284,    4.3569,    4.1129,    4.1868,    4.2792,    4.5197,    4.8136,    5.4283,    5.8945,    5.7801,
  8-AUG-2000 22:39:39.00,  999.0000,  999.0000,  999.0000,   -1.1249,   -0.1024,    0.7178,    0.8904,    1.1416,    1.6054,    2.0206,    2.3234,    2.4984,    2.4179,    2.2627,    1.9774,    2.0998,    2.8415,    3.1686,    2.9433,    2.9902,    3.3560,    3.4271,    3.1945,    3.0455,    2.8309,    3.0769,    3.1410,    3.2112,    3.3178,    3.6424,    3.7160,    3.4996,    3.4455,    3.4057,    3.4096,    3.4324,    3.7716,    4.2277,    4.5252,    5.4167,    5.6025,    5.1861,    5.4432,    5.7121,    5.7889,    5.8337,    5.1685,    4.4145,    3.9078,    3.4223,    3.7182,    4.0531,    4.5087,    4.9621,    5.1652,    5.3373,    4.8902,    4.4730,    4.4029,    4.3723,    4.6574,    4.9487,    5.2775,    5.5131,    5.3093,
  8-AUG-2000 22:44:43.00,  999.0000,  999.0000,  999.0000,  999.0000,  999.0000,  999.0000,  999.0000,  999.0000,  999.0000,  999.0000,    1.6638,    1.8097,    1.6327,    1.5631,    1.6801,    2.0062,    2.6499,    3.1092,    3.3228,    3.4966,    3.6239,    3.7418,    3.8500,    3.9016,    3.9016,    4.1227,    4.5207,    4.1942,    4.0739,    4.9687,    4.3718,    3.5112,    3.4354,    3.4437,    3.5514,    3.2926,    3.5642,    3.9291,    4.5164,    5.5489,    5.8923,    6.1730,    6.6093,    7.0785,    6.6759,    6.1280,    5.7235,    5.3369,    4.6417,    3.9200,    4.1408,    4.4087,    4.9150,    5.4231,    5.8060,    6.1356,    5.4008,    4.7342,    4.8589,    5.0128,    5.4003,    5.7622,    5.9704,    6.1455,    6.1647,
  8-AUG-2000 22:49:48.00,  999.0000,  999.0000,  999.0000,  999.0000,  999.0000,  999.0000,  999.0000,  999.0000,    3.0795,    3.2871,    3.1496,    3.0589,  999.0000,  999.0000,    3.0677,    3.2855,    3.8297,    4.1732,    4.2492,    4.1731,    3.9185,    3.9153,    4.1713,    4.2058,    4.0390,    4.0523,  999.0000,    4.2422,    4.6677,    5.0805,    5.0286,    4.7094,    4.4349,    4.1828,    4.3688,  999.0000,  999.0000,  999.0000,    6.6690,    7.1482,    7.4587,    7.6659,    7.8561,    8.0427,    7.6032,    7.0594,    6.7257,    6.4183,    6.1245,    5.8319,    5.6515,    5.4767,    5.7117,    5.9492,    5.9305,    5.9016,    5.6674,    5.4514,    5.4476,    5.5024,    6.0256,    6.5246,    6.8785,    7.0443,    6.3218,
  8-AUG-2000 22:54:53.00,   -0.8950,   -0.5260,  999.0000,  999.0000,  999.0000,  999.0000,    1.3978,    1.9828,    3.1092,    3.7991,    3.4788,    3.1647,    2.8634,    2.7554,    2.9836,    3.5371,    4.5846,    5.0788,    4.8359,    4.7447,    4.8310,    4.8654,  999.0000,  999.0000,  999.0000,    3.9158,    4.2391,    4.4577,    4.7018,    4.8802,    4.7187,    4.3617,    3.8291,    3.2087,    2.6388,    2.0908,    2.1595,    2.4562,    3.5348,    4.8578,    5.4281,    5.8028,    5.9754,    6.1053,    6.4108,    6.4074,    6.1895,    5.6368,    5.4763,    5.3186,    5.1321,    4.9441,    5.0007,    4.9348,    5.4428,    5.7592,    5.5813,    5.4225,    5.4849,    5.5524,    5.6603,    5.8015,    6.1423,    6.3809,    6.1365,
  8-AUG-2000 22:59:57.00,   -0.9978,   -0.8418,    0.0096,    0.7053,  999.0000,  999.0000,  999.0000,  999.0000,  999.0000,  999.0000,  999.0000,  999.0000,    1.5769,    1.7260,    1.9659,    2.2918,    2.7482,    2.8754,    2.5637,    2.3020,    2.0987,    2.0084,    2.0347,    2.2876,  999.0000,  999.0000,    3.6635,    3.7954,    4.1556,    4.5158,    4.3548,    3.8938,    3.5302,    3.2153,    3.0379,    2.9198,    2.7921,    2.6609,    3.0604,    3.6258,    4.1194,    4.5943,    4.9483,    5.2767,    5.2220,  999.0000,  999.0000,    4.9456,    4.7767,    4.6103,    4.1936,    4.1255,    4.2906,    4.8377,    5.3726,    5.5937,    5.3788,    5.1704,    5.0379,    4.9578,    5.2971,    5.6222,    5.8626,    6.0167,    5.7629,
  8-AUG-2000 23:05:02.00,  999.0000,   -0.8523,   -0.0448,    0.7126,    1.2773,    1.5880,    1.0862,    0.7720,    0.9651,    1.2381,    1.6960,    1.8690,    1.4725,    1.3753,    1.7981,    2.3103,    2.9584,    3.1736,    2.8123,    2.4779,    2.1751,    2.3123,    2.9033,    3.3157,    3.5659,    3.7392,  999.0000,    3.7536,    3.8301,    3.9067,    3.5021,    2.8206,    2.7289,    2.8825,    3.1972,    3.6141,    3.8042,    3.9295,    4.1697,    4.4459,    4.9429,    5.4974,    6.2290,    6.9982,    7.5044,    7.9668,    7.3812,    6.6647,    6.5328,    6.4513,    5.8439,    5.7855,    5.7303,    5.7216,    6.2008,    6.6481,    6.4584,    6.2545,    5.8866,    5.5726,    5.6893,    5.8290,    6.1063,    6.3257,    6.2716,
  8-AUG-2000 23:10:06.00,  999.0000,  999.0000,  999.0000,    0.4894,    1.0190,    1.3025,    0.7993,    0.4033,  999.0000,  999.0000,    0.0851,    0.2137,  999.0000,  999.0000,    2.0065,    2.3837,    2.4261,    2.2459,    1.7690,    1.6478,    1.9433,    2.0969,    2.1042,    2.3147,    2.7097,    3.1884,    3.7341,    3.8373,    4.1260,    4.4148,    3.9896,    3.1092,    2.9014,  999.0000,    3.3981,    3.2385,    3.3074,    3.3367,    3.4060,    3.4878,    4.1183,    4.8915,    5.7383,    6.6007,    6.7014,    6.6751,    5.7898,    4.7972,    4.8464,    4.9854,    5.0525,    5.1161,    5.2872,    5.4573,    5.4561,    5.4769,    5.9367,    6.3343,    6.0121,    5.7552,    6.0199,    6.1560,    5.5222,    5.0916,    5.6204,
  8-AUG-2000 23:15:09.00,  999.0000,  999.0000,  999.0000,  999.0000,    2.0179,    1.9703,    1.5022,    1.2876,    1.7586,    1.9882,    1.6591,    1.3397,    1.0398,    0.9700,  999.0000,  999.0000,  999.0000,  999.0000,    2.6207,    2.7017,    2.4911,    2.4965,    2.7247,    2.8931,    3.0072,    3.5068,    4.3143,    3.9472,    4.3560,    4.8019,    4.4880,  999.0000,  999.0000,    2.5757,    2.5154,    2.6698,    2.8284,    2.8784,    3.2841,    3.7937,    4.5815,    5.4417,    5.9867,    6.4650,    6.5756,    6.6250,    6.3772,    5.7739,    5.3975,    4.8893,    5.2196,    5.4253,    5.2950,    5.1331,    4.9858,    4.8712,    5.4097,    5.8725,    5.4595,    5.1162,    5.3304,    5.5015,    5.4154,    5.3614,    5.4596,
  8-AUG-2000 23:20:13.00,  999.0000,   -4.9490,  999.0000,  999.0000,  999.0000,  999.0000,  999.0000,  999.0000,  999.0000,  999.0000,  999.0000,  999.0000,    1.6220,    2.0258,    2.0930,    2.1510,  999.0000,  999.0000,  999.0000,  999.0000,  999.0000,  999.0000,  999.0000,  999.0000,  999.0000,  999.0000,  999.0000,  999.0000,  999.0000,    5.2391,    4.6781,    4.0741,    3.5385,    3.0126,    2.8033,    3.3612,    3.6567,    2.8070,    2.9407,    3.0975,    3.5155,    4.0013,    4.4625,    4.9185,    5.0796,    5.1915,    4.6798,    4.3290,    3.9838,    4.0848,    4.8291,    5.3661,    5.9057,    5.4041,    5.8157,    6.1937,    5.9010,    5.6262,    5.5581,    5.5212,    5.7342,    5.9061,    5.8320,    5.7699,    5.7644,
  8-AUG-2000 23:25:18.00,  999.0000,  999.0000,  999.0000,   -0.3462,  999.0000,  999.0000,  999.0000,  999.0000,    2.0773,    2.3798,  999.0000,  999.0000,  999.0000,  999.0000,    1.7824,    1.7795,    1.9536,    2.0841,  999.0000,  999.0000,    2.3013,    2.4720,    2.7441,    3.1780,    3.7588,    4.1525,  999.0000,    4.9602,    5.1580,    5.3557,    5.0015,    3.7354,  999.0000,    3.0433,    2.7235,    2.5411,    2.9720,    3.6297,    4.0444,    4.3831,    4.6647,    4.9314,    5.4563,    6.0357,    6.3138,    6.5418,    6.1503,    5.6814,    5.2091,    4.7366,    5.0545,    5.4118,    5.6035,    5.7898,    5.7969,    5.7955,    5.6251,    5.4962,    5.8479,    6.1680,    6.2362,    6.2962,    6.3076,    6.3061,    6.2442,
  8-AUG-2000 23:30:22.00,   -3.0166,   -3.1162,  999.0000,  999.0000,   -1.4462,   -0.8554,  999.0000,  999.0000,  999.0000,  999.0000,    2.6459,    2.9209,    2.3460,    1.8982,    1.6714,    1.6391,  999.0000,  999.0000,  999.0000,  999.0000,  999.0000,  999.0000,  999.0000,  999.0000,    4.0064,    4.4111,    4.9290,    5.0800,    5.3500,    5.6199,    5.2546,    4.4072,    3.8123,    3.3287,    3.0833,    2.8495,    3.2332,    3.8167,    4.0673,    4.2140,    4.5822,    5.0080,    5.6818,    6.4082,    6.5355,    6.5630,    6.1975,    5.7829,    5.3035,    4.8186,    4.8723,    4.9530,    5.3131,    5.6725,    5.7137,    5.7471,    5.6261,    5.5208,    5.5976,    5.6543,    5.5502,    5.4992,    5.7062,    6.0190,    6.1519,
  8-AUG-2000 23:35:26.00,  999.0000,  999.0000,  999.0000,  999.0000,    3.8763,    3.6827,  999.0000,  999.0000,  999.0000,  999.0000,    2.7147,    2.3105,    1.4854,    1.1541,    1.6807,    2.0854,    2.3049,    2.4603,    2.5305,    2.6231,  999.0000,  999.0000,  999.0000,  999.0000,  999.0000,  999.0000,  999.0000,  999.0000,  999.0000,  999.0000,    3.9292,    3.5168,    3.2508,    2.7477,    3.0988,    2.5542,    3.0888,    3.8906,    4.3407,    4.6809,    5.0830,    5.5012,    6.0524,    6.6318,    6.3711,    5.9704,    6.0633,    6.2180,    6.1190,    5.9982,    5.8963,    5.7953,    6.1810,    6.5732,    6.9184,    7.1934,    6.8238,    6.6538,    6.7645,    6.8727,    6.9604,    7.0157,    8.4053,  999.0000,  999.0000,
  8-AUG-2000 23:40:30.00,  999.0000,  999.0000,  999.0000,    4.3131,  999.0000,  999.0000,  999.0000,  999.0000,  999.0000,  999.0000,    0.6931,    0.3552,    0.3757,    0.1894,   -0.3563,   -0.5267,  999.0000,  999.0000,    0.6714,    0.9394,    1.0535,    1.3837,  999.0000,  999.0000,    3.0426,    3.2793,    3.2632,    3.9377,    3.8912,    3.8446,    3.8143,    3.7259,    3.4584,    3.1397,    3.2439,    3.3241,    3.8138,    4.6610,    4.8670,    4.9539,    5.1399,    5.3517,    5.6423,    5.9496,    5.8347,    5.6495,    5.5453,    5.4512,    5.5137,    5.5896,    5.4784,    5.3579,    5.5366,    5.7269,    7.0215,    7.7837,    8.4649,    7.9723,    7.4347,    6.9625,    7.0127,    7.0973,    7.3875,    7.5965,    7.4220,
  8-AUG-2000 23:45:34.00,   -0.2984,    0.3767,  999.0000,  999.0000,    3.7802,    4.4991,  999.0000,  999.0000,    2.6690,    2.2187,  999.0000,  999.0000,  999.0000,  999.0000,  999.0000,  999.0000,    1.6529,    1.6443,    1.7321,    1.8812,    2.1021,    2.3464,  999.0000,  999.0000,    3.1517,    3.4247,    3.7012,    3.4490,    3.8031,    4.1572,    4.0541,    4.0363,  999.0000,    2.8970,    3.2260,    4.2048,  999.0000,    5.5381,    5.8718,    6.0372,    6.0501,    5.9915,    5.9132,    5.8307,    5.4359,    4.9892,    4.9480,    4.9575,    5.0712,    5.1937,    5.0547,    4.9026,    5.0788,    5.2696,    6.0360,    6.7860,    7.2083,    7.6002,    7.6417,    7.6579,    7.4732,    7.3759,    7.8022,    8.1687,    8.2532,
  8-AUG-2000 23:50:39.00,    0.4667,    0.0865,  999.0000,  999.0000,  999.0000,  999.0000,    0.0889,    0.1021,  999.0000,  999.0000,    0.2447,    0.4096,    0.8090,    0.9546,    0.6590,    0.7190,    1.3188,    1.5140,    1.1702,    1.1997,    1.6663,    1.7837,    1.5409,    1.5380,  999.0000,  999.0000,  999.0000,    3.6130,    3.5604,    3.5012,    3.2601,    2.9727,    2.4710,    1.9398,    1.8771,    2.0128,    2.7378,  999.0000,    4.4362,    5.3305,    5.3664,    5.1697,    5.2163,    5.2692,    5.0907,    4.8684,    4.8142,    4.7809,    4.5140,    4.2270,    4.3649,    4.5241,    4.5782,    4.6388,    5.2012,    5.7613,    6.2779,    6.7694,    6.9703,    7.1498,    7.1584,    7.1557,    7.0852,    7.0484,    7.2766,
  8-AUG-2000 23:55:43.00,  999.0000,  999.0000,  999.0000,    1.9335,  999.0000,  999.0000,  999.0000,  999.0000,    2.3870,    2.4601,    2.4923,    2.4802,  999.0000,  999.0000,  999.0000,  999.0000,  999.0000,  999.0000,  999.0000,  999.0000,    1.5770,    1.4317,    1.2401,    1.6342,    2.5602,    3.1446,    3.0204,    2.4862,    2.2288,    2.7807,    2.6453,    1.8589,    1.5122,    1.9818,    1.8748,    1.8372,    2.7177,    3.9377,    4.5539,    4.9814,    6.0835,    6.1554,    6.1759,    5.0412,    4.7517,    4.4171,    4.1762,    3.9470,    3.9949,    4.0666,    3.9779,    3.8811,    3.8293,    3.7899,    4.4731,    5.1639,    6.0052,    6.8199,    7.3268,    7.7763,    7.7674,    7.7155,    7.4054,    7.1041,    8.4443,
